<?xml version="1.0" encoding="UTF-8" standalone="yes"?>
<gpx
 xmlns="http://www.topografix.com/GPX/1/1"
 creator="OziExplorer Version 3956f - http://www.oziexplorer.com"
 version="1.1"
 xmlns:xsi="http://www.w3.org/2001/XMLSchema-instance"
 xsi:schemaLocation="http://www.topografix.com/GPX/1/1 http://www.topografix.com/GPX/1/1/gpx.xsd">
<metadata>
 <time>2024-03-24T10:20:42Z</time>
 <bounds minlat="31.400440" minlon="34.474400" maxlat="31.446190" maxlon="34.569450"/>
</metadata>
<wpt lat="31.4282300" lon="34.4934500">
 <time>2024-03-24T12:19:59.241Z</time>
 <name>St\Fin</name>
 <sym>Bike Trail</sym>
</wpt>
<wpt lat="31.4105900" lon="34.5042000">
 <time>2024-03-24T12:19:59.266Z</time>
 <name>Vlevo</name>
 <sym>Flag, Red</sym>
</wpt>
<trk>
 <name>Beeri-Netivot-Beeri_Sin,35км.400m</name>
 <desc>Beeri-Netivot-Beeri_Sin,35км.400m</desc>
<trkseg>
<trkpt lat="31.4282300" lon="34.4934500">
<ele>82.260002</ele>
<time>2024-03-24T12:19:59.266Z</time>
</trkpt>
<trkpt lat="31.4282200" lon="34.4934500">
<ele>82.090004</ele>
<time>2024-03-24T12:19:59.266Z</time>
</trkpt>
<trkpt lat="31.4283100" lon="34.4938600">
<ele>84.380005</ele>
<time>2024-03-24T12:19:59.266Z</time>
</trkpt>
<trkpt lat="31.4283400" lon="34.4940400">
<ele>83.379997</ele>
<time>2024-03-24T12:19:59.266Z</time>
</trkpt>
<trkpt lat="31.4284000" lon="34.4942600">
<ele>81.230003</ele>
<time>2024-03-24T12:19:59.266Z</time>
</trkpt>
<trkpt lat="31.4282900" lon="34.4943800">
<ele>79.309998</ele>
<time>2024-03-24T12:19:59.266Z</time>
</trkpt>
<trkpt lat="31.4285300" lon="34.4947700">
<ele>80.880005</ele>
<time>2024-03-24T12:19:59.266Z</time>
</trkpt>
<trkpt lat="31.4290100" lon="34.4955500">
<ele>79.350006</ele>
<time>2024-03-24T12:19:59.266Z</time>
</trkpt>
<trkpt lat="31.4291700" lon="34.4957900">
<ele>84.349998</ele>
<time>2024-03-24T12:19:59.266Z</time>
</trkpt>
<trkpt lat="31.4289200" lon="34.4959000">
<ele>81.950005</ele>
<time>2024-03-24T12:19:59.266Z</time>
</trkpt>
<trkpt lat="31.4291500" lon="34.4964600">
<ele>85.500000</ele>
<time>2024-03-24T12:19:59.266Z</time>
</trkpt>
<trkpt lat="31.4293500" lon="34.4968600">
<ele>77.550003</ele>
<time>2024-03-24T12:19:59.266Z</time>
</trkpt>
<trkpt lat="31.4294900" lon="34.4969600">
<ele>76.389999</ele>
<time>2024-03-24T12:19:59.266Z</time>
</trkpt>
<trkpt lat="31.4298100" lon="34.4970800">
<ele>79.929993</ele>
<time>2024-03-24T12:19:59.266Z</time>
</trkpt>
<trkpt lat="31.4300600" lon="34.4971300">
<ele>83.579994</ele>
<time>2024-03-24T12:19:59.266Z</time>
</trkpt>
<trkpt lat="31.4301000" lon="34.4974000">
<ele>82.619995</ele>
<time>2024-03-24T12:19:59.266Z</time>
</trkpt>
<trkpt lat="31.4302500" lon="34.4974200">
<ele>84.849998</ele>
<time>2024-03-24T12:19:59.266Z</time>
</trkpt>
<trkpt lat="31.4304100" lon="34.4974900">
<ele>85.989998</ele>
<time>2024-03-24T12:19:59.266Z</time>
</trkpt>
<trkpt lat="31.4305800" lon="34.4975400">
<ele>86.550003</ele>
<time>2024-03-24T12:19:59.266Z</time>
</trkpt>
<trkpt lat="31.4306900" lon="34.4975400">
<ele>88.419998</ele>
<time>2024-03-24T12:19:59.266Z</time>
</trkpt>
<trkpt lat="31.4308000" lon="34.4976200">
<ele>89.829994</ele>
<time>2024-03-24T12:19:59.266Z</time>
</trkpt>
<trkpt lat="31.4309100" lon="34.4976000">
<ele>92.989998</ele>
<time>2024-03-24T12:19:59.266Z</time>
</trkpt>
<trkpt lat="31.4309100" lon="34.4976000">
<ele>92.989998</ele>
<time>2024-03-24T12:19:59.266Z</time>
</trkpt>
<trkpt lat="31.4309100" lon="34.4976000">
<ele>92.989998</ele>
<time>2024-03-24T12:19:59.266Z</time>
</trkpt>
<trkpt lat="31.4309400" lon="34.4975900">
<ele>93.849998</ele>
<time>2024-03-24T12:19:59.266Z</time>
</trkpt>
<trkpt lat="31.4311000" lon="34.4976600">
<ele>100.049995</ele>
<time>2024-03-24T12:19:59.266Z</time>
</trkpt>
<trkpt lat="31.4312000" lon="34.4977500">
<ele>104.099998</ele>
<time>2024-03-24T12:19:59.266Z</time>
</trkpt>
<trkpt lat="31.4315000" lon="34.4979600">
<ele>111.239998</ele>
<time>2024-03-24T12:19:59.266Z</time>
</trkpt>
<trkpt lat="31.4317300" lon="34.4981700">
<ele>114.279999</ele>
<time>2024-03-24T12:19:59.266Z</time>
</trkpt>
<trkpt lat="31.4321000" lon="34.4984000">
<ele>114.120003</ele>
<time>2024-03-24T12:19:59.266Z</time>
</trkpt>
<trkpt lat="31.4331700" lon="34.4993200">
<ele>109.080002</ele>
<time>2024-03-24T12:19:59.266Z</time>
</trkpt>
<trkpt lat="31.4352100" lon="34.5011000">
<ele>104.899994</ele>
<time>2024-03-24T12:19:59.266Z</time>
</trkpt>
<trkpt lat="31.4352500" lon="34.5011800">
<ele>105.290001</ele>
<time>2024-03-24T12:19:59.266Z</time>
</trkpt>
<trkpt lat="31.4355100" lon="34.5014300">
<ele>112.769997</ele>
<time>2024-03-24T12:19:59.266Z</time>
</trkpt>
<trkpt lat="31.4356200" lon="34.5016000">
<ele>111.330002</ele>
<time>2024-03-24T12:19:59.266Z</time>
</trkpt>
<trkpt lat="31.4358400" lon="34.5017400">
<ele>111.299995</ele>
<time>2024-03-24T12:19:59.266Z</time>
</trkpt>
<trkpt lat="31.4360800" lon="34.5019200">
<ele>114.419998</ele>
<time>2024-03-24T12:19:59.266Z</time>
</trkpt>
<trkpt lat="31.4362800" lon="34.5020500">
<ele>116.980003</ele>
<time>2024-03-24T12:19:59.266Z</time>
</trkpt>
<trkpt lat="31.4363400" lon="34.5021400">
<ele>117.000000</ele>
<time>2024-03-24T12:19:59.266Z</time>
</trkpt>
<trkpt lat="31.4364900" lon="34.5022800">
<ele>116.949997</ele>
<time>2024-03-24T12:19:59.266Z</time>
</trkpt>
<trkpt lat="31.4366100" lon="34.5024300">
<ele>115.160004</ele>
<time>2024-03-24T12:19:59.266Z</time>
</trkpt>
<trkpt lat="31.4371100" lon="34.5029000">
<ele>113.310005</ele>
<time>2024-03-24T12:19:59.266Z</time>
</trkpt>
<trkpt lat="31.4372500" lon="34.5030100">
<ele>114.150002</ele>
<time>2024-03-24T12:19:59.266Z</time>
</trkpt>
<trkpt lat="31.4382200" lon="34.5039100">
<ele>96.919998</ele>
<time>2024-03-24T12:19:59.266Z</time>
</trkpt>
<trkpt lat="31.4385000" lon="34.5041200">
<ele>89.010002</ele>
<time>2024-03-24T12:19:59.266Z</time>
</trkpt>
<trkpt lat="31.4387800" lon="34.5044100">
<ele>92.590004</ele>
<time>2024-03-24T12:19:59.266Z</time>
</trkpt>
<trkpt lat="31.4392100" lon="34.5047800">
<ele>93.599998</ele>
<time>2024-03-24T12:19:59.266Z</time>
</trkpt>
<trkpt lat="31.4394500" lon="34.5050200">
<ele>93.250000</ele>
<time>2024-03-24T12:19:59.266Z</time>
</trkpt>
<trkpt lat="31.4413500" lon="34.5067400">
<ele>113.579994</ele>
<time>2024-03-24T12:19:59.266Z</time>
</trkpt>
<trkpt lat="31.4429800" lon="34.5085600">
<ele>91.700005</ele>
<time>2024-03-24T12:19:59.266Z</time>
</trkpt>
<trkpt lat="31.4431500" lon="34.5087100">
<ele>94.160004</ele>
<time>2024-03-24T12:19:59.266Z</time>
</trkpt>
<trkpt lat="31.4432100" lon="34.5088000">
<ele>96.750000</ele>
<time>2024-03-24T12:19:59.266Z</time>
</trkpt>
<trkpt lat="31.4437300" lon="34.5093900">
<ele>106.579994</ele>
<time>2024-03-24T12:19:59.266Z</time>
</trkpt>
<trkpt lat="31.4438800" lon="34.5096400">
<ele>105.250000</ele>
<time>2024-03-24T12:19:59.266Z</time>
</trkpt>
<trkpt lat="31.4440900" lon="34.5098000">
<ele>105.650002</ele>
<time>2024-03-24T12:19:59.266Z</time>
</trkpt>
<trkpt lat="31.4447600" lon="34.5105500">
<ele>107.949997</ele>
<time>2024-03-24T12:19:59.266Z</time>
</trkpt>
<trkpt lat="31.4448800" lon="34.5106500">
<ele>108.160004</ele>
<time>2024-03-24T12:19:59.266Z</time>
</trkpt>
<trkpt lat="31.4449500" lon="34.5106500">
<ele>108.080002</ele>
<time>2024-03-24T12:19:59.266Z</time>
</trkpt>
<trkpt lat="31.4452100" lon="34.5109500">
<ele>106.529999</ele>
<time>2024-03-24T12:19:59.266Z</time>
</trkpt>
<trkpt lat="31.4452200" lon="34.5110000">
<ele>104.970001</ele>
<time>2024-03-24T12:19:59.266Z</time>
</trkpt>
<trkpt lat="31.4453100" lon="34.5111500">
<ele>102.279999</ele>
<time>2024-03-24T12:19:59.266Z</time>
</trkpt>
<trkpt lat="31.4453800" lon="34.5112300">
<ele>104.599998</ele>
<time>2024-03-24T12:19:59.266Z</time>
</trkpt>
<trkpt lat="31.4455000" lon="34.5113200">
<ele>107.250000</ele>
<time>2024-03-24T12:19:59.266Z</time>
</trkpt>
<trkpt lat="31.4456700" lon="34.5115500">
<ele>104.180000</ele>
<time>2024-03-24T12:19:59.266Z</time>
</trkpt>
<trkpt lat="31.4461100" lon="34.5120300">
<ele>87.229996</ele>
<time>2024-03-24T12:19:59.266Z</time>
</trkpt>
<trkpt lat="31.4461700" lon="34.5121200">
<ele>85.730003</ele>
<time>2024-03-24T12:19:59.266Z</time>
</trkpt>
<trkpt lat="31.4461900" lon="34.5122000">
<ele>84.360001</ele>
<time>2024-03-24T12:19:59.266Z</time>
</trkpt>
<trkpt lat="31.4461900" lon="34.5123400">
<ele>81.970001</ele>
<time>2024-03-24T12:19:59.266Z</time>
</trkpt>
<trkpt lat="31.4461300" lon="34.5124600">
<ele>78.820000</ele>
<time>2024-03-24T12:19:59.266Z</time>
</trkpt>
<trkpt lat="31.4459300" lon="34.5127000">
<ele>72.650002</ele>
<time>2024-03-24T12:19:59.266Z</time>
</trkpt>
<trkpt lat="31.4458100" lon="34.5128200">
<ele>71.049995</ele>
<time>2024-03-24T12:19:59.266Z</time>
</trkpt>
<trkpt lat="31.4456100" lon="34.5129400">
<ele>73.620003</ele>
<time>2024-03-24T12:19:59.266Z</time>
</trkpt>
<trkpt lat="31.4451800" lon="34.5130800">
<ele>72.330002</ele>
<time>2024-03-24T12:19:59.266Z</time>
</trkpt>
<trkpt lat="31.4446900" lon="34.5132900">
<ele>70.879997</ele>
<time>2024-03-24T12:19:59.266Z</time>
</trkpt>
<trkpt lat="31.4444300" lon="34.5134500">
<ele>70.559998</ele>
<time>2024-03-24T12:19:59.266Z</time>
</trkpt>
<trkpt lat="31.4443700" lon="34.5135100">
<ele>70.190002</ele>
<time>2024-03-24T12:19:59.266Z</time>
</trkpt>
<trkpt lat="31.4438300" lon="34.5142100">
<ele>68.680000</ele>
<time>2024-03-24T12:19:59.266Z</time>
</trkpt>
<trkpt lat="31.4436100" lon="34.5146100">
<ele>71.790001</ele>
<time>2024-03-24T12:19:59.266Z</time>
</trkpt>
<trkpt lat="31.4434200" lon="34.5151100">
<ele>71.570000</ele>
<time>2024-03-24T12:19:59.266Z</time>
</trkpt>
<trkpt lat="31.4433500" lon="34.5152700">
<ele>68.650002</ele>
<time>2024-03-24T12:19:59.266Z</time>
</trkpt>
<trkpt lat="31.4432800" lon="34.5153500">
<ele>66.510002</ele>
<time>2024-03-24T12:19:59.266Z</time>
</trkpt>
<trkpt lat="31.4431700" lon="34.5154600">
<ele>62.730000</ele>
<time>2024-03-24T12:19:59.266Z</time>
</trkpt>
<trkpt lat="31.4429100" lon="34.5156500">
<ele>61.119999</ele>
<time>2024-03-24T12:19:59.266Z</time>
</trkpt>
<trkpt lat="31.4424000" lon="34.5159600">
<ele>63.340000</ele>
<time>2024-03-24T12:19:59.266Z</time>
</trkpt>
<trkpt lat="31.4418200" lon="34.5162400">
<ele>66.260002</ele>
<time>2024-03-24T12:19:59.266Z</time>
</trkpt>
<trkpt lat="31.4414800" lon="34.5163400">
<ele>73.050003</ele>
<time>2024-03-24T12:19:59.266Z</time>
</trkpt>
<trkpt lat="31.4413500" lon="34.5164100">
<ele>75.870003</ele>
<time>2024-03-24T12:19:59.266Z</time>
</trkpt>
<trkpt lat="31.4412400" lon="34.5165200">
<ele>72.810005</ele>
<time>2024-03-24T12:19:59.266Z</time>
</trkpt>
<trkpt lat="31.4411200" lon="34.5168800">
<ele>64.099998</ele>
<time>2024-03-24T12:19:59.266Z</time>
</trkpt>
<trkpt lat="31.4410700" lon="34.5169600">
<ele>62.199997</ele>
<time>2024-03-24T12:19:59.266Z</time>
</trkpt>
<trkpt lat="31.4409600" lon="34.5170600">
<ele>57.179996</ele>
<time>2024-03-24T12:19:59.266Z</time>
</trkpt>
<trkpt lat="31.4405200" lon="34.5172300">
<ele>51.450001</ele>
<time>2024-03-24T12:19:59.266Z</time>
</trkpt>
<trkpt lat="31.4400600" lon="34.5173200">
<ele>63.080002</ele>
<time>2024-03-24T12:19:59.266Z</time>
</trkpt>
<trkpt lat="31.4398900" lon="34.5173800">
<ele>66.820000</ele>
<time>2024-03-24T12:19:59.266Z</time>
</trkpt>
<trkpt lat="31.4397900" lon="34.5174600">
<ele>67.169998</ele>
<time>2024-03-24T12:19:59.266Z</time>
</trkpt>
<trkpt lat="31.4395500" lon="34.5176800">
<ele>63.779999</ele>
<time>2024-03-24T12:19:59.266Z</time>
</trkpt>
<trkpt lat="31.4393300" lon="34.5178300">
<ele>67.340004</ele>
<time>2024-03-24T12:19:59.266Z</time>
</trkpt>
<trkpt lat="31.4393300" lon="34.5178200">
<ele>67.059998</ele>
<time>2024-03-24T12:19:59.266Z</time>
</trkpt>
<trkpt lat="31.4391900" lon="34.5179400">
<ele>73.059998</ele>
<time>2024-03-24T12:19:59.266Z</time>
</trkpt>
<trkpt lat="31.4390900" lon="34.5180700">
<ele>75.379997</ele>
<time>2024-03-24T12:19:59.266Z</time>
</trkpt>
<trkpt lat="31.4385600" lon="34.5183900">
<ele>74.959999</ele>
<time>2024-03-24T12:19:59.266Z</time>
</trkpt>
<trkpt lat="31.4385000" lon="34.5184300">
<ele>74.860001</ele>
<time>2024-03-24T12:19:59.266Z</time>
</trkpt>
<trkpt lat="31.4383900" lon="34.5184600">
<ele>74.639999</ele>
<time>2024-03-24T12:19:59.266Z</time>
</trkpt>
<trkpt lat="31.4383000" lon="34.5184600">
<ele>74.209999</ele>
<time>2024-03-24T12:19:59.266Z</time>
</trkpt>
<trkpt lat="31.4381300" lon="34.5184000">
<ele>73.330002</ele>
<time>2024-03-24T12:19:59.266Z</time>
</trkpt>
<trkpt lat="31.4380200" lon="34.5183400">
<ele>73.400002</ele>
<time>2024-03-24T12:19:59.266Z</time>
</trkpt>
<trkpt lat="31.4376400" lon="34.5181100">
<ele>76.400002</ele>
<time>2024-03-24T12:19:59.266Z</time>
</trkpt>
<trkpt lat="31.4374700" lon="34.5179900">
<ele>79.290001</ele>
<time>2024-03-24T12:19:59.266Z</time>
</trkpt>
<trkpt lat="31.4371200" lon="34.5176400">
<ele>78.110001</ele>
<time>2024-03-24T12:19:59.266Z</time>
</trkpt>
<trkpt lat="31.4364000" lon="34.5170300">
<ele>73.040001</ele>
<time>2024-03-24T12:19:59.266Z</time>
</trkpt>
<trkpt lat="31.4357100" lon="34.5163200">
<ele>73.769997</ele>
<time>2024-03-24T12:19:59.266Z</time>
</trkpt>
<trkpt lat="31.4353300" lon="34.5158000">
<ele>78.709999</ele>
<time>2024-03-24T12:19:59.266Z</time>
</trkpt>
<trkpt lat="31.4351500" lon="34.5155900">
<ele>77.480003</ele>
<time>2024-03-24T12:19:59.266Z</time>
</trkpt>
<trkpt lat="31.4350600" lon="34.5155000">
<ele>77.930000</ele>
<time>2024-03-24T12:19:59.266Z</time>
</trkpt>
<trkpt lat="31.4349900" lon="34.5154700">
<ele>78.160004</ele>
<time>2024-03-24T12:19:59.266Z</time>
</trkpt>
<trkpt lat="31.4348300" lon="34.5154600">
<ele>76.860001</ele>
<time>2024-03-24T12:19:59.266Z</time>
</trkpt>
<trkpt lat="31.4347500" lon="34.5154700">
<ele>76.430000</ele>
<time>2024-03-24T12:19:59.266Z</time>
</trkpt>
<trkpt lat="31.4343500" lon="34.5155900">
<ele>70.570000</ele>
<time>2024-03-24T12:19:59.266Z</time>
</trkpt>
<trkpt lat="31.4341400" lon="34.5156300">
<ele>65.360001</ele>
<time>2024-03-24T12:19:59.266Z</time>
</trkpt>
<trkpt lat="31.4340500" lon="34.5156300">
<ele>65.690002</ele>
<time>2024-03-24T12:19:59.266Z</time>
</trkpt>
<trkpt lat="31.4337400" lon="34.5156100">
<ele>66.629997</ele>
<time>2024-03-24T12:19:59.266Z</time>
</trkpt>
<trkpt lat="31.4330500" lon="34.5155200">
<ele>74.730003</ele>
<time>2024-03-24T12:19:59.266Z</time>
</trkpt>
<trkpt lat="31.4328400" lon="34.5155200">
<ele>78.099998</ele>
<time>2024-03-24T12:19:59.266Z</time>
</trkpt>
<trkpt lat="31.4327200" lon="34.5154800">
<ele>77.250000</ele>
<time>2024-03-24T12:19:59.266Z</time>
</trkpt>
<trkpt lat="31.4326100" lon="34.5154300">
<ele>73.930000</ele>
<time>2024-03-24T12:19:59.266Z</time>
</trkpt>
<trkpt lat="31.4324700" lon="34.5153400">
<ele>68.650002</ele>
<time>2024-03-24T12:19:59.266Z</time>
</trkpt>
<trkpt lat="31.4322500" lon="34.5151300">
<ele>67.680000</ele>
<time>2024-03-24T12:19:59.266Z</time>
</trkpt>
<trkpt lat="31.4321300" lon="34.5150700">
<ele>68.000000</ele>
<time>2024-03-24T12:19:59.266Z</time>
</trkpt>
<trkpt lat="31.4316300" lon="34.5148900">
<ele>73.650002</ele>
<time>2024-03-24T12:19:59.266Z</time>
</trkpt>
<trkpt lat="31.4314100" lon="34.5147800">
<ele>76.199997</ele>
<time>2024-03-24T12:19:59.266Z</time>
</trkpt>
<trkpt lat="31.4312800" lon="34.5146800">
<ele>75.989998</ele>
<time>2024-03-24T12:19:59.266Z</time>
</trkpt>
<trkpt lat="31.4310600" lon="34.5144500">
<ele>74.250000</ele>
<time>2024-03-24T12:19:59.266Z</time>
</trkpt>
<trkpt lat="31.4309600" lon="34.5143900">
<ele>74.860001</ele>
<time>2024-03-24T12:19:59.266Z</time>
</trkpt>
<trkpt lat="31.4292300" lon="34.5136200">
<ele>68.269997</ele>
<time>2024-03-24T12:19:59.266Z</time>
</trkpt>
<trkpt lat="31.4289800" lon="34.5134200">
<ele>72.269997</ele>
<time>2024-03-24T12:19:59.266Z</time>
</trkpt>
<trkpt lat="31.4288200" lon="34.5133100">
<ele>73.379997</ele>
<time>2024-03-24T12:19:59.266Z</time>
</trkpt>
<trkpt lat="31.4285700" lon="34.5131800">
<ele>71.770004</ele>
<time>2024-03-24T12:19:59.266Z</time>
</trkpt>
<trkpt lat="31.4285000" lon="34.5131200">
<ele>71.290001</ele>
<time>2024-03-24T12:19:59.266Z</time>
</trkpt>
<trkpt lat="31.4279300" lon="34.5123800">
<ele>65.270004</ele>
<time>2024-03-24T12:19:59.266Z</time>
</trkpt>
<trkpt lat="31.4278700" lon="34.5122800">
<ele>66.519997</ele>
<time>2024-03-24T12:19:59.266Z</time>
</trkpt>
<trkpt lat="31.4277800" lon="34.5121000">
<ele>68.410004</ele>
<time>2024-03-24T12:19:59.266Z</time>
</trkpt>
<trkpt lat="31.4275600" lon="34.5113400">
<ele>65.000000</ele>
<time>2024-03-24T12:19:59.266Z</time>
</trkpt>
<trkpt lat="31.4274700" lon="34.5111400">
<ele>64.180000</ele>
<time>2024-03-24T12:19:59.266Z</time>
</trkpt>
<trkpt lat="31.4273600" lon="34.5109800">
<ele>64.980003</ele>
<time>2024-03-24T12:19:59.266Z</time>
</trkpt>
<trkpt lat="31.4272800" lon="34.5109000">
<ele>65.549995</ele>
<time>2024-03-24T12:19:59.266Z</time>
</trkpt>
<trkpt lat="31.4272200" lon="34.5108800">
<ele>65.790001</ele>
<time>2024-03-24T12:19:59.266Z</time>
</trkpt>
<trkpt lat="31.4271300" lon="34.5108700">
<ele>64.250000</ele>
<time>2024-03-24T12:19:59.266Z</time>
</trkpt>
<trkpt lat="31.4265400" lon="34.5108600">
<ele>61.299999</ele>
<time>2024-03-24T12:19:59.266Z</time>
</trkpt>
<trkpt lat="31.4264300" lon="34.5108600">
<ele>59.040001</ele>
<time>2024-03-24T12:19:59.266Z</time>
</trkpt>
<trkpt lat="31.4261300" lon="34.5107800">
<ele>57.450001</ele>
<time>2024-03-24T12:19:59.266Z</time>
</trkpt>
<trkpt lat="31.4258500" lon="34.5106200">
<ele>67.790001</ele>
<time>2024-03-24T12:19:59.266Z</time>
</trkpt>
<trkpt lat="31.4257500" lon="34.5105300">
<ele>68.510002</ele>
<time>2024-03-24T12:19:59.266Z</time>
</trkpt>
<trkpt lat="31.4257000" lon="34.5104200">
<ele>66.830002</ele>
<time>2024-03-24T12:19:59.266Z</time>
</trkpt>
<trkpt lat="31.4256600" lon="34.5102400">
<ele>65.730003</ele>
<time>2024-03-24T12:19:59.266Z</time>
</trkpt>
<trkpt lat="31.4256000" lon="34.5101000">
<ele>66.980003</ele>
<time>2024-03-24T12:19:59.266Z</time>
</trkpt>
<trkpt lat="31.4255300" lon="34.5100500">
<ele>67.000000</ele>
<time>2024-03-24T12:19:59.266Z</time>
</trkpt>
<trkpt lat="31.4254600" lon="34.5100400">
<ele>65.849998</ele>
<time>2024-03-24T12:19:59.266Z</time>
</trkpt>
<trkpt lat="31.4252200" lon="34.5100500">
<ele>62.330002</ele>
<time>2024-03-24T12:19:59.266Z</time>
</trkpt>
<trkpt lat="31.4251000" lon="34.5100900">
<ele>61.799999</ele>
<time>2024-03-24T12:19:59.266Z</time>
</trkpt>
<trkpt lat="31.4247600" lon="34.5102800">
<ele>62.720001</ele>
<time>2024-03-24T12:19:59.266Z</time>
</trkpt>
<trkpt lat="31.4247000" lon="34.5103400">
<ele>62.739998</ele>
<time>2024-03-24T12:19:59.266Z</time>
</trkpt>
<trkpt lat="31.4245000" lon="34.5105900">
<ele>60.570000</ele>
<time>2024-03-24T12:19:59.266Z</time>
</trkpt>
<trkpt lat="31.4244300" lon="34.5106400">
<ele>60.270000</ele>
<time>2024-03-24T12:19:59.266Z</time>
</trkpt>
<trkpt lat="31.4242700" lon="34.5106900">
<ele>59.880001</ele>
<time>2024-03-24T12:19:59.266Z</time>
</trkpt>
<trkpt lat="31.4238200" lon="34.5107300">
<ele>60.889999</ele>
<time>2024-03-24T12:19:59.266Z</time>
</trkpt>
<trkpt lat="31.4233000" lon="34.5106600">
<ele>69.480003</ele>
<time>2024-03-24T12:19:59.266Z</time>
</trkpt>
<trkpt lat="31.4231500" lon="34.5106800">
<ele>70.269997</ele>
<time>2024-03-24T12:19:59.266Z</time>
</trkpt>
<trkpt lat="31.4228600" lon="34.5107700">
<ele>65.309998</ele>
<time>2024-03-24T12:19:59.266Z</time>
</trkpt>
<trkpt lat="31.4225900" lon="34.5108100">
<ele>60.680000</ele>
<time>2024-03-24T12:19:59.266Z</time>
</trkpt>
<trkpt lat="31.4222700" lon="34.5109000">
<ele>62.330002</ele>
<time>2024-03-24T12:19:59.266Z</time>
</trkpt>
<trkpt lat="31.4220500" lon="34.5109100">
<ele>62.720001</ele>
<time>2024-03-24T12:19:59.266Z</time>
</trkpt>
<trkpt lat="31.4218700" lon="34.5109100">
<ele>61.650002</ele>
<time>2024-03-24T12:19:59.266Z</time>
</trkpt>
<trkpt lat="31.4216200" lon="34.5108700">
<ele>58.989998</ele>
<time>2024-03-24T12:19:59.266Z</time>
</trkpt>
<trkpt lat="31.4215600" lon="34.5108600">
<ele>59.209999</ele>
<time>2024-03-24T12:19:59.266Z</time>
</trkpt>
<trkpt lat="31.4215600" lon="34.5108600">
<ele>59.209999</ele>
<time>2024-03-24T12:19:59.266Z</time>
</trkpt>
<trkpt lat="31.4214700" lon="34.5108600">
<ele>59.480003</ele>
<time>2024-03-24T12:19:59.266Z</time>
</trkpt>
<trkpt lat="31.4210000" lon="34.5109100">
<ele>57.099998</ele>
<time>2024-03-24T12:19:59.266Z</time>
</trkpt>
<trkpt lat="31.4208600" lon="34.5108800">
<ele>48.180000</ele>
<time>2024-03-24T12:19:59.266Z</time>
</trkpt>
<trkpt lat="31.4206500" lon="34.5108200">
<ele>42.500000</ele>
<time>2024-03-24T12:19:59.266Z</time>
</trkpt>
<trkpt lat="31.4204900" lon="34.5108200">
<ele>42.800003</ele>
<time>2024-03-24T12:19:59.266Z</time>
</trkpt>
<trkpt lat="31.4201800" lon="34.5109100">
<ele>51.420002</ele>
<time>2024-03-24T12:19:59.266Z</time>
</trkpt>
<trkpt lat="31.4199800" lon="34.5109500">
<ele>58.590000</ele>
<time>2024-03-24T12:19:59.266Z</time>
</trkpt>
<trkpt lat="31.4197900" lon="34.5109200">
<ele>61.480000</ele>
<time>2024-03-24T12:19:59.266Z</time>
</trkpt>
<trkpt lat="31.4196800" lon="34.5108900">
<ele>62.739998</ele>
<time>2024-03-24T12:19:59.266Z</time>
</trkpt>
<trkpt lat="31.4195500" lon="34.5108100">
<ele>63.520000</ele>
<time>2024-03-24T12:19:59.266Z</time>
</trkpt>
<trkpt lat="31.4190500" lon="34.5103400">
<ele>63.410000</ele>
<time>2024-03-24T12:19:59.266Z</time>
</trkpt>
<trkpt lat="31.4189000" lon="34.5100600">
<ele>60.839996</ele>
<time>2024-03-24T12:19:59.266Z</time>
</trkpt>
<trkpt lat="31.4185800" lon="34.5095200">
<ele>54.340000</ele>
<time>2024-03-24T12:19:59.266Z</time>
</trkpt>
<trkpt lat="31.4184500" lon="34.5093700">
<ele>55.389999</ele>
<time>2024-03-24T12:19:59.266Z</time>
</trkpt>
<trkpt lat="31.4183600" lon="34.5092900">
<ele>55.910000</ele>
<time>2024-03-24T12:19:59.266Z</time>
</trkpt>
<trkpt lat="31.4182700" lon="34.5092500">
<ele>56.360001</ele>
<time>2024-03-24T12:19:59.266Z</time>
</trkpt>
<trkpt lat="31.4176900" lon="34.5090500">
<ele>52.020000</ele>
<time>2024-03-24T12:19:59.266Z</time>
</trkpt>
<trkpt lat="31.4175700" lon="34.5090300">
<ele>49.160000</ele>
<time>2024-03-24T12:19:59.266Z</time>
</trkpt>
<trkpt lat="31.4174600" lon="34.5090800">
<ele>48.020000</ele>
<time>2024-03-24T12:19:59.266Z</time>
</trkpt>
<trkpt lat="31.4170700" lon="34.5093400">
<ele>51.439999</ele>
<time>2024-03-24T12:19:59.266Z</time>
</trkpt>
<trkpt lat="31.4169200" lon="34.5092000">
<ele>49.109997</ele>
<time>2024-03-24T12:19:59.266Z</time>
</trkpt>
<trkpt lat="31.4168300" lon="34.5091700">
<ele>47.799999</ele>
<time>2024-03-24T12:19:59.266Z</time>
</trkpt>
<trkpt lat="31.4167200" lon="34.5091800">
<ele>46.760002</ele>
<time>2024-03-24T12:19:59.266Z</time>
</trkpt>
<trkpt lat="31.4162300" lon="34.5093000">
<ele>45.780003</ele>
<time>2024-03-24T12:19:59.266Z</time>
</trkpt>
<trkpt lat="31.4161100" lon="34.5092800">
<ele>46.010002</ele>
<time>2024-03-24T12:19:59.266Z</time>
</trkpt>
<trkpt lat="31.4159500" lon="34.5092100">
<ele>48.139999</ele>
<time>2024-03-24T12:19:59.266Z</time>
</trkpt>
<trkpt lat="31.4157500" lon="34.5090900">
<ele>50.490002</ele>
<time>2024-03-24T12:19:59.266Z</time>
</trkpt>
<trkpt lat="31.4156800" lon="34.5089900">
<ele>50.840000</ele>
<time>2024-03-24T12:19:59.266Z</time>
</trkpt>
<trkpt lat="31.4156100" lon="34.5088600">
<ele>51.020000</ele>
<time>2024-03-24T12:19:59.266Z</time>
</trkpt>
<trkpt lat="31.4155900" lon="34.5087700">
<ele>51.049999</ele>
<time>2024-03-24T12:19:59.266Z</time>
</trkpt>
<trkpt lat="31.4155900" lon="34.5086800">
<ele>51.089996</ele>
<time>2024-03-24T12:19:59.266Z</time>
</trkpt>
<trkpt lat="31.4156200" lon="34.5085600">
<ele>51.469997</ele>
<time>2024-03-24T12:19:59.266Z</time>
</trkpt>
<trkpt lat="31.4156900" lon="34.5084100">
<ele>51.880001</ele>
<time>2024-03-24T12:19:59.266Z</time>
</trkpt>
<trkpt lat="31.4157600" lon="34.5082900">
<ele>51.450001</ele>
<time>2024-03-24T12:19:59.266Z</time>
</trkpt>
<trkpt lat="31.4158600" lon="34.5080800">
<ele>49.900002</ele>
<time>2024-03-24T12:19:59.266Z</time>
</trkpt>
<trkpt lat="31.4159900" lon="34.5079000">
<ele>50.590000</ele>
<time>2024-03-24T12:19:59.266Z</time>
</trkpt>
<trkpt lat="31.4160700" lon="34.5077200">
<ele>53.490002</ele>
<time>2024-03-24T12:19:59.266Z</time>
</trkpt>
<trkpt lat="31.4161200" lon="34.5076500">
<ele>53.930000</ele>
<time>2024-03-24T12:19:59.266Z</time>
</trkpt>
<trkpt lat="31.4162500" lon="34.5076100">
<ele>51.590000</ele>
<time>2024-03-24T12:19:59.266Z</time>
</trkpt>
<trkpt lat="31.4164100" lon="34.5076000">
<ele>49.779999</ele>
<time>2024-03-24T12:19:59.266Z</time>
</trkpt>
<trkpt lat="31.4164700" lon="34.5075700">
<ele>51.070000</ele>
<time>2024-03-24T12:19:59.266Z</time>
</trkpt>
<trkpt lat="31.4165300" lon="34.5075000">
<ele>53.059998</ele>
<time>2024-03-24T12:19:59.266Z</time>
</trkpt>
<trkpt lat="31.4165400" lon="34.5074200">
<ele>54.920002</ele>
<time>2024-03-24T12:19:59.266Z</time>
</trkpt>
<trkpt lat="31.4165300" lon="34.5072800">
<ele>57.410000</ele>
<time>2024-03-24T12:19:59.266Z</time>
</trkpt>
<trkpt lat="31.4165300" lon="34.5072800">
<ele>57.410000</ele>
<time>2024-03-24T12:19:59.266Z</time>
</trkpt>
<trkpt lat="31.4165300" lon="34.5072800">
<ele>57.410000</ele>
<time>2024-03-24T12:19:59.266Z</time>
</trkpt>
<trkpt lat="31.4165700" lon="34.5070500">
<ele>61.449997</ele>
<time>2024-03-24T12:19:59.266Z</time>
</trkpt>
<trkpt lat="31.4166300" lon="34.5069500">
<ele>63.419998</ele>
<time>2024-03-24T12:19:59.266Z</time>
</trkpt>
<trkpt lat="31.4167600" lon="34.5068400">
<ele>63.359997</ele>
<time>2024-03-24T12:19:59.266Z</time>
</trkpt>
<trkpt lat="31.4168000" lon="34.5068200">
<ele>62.889999</ele>
<time>2024-03-24T12:19:59.266Z</time>
</trkpt>
<trkpt lat="31.4169200" lon="34.5068100">
<ele>60.860001</ele>
<time>2024-03-24T12:19:59.266Z</time>
</trkpt>
<trkpt lat="31.4170700" lon="34.5069300">
<ele>56.900002</ele>
<time>2024-03-24T12:19:59.266Z</time>
</trkpt>
<trkpt lat="31.4171900" lon="34.5069600">
<ele>55.140003</ele>
<time>2024-03-24T12:19:59.266Z</time>
</trkpt>
<trkpt lat="31.4172500" lon="34.5069400">
<ele>55.169998</ele>
<time>2024-03-24T12:19:59.266Z</time>
</trkpt>
<trkpt lat="31.4172800" lon="34.5067700">
<ele>57.430000</ele>
<time>2024-03-24T12:19:59.266Z</time>
</trkpt>
<trkpt lat="31.4173000" lon="34.5067100">
<ele>57.849998</ele>
<time>2024-03-24T12:19:59.266Z</time>
</trkpt>
<trkpt lat="31.4172600" lon="34.5065500">
<ele>59.970001</ele>
<time>2024-03-24T12:19:59.266Z</time>
</trkpt>
<trkpt lat="31.4172600" lon="34.5064500">
<ele>60.639999</ele>
<time>2024-03-24T12:19:59.266Z</time>
</trkpt>
<trkpt lat="31.4173200" lon="34.5061900">
<ele>56.960003</ele>
<time>2024-03-24T12:19:59.266Z</time>
</trkpt>
<trkpt lat="31.4173000" lon="34.5058900">
<ele>55.939999</ele>
<time>2024-03-24T12:19:59.266Z</time>
</trkpt>
<trkpt lat="31.4172700" lon="34.5057700">
<ele>56.689999</ele>
<time>2024-03-24T12:19:59.266Z</time>
</trkpt>
<trkpt lat="31.4172700" lon="34.5057700">
<ele>56.689999</ele>
<time>2024-03-24T12:19:59.266Z</time>
</trkpt>
<trkpt lat="31.4172700" lon="34.5057500">
<ele>56.810001</ele>
<time>2024-03-24T12:19:59.266Z</time>
</trkpt>
<trkpt lat="31.4172300" lon="34.5056400">
<ele>58.239998</ele>
<time>2024-03-24T12:19:59.266Z</time>
</trkpt>
<trkpt lat="31.4171500" lon="34.5055400">
<ele>60.930000</ele>
<time>2024-03-24T12:19:59.266Z</time>
</trkpt>
<trkpt lat="31.4169900" lon="34.5054300">
<ele>65.760002</ele>
<time>2024-03-24T12:19:59.266Z</time>
</trkpt>
<trkpt lat="31.4168400" lon="34.5053800">
<ele>66.690002</ele>
<time>2024-03-24T12:19:59.266Z</time>
</trkpt>
<trkpt lat="31.4167700" lon="34.5053800">
<ele>66.300003</ele>
<time>2024-03-24T12:19:59.266Z</time>
</trkpt>
<trkpt lat="31.4165300" lon="34.5054700">
<ele>66.540001</ele>
<time>2024-03-24T12:19:59.266Z</time>
</trkpt>
<trkpt lat="31.4163200" lon="34.5055200">
<ele>67.120003</ele>
<time>2024-03-24T12:19:59.266Z</time>
</trkpt>
<trkpt lat="31.4161000" lon="34.5054700">
<ele>67.410004</ele>
<time>2024-03-24T12:19:59.266Z</time>
</trkpt>
<trkpt lat="31.4159400" lon="34.5054300">
<ele>63.459999</ele>
<time>2024-03-24T12:19:59.266Z</time>
</trkpt>
<trkpt lat="31.4158900" lon="34.5054400">
<ele>62.209999</ele>
<time>2024-03-24T12:19:59.266Z</time>
</trkpt>
<trkpt lat="31.4158200" lon="34.5054900">
<ele>60.860001</ele>
<time>2024-03-24T12:19:59.266Z</time>
</trkpt>
<trkpt lat="31.4157700" lon="34.5055600">
<ele>62.129997</ele>
<time>2024-03-24T12:19:59.266Z</time>
</trkpt>
<trkpt lat="31.4157600" lon="34.5055800">
<ele>62.739998</ele>
<time>2024-03-24T12:19:59.266Z</time>
</trkpt>
<trkpt lat="31.4157600" lon="34.5055800">
<ele>62.739998</ele>
<time>2024-03-24T12:19:59.266Z</time>
</trkpt>
<trkpt lat="31.4157600" lon="34.5055800">
<ele>62.739998</ele>
<time>2024-03-24T12:19:59.266Z</time>
</trkpt>
<trkpt lat="31.4156300" lon="34.5058900">
<ele>60.290001</ele>
<time>2024-03-24T12:19:59.266Z</time>
</trkpt>
<trkpt lat="31.4156100" lon="34.5060300">
<ele>59.439999</ele>
<time>2024-03-24T12:19:59.266Z</time>
</trkpt>
<trkpt lat="31.4155800" lon="34.5060800">
<ele>59.060001</ele>
<time>2024-03-24T12:19:59.266Z</time>
</trkpt>
<trkpt lat="31.4155200" lon="34.5060800">
<ele>58.709999</ele>
<time>2024-03-24T12:19:59.266Z</time>
</trkpt>
<trkpt lat="31.4154400" lon="34.5059900">
<ele>58.439999</ele>
<time>2024-03-24T12:19:59.266Z</time>
</trkpt>
<trkpt lat="31.4153800" lon="34.5059600">
<ele>58.660000</ele>
<time>2024-03-24T12:19:59.266Z</time>
</trkpt>
<trkpt lat="31.4153300" lon="34.5059700">
<ele>58.820000</ele>
<time>2024-03-24T12:19:59.266Z</time>
</trkpt>
<trkpt lat="31.4152700" lon="34.5060000">
<ele>58.829998</ele>
<time>2024-03-24T12:19:59.266Z</time>
</trkpt>
<trkpt lat="31.4150700" lon="34.5062100">
<ele>59.500000</ele>
<time>2024-03-24T12:19:59.266Z</time>
</trkpt>
<trkpt lat="31.4148600" lon="34.5062800">
<ele>56.980000</ele>
<time>2024-03-24T12:19:59.266Z</time>
</trkpt>
<trkpt lat="31.4148000" lon="34.5063300">
<ele>55.680000</ele>
<time>2024-03-24T12:19:59.266Z</time>
</trkpt>
<trkpt lat="31.4147500" lon="34.5063900">
<ele>54.610001</ele>
<time>2024-03-24T12:19:59.266Z</time>
</trkpt>
<trkpt lat="31.4146800" lon="34.5066000">
<ele>54.600002</ele>
<time>2024-03-24T12:19:59.266Z</time>
</trkpt>
<trkpt lat="31.4144300" lon="34.5069000">
<ele>51.369999</ele>
<time>2024-03-24T12:19:59.266Z</time>
</trkpt>
<trkpt lat="31.4141900" lon="34.5072200">
<ele>52.299999</ele>
<time>2024-03-24T12:19:59.266Z</time>
</trkpt>
<trkpt lat="31.4141700" lon="34.5073100">
<ele>53.950001</ele>
<time>2024-03-24T12:19:59.266Z</time>
</trkpt>
<trkpt lat="31.4141600" lon="34.5074000">
<ele>55.799999</ele>
<time>2024-03-24T12:19:59.266Z</time>
</trkpt>
<trkpt lat="31.4141100" lon="34.5075100">
<ele>57.420002</ele>
<time>2024-03-24T12:19:59.266Z</time>
</trkpt>
<trkpt lat="31.4140600" lon="34.5075400">
<ele>57.070000</ele>
<time>2024-03-24T12:19:59.266Z</time>
</trkpt>
<trkpt lat="31.4137000" lon="34.5075700">
<ele>57.190002</ele>
<time>2024-03-24T12:19:59.266Z</time>
</trkpt>
<trkpt lat="31.4134700" lon="34.5076300">
<ele>55.770000</ele>
<time>2024-03-24T12:19:59.266Z</time>
</trkpt>
<trkpt lat="31.4133500" lon="34.5076200">
<ele>54.340000</ele>
<time>2024-03-24T12:19:59.266Z</time>
</trkpt>
<trkpt lat="31.4132900" lon="34.5075900">
<ele>54.460003</ele>
<time>2024-03-24T12:19:59.266Z</time>
</trkpt>
<trkpt lat="31.4132200" lon="34.5075200">
<ele>55.230000</ele>
<time>2024-03-24T12:19:59.266Z</time>
</trkpt>
<trkpt lat="31.4131400" lon="34.5073700">
<ele>56.630001</ele>
<time>2024-03-24T12:19:59.266Z</time>
</trkpt>
<trkpt lat="31.4130900" lon="34.5073000">
<ele>57.320000</ele>
<time>2024-03-24T12:19:59.266Z</time>
</trkpt>
<trkpt lat="31.4125100" lon="34.5069300">
<ele>49.459999</ele>
<time>2024-03-24T12:19:59.266Z</time>
</trkpt>
<trkpt lat="31.4124300" lon="34.5068100">
<ele>53.330002</ele>
<time>2024-03-24T12:19:59.266Z</time>
</trkpt>
<trkpt lat="31.4123200" lon="34.5067000">
<ele>57.029999</ele>
<time>2024-03-24T12:19:59.266Z</time>
</trkpt>
<trkpt lat="31.4123200" lon="34.5067000">
<ele>57.029999</ele>
<time>2024-03-24T12:19:59.266Z</time>
</trkpt>
<trkpt lat="31.4122300" lon="34.5066100">
<ele>59.270000</ele>
<time>2024-03-24T12:19:59.266Z</time>
</trkpt>
<trkpt lat="31.4121400" lon="34.5065900">
<ele>59.309998</ele>
<time>2024-03-24T12:19:59.266Z</time>
</trkpt>
<trkpt lat="31.4120400" lon="34.5066000">
<ele>59.009998</ele>
<time>2024-03-24T12:19:59.266Z</time>
</trkpt>
<trkpt lat="31.4119100" lon="34.5065900">
<ele>58.230000</ele>
<time>2024-03-24T12:19:59.266Z</time>
</trkpt>
<trkpt lat="31.4117900" lon="34.5065500">
<ele>57.259998</ele>
<time>2024-03-24T12:19:59.266Z</time>
</trkpt>
<trkpt lat="31.4117300" lon="34.5065000">
<ele>58.090000</ele>
<time>2024-03-24T12:19:59.266Z</time>
</trkpt>
<trkpt lat="31.4116400" lon="34.5063900">
<ele>61.679996</ele>
<time>2024-03-24T12:19:59.266Z</time>
</trkpt>
<trkpt lat="31.4116000" lon="34.5061900">
<ele>55.579998</ele>
<time>2024-03-24T12:19:59.266Z</time>
</trkpt>
<trkpt lat="31.4115400" lon="34.5061100">
<ele>51.829998</ele>
<time>2024-03-24T12:19:59.266Z</time>
</trkpt>
<trkpt lat="31.4113200" lon="34.5059400">
<ele>52.430000</ele>
<time>2024-03-24T12:19:59.266Z</time>
</trkpt>
<trkpt lat="31.4112900" lon="34.5058400">
<ele>53.840000</ele>
<time>2024-03-24T12:19:59.266Z</time>
</trkpt>
<trkpt lat="31.4113300" lon="34.5057200">
<ele>53.230003</ele>
<time>2024-03-24T12:19:59.266Z</time>
</trkpt>
<trkpt lat="31.4113300" lon="34.5056300">
<ele>52.320004</ele>
<time>2024-03-24T12:19:59.266Z</time>
</trkpt>
<trkpt lat="31.4112900" lon="34.5055900">
<ele>51.619999</ele>
<time>2024-03-24T12:19:59.266Z</time>
</trkpt>
<trkpt lat="31.4112000" lon="34.5055600">
<ele>50.680000</ele>
<time>2024-03-24T12:19:59.266Z</time>
</trkpt>
<trkpt lat="31.4111300" lon="34.5055000">
<ele>50.299999</ele>
<time>2024-03-24T12:19:59.266Z</time>
</trkpt>
<trkpt lat="31.4111000" lon="34.5054600">
<ele>50.399998</ele>
<time>2024-03-24T12:19:59.266Z</time>
</trkpt>
<trkpt lat="31.4110600" lon="34.5052700">
<ele>51.469997</ele>
<time>2024-03-24T12:19:59.266Z</time>
</trkpt>
<trkpt lat="31.4110300" lon="34.5052000">
<ele>52.620003</ele>
<time>2024-03-24T12:19:59.266Z</time>
</trkpt>
<trkpt lat="31.4108800" lon="34.5050500">
<ele>55.259998</ele>
<time>2024-03-24T12:19:59.266Z</time>
</trkpt>
<trkpt lat="31.4107600" lon="34.5048800">
<ele>55.739998</ele>
<time>2024-03-24T12:19:59.266Z</time>
</trkpt>
<trkpt lat="31.4106400" lon="34.5047800">
<ele>55.300003</ele>
<time>2024-03-24T12:19:59.266Z</time>
</trkpt>
<trkpt lat="31.4106200" lon="34.5047300">
<ele>55.230000</ele>
<time>2024-03-24T12:19:59.266Z</time>
</trkpt>
<trkpt lat="31.4105700" lon="34.5042300">
<ele>52.250000</ele>
<time>2024-03-24T12:19:59.266Z</time>
</trkpt>
<trkpt lat="31.4104200" lon="34.5039700">
<ele>48.689999</ele>
<time>2024-03-24T12:19:59.266Z</time>
</trkpt>
<trkpt lat="31.4104300" lon="34.5037400">
<ele>47.230000</ele>
<time>2024-03-24T12:19:59.266Z</time>
</trkpt>
<trkpt lat="31.4104200" lon="34.5035900">
<ele>45.959999</ele>
<time>2024-03-24T12:19:59.266Z</time>
</trkpt>
<trkpt lat="31.4102300" lon="34.5036300">
<ele>46.530003</ele>
<time>2024-03-24T12:19:59.266Z</time>
</trkpt>
<trkpt lat="31.4101500" lon="34.5036400">
<ele>47.240002</ele>
<time>2024-03-24T12:19:59.266Z</time>
</trkpt>
<trkpt lat="31.4099800" lon="34.5036600">
<ele>47.990002</ele>
<time>2024-03-24T12:19:59.266Z</time>
</trkpt>
<trkpt lat="31.4099800" lon="34.5036600">
<ele>47.990002</ele>
<time>2024-03-24T12:19:59.266Z</time>
</trkpt>
<trkpt lat="31.4098600" lon="34.5035400">
<ele>46.990002</ele>
<time>2024-03-24T12:19:59.266Z</time>
</trkpt>
<trkpt lat="31.4097700" lon="34.5034300">
<ele>45.739998</ele>
<time>2024-03-24T12:19:59.266Z</time>
</trkpt>
<trkpt lat="31.4095700" lon="34.5030800">
<ele>39.939999</ele>
<time>2024-03-24T12:19:59.266Z</time>
</trkpt>
<trkpt lat="31.4094400" lon="34.5030100">
<ele>37.389999</ele>
<time>2024-03-24T12:19:59.266Z</time>
</trkpt>
<trkpt lat="31.4092000" lon="34.5031600">
<ele>40.660004</ele>
<time>2024-03-24T12:19:59.266Z</time>
</trkpt>
<trkpt lat="31.4091500" lon="34.5033600">
<ele>41.520000</ele>
<time>2024-03-24T12:19:59.266Z</time>
</trkpt>
<trkpt lat="31.4089200" lon="34.5035600">
<ele>45.549999</ele>
<time>2024-03-24T12:19:59.266Z</time>
</trkpt>
<trkpt lat="31.4086800" lon="34.5038000">
<ele>49.619999</ele>
<time>2024-03-24T12:19:59.266Z</time>
</trkpt>
<trkpt lat="31.4085000" lon="34.5040800">
<ele>50.410004</ele>
<time>2024-03-24T12:19:59.266Z</time>
</trkpt>
<trkpt lat="31.4085200" lon="34.5042500">
<ele>52.330002</ele>
<time>2024-03-24T12:19:59.266Z</time>
</trkpt>
<trkpt lat="31.4085300" lon="34.5044300">
<ele>53.080002</ele>
<time>2024-03-24T12:19:59.266Z</time>
</trkpt>
<trkpt lat="31.4084900" lon="34.5045800">
<ele>53.390003</ele>
<time>2024-03-24T12:19:59.266Z</time>
</trkpt>
<trkpt lat="31.4084400" lon="34.5046700">
<ele>53.460003</ele>
<time>2024-03-24T12:19:59.266Z</time>
</trkpt>
<trkpt lat="31.4084400" lon="34.5048400">
<ele>51.970001</ele>
<time>2024-03-24T12:19:59.266Z</time>
</trkpt>
<trkpt lat="31.4082700" lon="34.5051600">
<ele>48.259998</ele>
<time>2024-03-24T12:19:59.266Z</time>
</trkpt>
<trkpt lat="31.4082100" lon="34.5052400">
<ele>48.770000</ele>
<time>2024-03-24T12:19:59.266Z</time>
</trkpt>
<trkpt lat="31.4080700" lon="34.5053200">
<ele>49.759998</ele>
<time>2024-03-24T12:19:59.266Z</time>
</trkpt>
<trkpt lat="31.4078600" lon="34.5055900">
<ele>47.230000</ele>
<time>2024-03-24T12:19:59.266Z</time>
</trkpt>
<trkpt lat="31.4077500" lon="34.5057400">
<ele>45.400002</ele>
<time>2024-03-24T12:19:59.266Z</time>
</trkpt>
<trkpt lat="31.4076700" lon="34.5057500">
<ele>44.590000</ele>
<time>2024-03-24T12:19:59.266Z</time>
</trkpt>
<trkpt lat="31.4075200" lon="34.5057400">
<ele>43.190002</ele>
<time>2024-03-24T12:19:59.266Z</time>
</trkpt>
<trkpt lat="31.4074500" lon="34.5057400">
<ele>43.119999</ele>
<time>2024-03-24T12:19:59.266Z</time>
</trkpt>
<trkpt lat="31.4074000" lon="34.5057400">
<ele>43.239998</ele>
<time>2024-03-24T12:19:59.266Z</time>
</trkpt>
<trkpt lat="31.4072400" lon="34.5058000">
<ele>43.820000</ele>
<time>2024-03-24T12:19:59.266Z</time>
</trkpt>
<trkpt lat="31.4070800" lon="34.5059400">
<ele>42.469997</ele>
<time>2024-03-24T12:19:59.266Z</time>
</trkpt>
<trkpt lat="31.4069400" lon="34.5061400">
<ele>42.309998</ele>
<time>2024-03-24T12:19:59.266Z</time>
</trkpt>
<trkpt lat="31.4068700" lon="34.5062800">
<ele>43.340000</ele>
<time>2024-03-24T12:19:59.266Z</time>
</trkpt>
<trkpt lat="31.4066600" lon="34.5066700">
<ele>43.049999</ele>
<time>2024-03-24T12:19:59.266Z</time>
</trkpt>
<trkpt lat="31.4064900" lon="34.5069600">
<ele>44.730000</ele>
<time>2024-03-24T12:19:59.266Z</time>
</trkpt>
<trkpt lat="31.4064000" lon="34.5072300">
<ele>46.230000</ele>
<time>2024-03-24T12:19:59.266Z</time>
</trkpt>
<trkpt lat="31.4064400" lon="34.5074100">
<ele>47.600002</ele>
<time>2024-03-24T12:19:59.266Z</time>
</trkpt>
<trkpt lat="31.4064800" lon="34.5075400">
<ele>48.549999</ele>
<time>2024-03-24T12:19:59.266Z</time>
</trkpt>
<trkpt lat="31.4064800" lon="34.5078000">
<ele>48.290001</ele>
<time>2024-03-24T12:19:59.266Z</time>
</trkpt>
<trkpt lat="31.4064000" lon="34.5079100">
<ele>49.880001</ele>
<time>2024-03-24T12:19:59.266Z</time>
</trkpt>
<trkpt lat="31.4062900" lon="34.5079800">
<ele>49.160000</ele>
<time>2024-03-24T12:19:59.266Z</time>
</trkpt>
<trkpt lat="31.4061300" lon="34.5080200">
<ele>46.370003</ele>
<time>2024-03-24T12:19:59.266Z</time>
</trkpt>
<trkpt lat="31.4060400" lon="34.5080600">
<ele>45.739998</ele>
<time>2024-03-24T12:19:59.266Z</time>
</trkpt>
<trkpt lat="31.4059500" lon="34.5081900">
<ele>44.860001</ele>
<time>2024-03-24T12:19:59.266Z</time>
</trkpt>
<trkpt lat="31.4059100" lon="34.5083600">
<ele>44.020000</ele>
<time>2024-03-24T12:19:59.266Z</time>
</trkpt>
<trkpt lat="31.4058600" lon="34.5084800">
<ele>44.340000</ele>
<time>2024-03-24T12:19:59.266Z</time>
</trkpt>
<trkpt lat="31.4058000" lon="34.5085400">
<ele>43.950001</ele>
<time>2024-03-24T12:19:59.266Z</time>
</trkpt>
<trkpt lat="31.4056700" lon="34.5085800">
<ele>41.639999</ele>
<time>2024-03-24T12:19:59.266Z</time>
</trkpt>
<trkpt lat="31.4055800" lon="34.5086200">
<ele>39.590004</ele>
<time>2024-03-24T12:19:59.266Z</time>
</trkpt>
<trkpt lat="31.4054700" lon="34.5087300">
<ele>40.250000</ele>
<time>2024-03-24T12:19:59.266Z</time>
</trkpt>
<trkpt lat="31.4053800" lon="34.5088700">
<ele>40.399998</ele>
<time>2024-03-24T12:19:59.266Z</time>
</trkpt>
<trkpt lat="31.4053000" lon="34.5089200">
<ele>40.210003</ele>
<time>2024-03-24T12:19:59.266Z</time>
</trkpt>
<trkpt lat="31.4052400" lon="34.5089600">
<ele>40.259998</ele>
<time>2024-03-24T12:19:59.266Z</time>
</trkpt>
<trkpt lat="31.4050900" lon="34.5089900">
<ele>40.360001</ele>
<time>2024-03-24T12:19:59.266Z</time>
</trkpt>
<trkpt lat="31.4049900" lon="34.5091200">
<ele>41.130001</ele>
<time>2024-03-24T12:19:59.266Z</time>
</trkpt>
<trkpt lat="31.4049900" lon="34.5092600">
<ele>42.539997</ele>
<time>2024-03-24T12:19:59.266Z</time>
</trkpt>
<trkpt lat="31.4050100" lon="34.5093500">
<ele>43.660000</ele>
<time>2024-03-24T12:19:59.266Z</time>
</trkpt>
<trkpt lat="31.4049000" lon="34.5095100">
<ele>46.410000</ele>
<time>2024-03-24T12:19:59.266Z</time>
</trkpt>
<trkpt lat="31.4047600" lon="34.5097300">
<ele>48.160000</ele>
<time>2024-03-24T12:19:59.266Z</time>
</trkpt>
<trkpt lat="31.4046800" lon="34.5098500">
<ele>48.329998</ele>
<time>2024-03-24T12:19:59.266Z</time>
</trkpt>
<trkpt lat="31.4046200" lon="34.5100200">
<ele>48.009998</ele>
<time>2024-03-24T12:19:59.266Z</time>
</trkpt>
<trkpt lat="31.4045400" lon="34.5102000">
<ele>48.000000</ele>
<time>2024-03-24T12:19:59.266Z</time>
</trkpt>
<trkpt lat="31.4044600" lon="34.5102700">
<ele>47.189999</ele>
<time>2024-03-24T12:19:59.266Z</time>
</trkpt>
<trkpt lat="31.4043700" lon="34.5103300">
<ele>47.329998</ele>
<time>2024-03-24T12:19:59.266Z</time>
</trkpt>
<trkpt lat="31.4043100" lon="34.5104400">
<ele>48.000000</ele>
<time>2024-03-24T12:19:59.266Z</time>
</trkpt>
<trkpt lat="31.4043000" lon="34.5105800">
<ele>48.919998</ele>
<time>2024-03-24T12:19:59.266Z</time>
</trkpt>
<trkpt lat="31.4042800" lon="34.5106800">
<ele>48.629997</ele>
<time>2024-03-24T12:19:59.266Z</time>
</trkpt>
<trkpt lat="31.4042300" lon="34.5108200">
<ele>47.910000</ele>
<time>2024-03-24T12:19:59.266Z</time>
</trkpt>
<trkpt lat="31.4042000" lon="34.5110300">
<ele>47.559998</ele>
<time>2024-03-24T12:19:59.266Z</time>
</trkpt>
<trkpt lat="31.4041200" lon="34.5111000">
<ele>46.830002</ele>
<time>2024-03-24T12:19:59.266Z</time>
</trkpt>
<trkpt lat="31.4039900" lon="34.5111800">
<ele>46.860001</ele>
<time>2024-03-24T12:19:59.266Z</time>
</trkpt>
<trkpt lat="31.4039200" lon="34.5113400">
<ele>47.760002</ele>
<time>2024-03-24T12:19:59.266Z</time>
</trkpt>
<trkpt lat="31.4038700" lon="34.5115100">
<ele>47.029999</ele>
<time>2024-03-24T12:19:59.266Z</time>
</trkpt>
<trkpt lat="31.4038500" lon="34.5117000">
<ele>45.880001</ele>
<time>2024-03-24T12:19:59.266Z</time>
</trkpt>
<trkpt lat="31.4039800" lon="34.5118500">
<ele>48.299999</ele>
<time>2024-03-24T12:19:59.266Z</time>
</trkpt>
<trkpt lat="31.4041100" lon="34.5119200">
<ele>50.209999</ele>
<time>2024-03-24T12:19:59.266Z</time>
</trkpt>
<trkpt lat="31.4042300" lon="34.5119900">
<ele>50.779999</ele>
<time>2024-03-24T12:19:59.266Z</time>
</trkpt>
<trkpt lat="31.4042400" lon="34.5121400">
<ele>51.550003</ele>
<time>2024-03-24T12:19:59.266Z</time>
</trkpt>
<trkpt lat="31.4042100" lon="34.5123000">
<ele>52.560001</ele>
<time>2024-03-24T12:19:59.266Z</time>
</trkpt>
<trkpt lat="31.4042100" lon="34.5124600">
<ele>53.709999</ele>
<time>2024-03-24T12:19:59.266Z</time>
</trkpt>
<trkpt lat="31.4042400" lon="34.5125600">
<ele>53.959999</ele>
<time>2024-03-24T12:19:59.266Z</time>
</trkpt>
<trkpt lat="31.4042700" lon="34.5127000">
<ele>54.080002</ele>
<time>2024-03-24T12:19:59.266Z</time>
</trkpt>
<trkpt lat="31.4041900" lon="34.5129700">
<ele>50.599998</ele>
<time>2024-03-24T12:19:59.266Z</time>
</trkpt>
<trkpt lat="31.4039400" lon="34.5132400">
<ele>52.449997</ele>
<time>2024-03-24T12:19:59.266Z</time>
</trkpt>
<trkpt lat="31.4036700" lon="34.5135800">
<ele>50.549999</ele>
<time>2024-03-24T12:19:59.266Z</time>
</trkpt>
<trkpt lat="31.4035400" lon="34.5137700">
<ele>52.100002</ele>
<time>2024-03-24T12:19:59.266Z</time>
</trkpt>
<trkpt lat="31.4035400" lon="34.5139600">
<ele>54.189999</ele>
<time>2024-03-24T12:19:59.266Z</time>
</trkpt>
<trkpt lat="31.4035700" lon="34.5142100">
<ele>57.200001</ele>
<time>2024-03-24T12:19:59.266Z</time>
</trkpt>
<trkpt lat="31.4036300" lon="34.5145600">
<ele>61.990002</ele>
<time>2024-03-24T12:19:59.266Z</time>
</trkpt>
<trkpt lat="31.4036600" lon="34.5149300">
<ele>62.680000</ele>
<time>2024-03-24T12:19:59.266Z</time>
</trkpt>
<trkpt lat="31.4035700" lon="34.5151100">
<ele>59.060001</ele>
<time>2024-03-24T12:19:59.266Z</time>
</trkpt>
<trkpt lat="31.4032100" lon="34.5153300">
<ele>51.980000</ele>
<time>2024-03-24T12:19:59.266Z</time>
</trkpt>
<trkpt lat="31.4030600" lon="34.5154100">
<ele>50.070000</ele>
<time>2024-03-24T12:19:59.266Z</time>
</trkpt>
<trkpt lat="31.4028100" lon="34.5155500">
<ele>49.960003</ele>
<time>2024-03-24T12:19:59.266Z</time>
</trkpt>
<trkpt lat="31.4026800" lon="34.5156600">
<ele>51.170002</ele>
<time>2024-03-24T12:19:59.266Z</time>
</trkpt>
<trkpt lat="31.4026100" lon="34.5157600">
<ele>51.660000</ele>
<time>2024-03-24T12:19:59.266Z</time>
</trkpt>
<trkpt lat="31.4025500" lon="34.5159600">
<ele>51.609997</ele>
<time>2024-03-24T12:19:59.266Z</time>
</trkpt>
<trkpt lat="31.4025300" lon="34.5161600">
<ele>51.250004</ele>
<time>2024-03-24T12:19:59.266Z</time>
</trkpt>
<trkpt lat="31.4027000" lon="34.5163500">
<ele>53.679996</ele>
<time>2024-03-24T12:19:59.266Z</time>
</trkpt>
<trkpt lat="31.4028800" lon="34.5164800">
<ele>56.719997</ele>
<time>2024-03-24T12:19:59.266Z</time>
</trkpt>
<trkpt lat="31.4030800" lon="34.5166100">
<ele>59.170002</ele>
<time>2024-03-24T12:19:59.266Z</time>
</trkpt>
<trkpt lat="31.4032800" lon="34.5167200">
<ele>57.849998</ele>
<time>2024-03-24T12:19:59.266Z</time>
</trkpt>
<trkpt lat="31.4034100" lon="34.5168200">
<ele>55.900002</ele>
<time>2024-03-24T12:19:59.266Z</time>
</trkpt>
<trkpt lat="31.4033900" lon="34.5169800">
<ele>53.080002</ele>
<time>2024-03-24T12:19:59.266Z</time>
</trkpt>
<trkpt lat="31.4032700" lon="34.5172400">
<ele>48.570000</ele>
<time>2024-03-24T12:19:59.266Z</time>
</trkpt>
<trkpt lat="31.4031000" lon="34.5173600">
<ele>49.709999</ele>
<time>2024-03-24T12:19:59.266Z</time>
</trkpt>
<trkpt lat="31.4028600" lon="34.5174400">
<ele>47.509998</ele>
<time>2024-03-24T12:19:59.266Z</time>
</trkpt>
<trkpt lat="31.4025300" lon="34.5176400">
<ele>43.219997</ele>
<time>2024-03-24T12:19:59.266Z</time>
</trkpt>
<trkpt lat="31.4021900" lon="34.5178500">
<ele>39.540001</ele>
<time>2024-03-24T12:19:59.266Z</time>
</trkpt>
<trkpt lat="31.4020100" lon="34.5179900">
<ele>47.290001</ele>
<time>2024-03-24T12:19:59.266Z</time>
</trkpt>
<trkpt lat="31.4018600" lon="34.5181700">
<ele>53.170002</ele>
<time>2024-03-24T12:19:59.266Z</time>
</trkpt>
<trkpt lat="31.4017000" lon="34.5184200">
<ele>54.199997</ele>
<time>2024-03-24T12:19:59.266Z</time>
</trkpt>
<trkpt lat="31.4015400" lon="34.5187100">
<ele>55.470001</ele>
<time>2024-03-24T12:19:59.266Z</time>
</trkpt>
<trkpt lat="31.4013600" lon="34.5190500">
<ele>57.389999</ele>
<time>2024-03-24T12:19:59.266Z</time>
</trkpt>
<trkpt lat="31.4012000" lon="34.5193700">
<ele>55.380001</ele>
<time>2024-03-24T12:19:59.266Z</time>
</trkpt>
<trkpt lat="31.4010500" lon="34.5195300">
<ele>55.039997</ele>
<time>2024-03-24T12:19:59.266Z</time>
</trkpt>
<trkpt lat="31.4009600" lon="34.5196500">
<ele>54.630001</ele>
<time>2024-03-24T12:19:59.266Z</time>
</trkpt>
<trkpt lat="31.4008300" lon="34.5200000">
<ele>51.999996</ele>
<time>2024-03-24T12:19:59.266Z</time>
</trkpt>
<trkpt lat="31.4007100" lon="34.5202200">
<ele>53.139999</ele>
<time>2024-03-24T12:19:59.266Z</time>
</trkpt>
<trkpt lat="31.4005800" lon="34.5203500">
<ele>55.259998</ele>
<time>2024-03-24T12:19:59.266Z</time>
</trkpt>
<trkpt lat="31.4005000" lon="34.5204300">
<ele>56.430000</ele>
<time>2024-03-24T12:19:59.266Z</time>
</trkpt>
<trkpt lat="31.4004400" lon="34.5205300">
<ele>57.750000</ele>
<time>2024-03-24T12:19:59.266Z</time>
</trkpt>
<trkpt lat="31.4005000" lon="34.5206100">
<ele>59.270000</ele>
<time>2024-03-24T12:19:59.266Z</time>
</trkpt>
<trkpt lat="31.4006800" lon="34.5207200">
<ele>61.750000</ele>
<time>2024-03-24T12:19:59.266Z</time>
</trkpt>
<trkpt lat="31.4007900" lon="34.5207600">
<ele>63.290001</ele>
<time>2024-03-24T12:19:59.266Z</time>
</trkpt>
<trkpt lat="31.4009300" lon="34.5209700">
<ele>66.220001</ele>
<time>2024-03-24T12:19:59.266Z</time>
</trkpt>
<trkpt lat="31.4009500" lon="34.5211600">
<ele>66.519997</ele>
<time>2024-03-24T12:19:59.266Z</time>
</trkpt>
<trkpt lat="31.4009600" lon="34.5214500">
<ele>65.760002</ele>
<time>2024-03-24T12:19:59.266Z</time>
</trkpt>
<trkpt lat="31.4010100" lon="34.5217100">
<ele>66.059998</ele>
<time>2024-03-24T12:19:59.266Z</time>
</trkpt>
<trkpt lat="31.4011700" lon="34.5218700">
<ele>66.900002</ele>
<time>2024-03-24T12:19:59.266Z</time>
</trkpt>
<trkpt lat="31.4012300" lon="34.5219700">
<ele>65.040001</ele>
<time>2024-03-24T12:19:59.266Z</time>
</trkpt>
<trkpt lat="31.4011300" lon="34.5222000">
<ele>63.240002</ele>
<time>2024-03-24T12:19:59.266Z</time>
</trkpt>
<trkpt lat="31.4010900" lon="34.5224000">
<ele>62.250000</ele>
<time>2024-03-24T12:19:59.266Z</time>
</trkpt>
<trkpt lat="31.4010500" lon="34.5226400">
<ele>61.669998</ele>
<time>2024-03-24T12:19:59.266Z</time>
</trkpt>
<trkpt lat="31.4010400" lon="34.5228800">
<ele>62.519997</ele>
<time>2024-03-24T12:19:59.266Z</time>
</trkpt>
<trkpt lat="31.4010400" lon="34.5229200">
<ele>63.020000</ele>
<time>2024-03-24T12:19:59.266Z</time>
</trkpt>
<trkpt lat="31.4010900" lon="34.5230700">
<ele>65.769997</ele>
<time>2024-03-24T12:19:59.266Z</time>
</trkpt>
<trkpt lat="31.4014900" lon="34.5233100">
<ele>68.050003</ele>
<time>2024-03-24T12:19:59.266Z</time>
</trkpt>
<trkpt lat="31.4015300" lon="34.5234200">
<ele>67.610001</ele>
<time>2024-03-24T12:19:59.266Z</time>
</trkpt>
<trkpt lat="31.4014700" lon="34.5237000">
<ele>69.250000</ele>
<time>2024-03-24T12:19:59.266Z</time>
</trkpt>
<trkpt lat="31.4014400" lon="34.5238500">
<ele>69.900002</ele>
<time>2024-03-24T12:19:59.266Z</time>
</trkpt>
<trkpt lat="31.4014400" lon="34.5241400">
<ele>71.129997</ele>
<time>2024-03-24T12:19:59.266Z</time>
</trkpt>
<trkpt lat="31.4014400" lon="34.5242200">
<ele>71.370003</ele>
<time>2024-03-24T12:19:59.266Z</time>
</trkpt>
<trkpt lat="31.4014700" lon="34.5244500">
<ele>71.809998</ele>
<time>2024-03-24T12:19:59.266Z</time>
</trkpt>
<trkpt lat="31.4015400" lon="34.5247000">
<ele>77.720001</ele>
<time>2024-03-24T12:19:59.266Z</time>
</trkpt>
<trkpt lat="31.4015700" lon="34.5248500">
<ele>80.930000</ele>
<time>2024-03-24T12:19:59.266Z</time>
</trkpt>
<trkpt lat="31.4016500" lon="34.5250900">
<ele>83.559998</ele>
<time>2024-03-24T12:19:59.266Z</time>
</trkpt>
<trkpt lat="31.4017400" lon="34.5252500">
<ele>83.150002</ele>
<time>2024-03-24T12:19:59.266Z</time>
</trkpt>
<trkpt lat="31.4017700" lon="34.5253700">
<ele>81.839996</ele>
<time>2024-03-24T12:19:59.266Z</time>
</trkpt>
<trkpt lat="31.4017700" lon="34.5254700">
<ele>80.590004</ele>
<time>2024-03-24T12:19:59.266Z</time>
</trkpt>
<trkpt lat="31.4018100" lon="34.5257000">
<ele>76.070000</ele>
<time>2024-03-24T12:19:59.266Z</time>
</trkpt>
<trkpt lat="31.4018400" lon="34.5258100">
<ele>73.349998</ele>
<time>2024-03-24T12:19:59.266Z</time>
</trkpt>
<trkpt lat="31.4018400" lon="34.5259400">
<ele>72.450005</ele>
<time>2024-03-24T12:19:59.266Z</time>
</trkpt>
<trkpt lat="31.4018000" lon="34.5261600">
<ele>71.580002</ele>
<time>2024-03-24T12:19:59.266Z</time>
</trkpt>
<trkpt lat="31.4018000" lon="34.5261600">
<ele>71.580002</ele>
<time>2024-03-24T12:19:59.266Z</time>
</trkpt>
<trkpt lat="31.4017800" lon="34.5262600">
<ele>70.500000</ele>
<time>2024-03-24T12:19:59.266Z</time>
</trkpt>
<trkpt lat="31.4017300" lon="34.5265200">
<ele>67.299995</ele>
<time>2024-03-24T12:19:59.266Z</time>
</trkpt>
<trkpt lat="31.4016500" lon="34.5268500">
<ele>66.559998</ele>
<time>2024-03-24T12:19:59.266Z</time>
</trkpt>
<trkpt lat="31.4016300" lon="34.5271800">
<ele>69.110001</ele>
<time>2024-03-24T12:19:59.266Z</time>
</trkpt>
<trkpt lat="31.4016600" lon="34.5273900">
<ele>69.700005</ele>
<time>2024-03-24T12:19:59.266Z</time>
</trkpt>
<trkpt lat="31.4016200" lon="34.5275900">
<ele>71.160004</ele>
<time>2024-03-24T12:19:59.266Z</time>
</trkpt>
<trkpt lat="31.4016200" lon="34.5278800">
<ele>72.450005</ele>
<time>2024-03-24T12:19:59.266Z</time>
</trkpt>
<trkpt lat="31.4015900" lon="34.5280700">
<ele>74.040001</ele>
<time>2024-03-24T12:19:59.266Z</time>
</trkpt>
<trkpt lat="31.4015600" lon="34.5284000">
<ele>79.510002</ele>
<time>2024-03-24T12:19:59.266Z</time>
</trkpt>
<trkpt lat="31.4015900" lon="34.5286600">
<ele>84.080002</ele>
<time>2024-03-24T12:19:59.266Z</time>
</trkpt>
<trkpt lat="31.4016500" lon="34.5287800">
<ele>82.509995</ele>
<time>2024-03-24T12:19:59.266Z</time>
</trkpt>
<trkpt lat="31.4017000" lon="34.5289000">
<ele>80.250008</ele>
<time>2024-03-24T12:19:59.266Z</time>
</trkpt>
<trkpt lat="31.4018500" lon="34.5289500">
<ele>82.550003</ele>
<time>2024-03-24T12:19:59.266Z</time>
</trkpt>
<trkpt lat="31.4019800" lon="34.5289800">
<ele>84.930000</ele>
<time>2024-03-24T12:19:59.266Z</time>
</trkpt>
<trkpt lat="31.4021300" lon="34.5291000">
<ele>87.049995</ele>
<time>2024-03-24T12:19:59.266Z</time>
</trkpt>
<trkpt lat="31.4022400" lon="34.5292000">
<ele>87.019997</ele>
<time>2024-03-24T12:19:59.266Z</time>
</trkpt>
<trkpt lat="31.4023700" lon="34.5293500">
<ele>81.749992</ele>
<time>2024-03-24T12:19:59.266Z</time>
</trkpt>
<trkpt lat="31.4024200" lon="34.5295300">
<ele>79.570000</ele>
<time>2024-03-24T12:19:59.266Z</time>
</trkpt>
<trkpt lat="31.4024400" lon="34.5296900">
<ele>78.559998</ele>
<time>2024-03-24T12:19:59.266Z</time>
</trkpt>
<trkpt lat="31.4025000" lon="34.5298500">
<ele>78.919998</ele>
<time>2024-03-24T12:19:59.266Z</time>
</trkpt>
<trkpt lat="31.4025100" lon="34.5300300">
<ele>80.040001</ele>
<time>2024-03-24T12:19:59.266Z</time>
</trkpt>
<trkpt lat="31.4025400" lon="34.5302100">
<ele>80.790001</ele>
<time>2024-03-24T12:19:59.266Z</time>
</trkpt>
<trkpt lat="31.4026300" lon="34.5305700">
<ele>79.970001</ele>
<time>2024-03-24T12:19:59.266Z</time>
</trkpt>
<trkpt lat="31.4026700" lon="34.5307500">
<ele>79.889999</ele>
<time>2024-03-24T12:19:59.266Z</time>
</trkpt>
<trkpt lat="31.4027500" lon="34.5308500">
<ele>80.580002</ele>
<time>2024-03-24T12:19:59.266Z</time>
</trkpt>
<trkpt lat="31.4028900" lon="34.5309000">
<ele>80.000000</ele>
<time>2024-03-24T12:19:59.266Z</time>
</trkpt>
<trkpt lat="31.4031000" lon="34.5310300">
<ele>80.570000</ele>
<time>2024-03-24T12:19:59.266Z</time>
</trkpt>
<trkpt lat="31.4032300" lon="34.5310800">
<ele>83.519997</ele>
<time>2024-03-24T12:19:59.266Z</time>
</trkpt>
<trkpt lat="31.4034400" lon="34.5310700">
<ele>85.229996</ele>
<time>2024-03-24T12:19:59.266Z</time>
</trkpt>
<trkpt lat="31.4036400" lon="34.5310600">
<ele>84.110001</ele>
<time>2024-03-24T12:19:59.266Z</time>
</trkpt>
<trkpt lat="31.4036900" lon="34.5310800">
<ele>83.360001</ele>
<time>2024-03-24T12:19:59.266Z</time>
</trkpt>
<trkpt lat="31.4037700" lon="34.5311400">
<ele>82.169998</ele>
<time>2024-03-24T12:19:59.266Z</time>
</trkpt>
<trkpt lat="31.4038500" lon="34.5312300">
<ele>81.320007</ele>
<time>2024-03-24T12:19:59.266Z</time>
</trkpt>
<trkpt lat="31.4038800" lon="34.5313100">
<ele>81.500000</ele>
<time>2024-03-24T12:19:59.266Z</time>
</trkpt>
<trkpt lat="31.4038800" lon="34.5314800">
<ele>82.000000</ele>
<time>2024-03-24T12:19:59.266Z</time>
</trkpt>
<trkpt lat="31.4039800" lon="34.5316300">
<ele>82.279999</ele>
<time>2024-03-24T12:19:59.266Z</time>
</trkpt>
<trkpt lat="31.4042000" lon="34.5319800">
<ele>85.719994</ele>
<time>2024-03-24T12:19:59.266Z</time>
</trkpt>
<trkpt lat="31.4043400" lon="34.5323000">
<ele>80.430000</ele>
<time>2024-03-24T12:19:59.266Z</time>
</trkpt>
<trkpt lat="31.4044300" lon="34.5324900">
<ele>78.110001</ele>
<time>2024-03-24T12:19:59.266Z</time>
</trkpt>
<trkpt lat="31.4045100" lon="34.5326100">
<ele>74.650002</ele>
<time>2024-03-24T12:19:59.266Z</time>
</trkpt>
<trkpt lat="31.4046400" lon="34.5326700">
<ele>71.300003</ele>
<time>2024-03-24T12:19:59.266Z</time>
</trkpt>
<trkpt lat="31.4047800" lon="34.5327200">
<ele>68.620003</ele>
<time>2024-03-24T12:19:59.266Z</time>
</trkpt>
<trkpt lat="31.4049900" lon="34.5327500">
<ele>65.919998</ele>
<time>2024-03-24T12:19:59.266Z</time>
</trkpt>
<trkpt lat="31.4052500" lon="34.5327700">
<ele>73.919998</ele>
<time>2024-03-24T12:19:59.266Z</time>
</trkpt>
<trkpt lat="31.4053800" lon="34.5327600">
<ele>79.040001</ele>
<time>2024-03-24T12:19:59.266Z</time>
</trkpt>
<trkpt lat="31.4054700" lon="34.5328000">
<ele>82.889999</ele>
<time>2024-03-24T12:19:59.266Z</time>
</trkpt>
<trkpt lat="31.4055900" lon="34.5329100">
<ele>83.340004</ele>
<time>2024-03-24T12:19:59.266Z</time>
</trkpt>
<trkpt lat="31.4058300" lon="34.5330600">
<ele>80.969994</ele>
<time>2024-03-24T12:19:59.266Z</time>
</trkpt>
<trkpt lat="31.4060400" lon="34.5331200">
<ele>80.599998</ele>
<time>2024-03-24T12:19:59.266Z</time>
</trkpt>
<trkpt lat="31.4061200" lon="34.5332000">
<ele>79.849998</ele>
<time>2024-03-24T12:19:59.266Z</time>
</trkpt>
<trkpt lat="31.4062100" lon="34.5333200">
<ele>78.010002</ele>
<time>2024-03-24T12:19:59.266Z</time>
</trkpt>
<trkpt lat="31.4063100" lon="34.5334300">
<ele>78.450005</ele>
<time>2024-03-24T12:19:59.266Z</time>
</trkpt>
<trkpt lat="31.4063500" lon="34.5335600">
<ele>81.579994</ele>
<time>2024-03-24T12:19:59.266Z</time>
</trkpt>
<trkpt lat="31.4063100" lon="34.5337400">
<ele>79.980003</ele>
<time>2024-03-24T12:19:59.266Z</time>
</trkpt>
<trkpt lat="31.4063100" lon="34.5341600">
<ele>79.970001</ele>
<time>2024-03-24T12:19:59.266Z</time>
</trkpt>
<trkpt lat="31.4063600" lon="34.5344900">
<ele>89.250000</ele>
<time>2024-03-24T12:19:59.266Z</time>
</trkpt>
<trkpt lat="31.4064000" lon="34.5346900">
<ele>91.690002</ele>
<time>2024-03-24T12:19:59.266Z</time>
</trkpt>
<trkpt lat="31.4065200" lon="34.5348200">
<ele>92.620003</ele>
<time>2024-03-24T12:19:59.266Z</time>
</trkpt>
<trkpt lat="31.4067100" lon="34.5349400">
<ele>94.220001</ele>
<time>2024-03-24T12:19:59.266Z</time>
</trkpt>
<trkpt lat="31.4068800" lon="34.5350500">
<ele>93.019997</ele>
<time>2024-03-24T12:19:59.266Z</time>
</trkpt>
<trkpt lat="31.4070000" lon="34.5351800">
<ele>91.099998</ele>
<time>2024-03-24T12:19:59.266Z</time>
</trkpt>
<trkpt lat="31.4071100" lon="34.5353000">
<ele>88.959999</ele>
<time>2024-03-24T12:19:59.266Z</time>
</trkpt>
<trkpt lat="31.4072200" lon="34.5353900">
<ele>87.209999</ele>
<time>2024-03-24T12:19:59.266Z</time>
</trkpt>
<trkpt lat="31.4073100" lon="34.5355000">
<ele>85.519997</ele>
<time>2024-03-24T12:19:59.266Z</time>
</trkpt>
<trkpt lat="31.4073900" lon="34.5355800">
<ele>84.789993</ele>
<time>2024-03-24T12:19:59.266Z</time>
</trkpt>
<trkpt lat="31.4075000" lon="34.5357100">
<ele>84.000000</ele>
<time>2024-03-24T12:19:59.266Z</time>
</trkpt>
<trkpt lat="31.4075900" lon="34.5358200">
<ele>82.700005</ele>
<time>2024-03-24T12:19:59.266Z</time>
</trkpt>
<trkpt lat="31.4076600" lon="34.5359200">
<ele>82.680008</ele>
<time>2024-03-24T12:19:59.266Z</time>
</trkpt>
<trkpt lat="31.4077200" lon="34.5360000">
<ele>82.979996</ele>
<time>2024-03-24T12:19:59.266Z</time>
</trkpt>
<trkpt lat="31.4079600" lon="34.5362300">
<ele>79.980003</ele>
<time>2024-03-24T12:19:59.266Z</time>
</trkpt>
<trkpt lat="31.4080700" lon="34.5363700">
<ele>77.630005</ele>
<time>2024-03-24T12:19:59.266Z</time>
</trkpt>
<trkpt lat="31.4082700" lon="34.5365900">
<ele>75.040001</ele>
<time>2024-03-24T12:19:59.266Z</time>
</trkpt>
<trkpt lat="31.4084700" lon="34.5367700">
<ele>80.379997</ele>
<time>2024-03-24T12:19:59.266Z</time>
</trkpt>
<trkpt lat="31.4086800" lon="34.5369500">
<ele>85.079994</ele>
<time>2024-03-24T12:19:59.266Z</time>
</trkpt>
<trkpt lat="31.4088500" lon="34.5370400">
<ele>85.239998</ele>
<time>2024-03-24T12:19:59.266Z</time>
</trkpt>
<trkpt lat="31.4089100" lon="34.5370900">
<ele>84.730003</ele>
<time>2024-03-24T12:19:59.266Z</time>
</trkpt>
<trkpt lat="31.4089400" lon="34.5372700">
<ele>83.970001</ele>
<time>2024-03-24T12:19:59.266Z</time>
</trkpt>
<trkpt lat="31.4089500" lon="34.5373600">
<ele>83.620003</ele>
<time>2024-03-24T12:19:59.266Z</time>
</trkpt>
<trkpt lat="31.4091400" lon="34.5376100">
<ele>81.139999</ele>
<time>2024-03-24T12:19:59.266Z</time>
</trkpt>
<trkpt lat="31.4093200" lon="34.5379300">
<ele>77.180000</ele>
<time>2024-03-24T12:19:59.266Z</time>
</trkpt>
<trkpt lat="31.4095100" lon="34.5380500">
<ele>74.239998</ele>
<time>2024-03-24T12:19:59.266Z</time>
</trkpt>
<trkpt lat="31.4097000" lon="34.5381900">
<ele>73.610001</ele>
<time>2024-03-24T12:19:59.266Z</time>
</trkpt>
<trkpt lat="31.4097700" lon="34.5383100">
<ele>75.410004</ele>
<time>2024-03-24T12:19:59.266Z</time>
</trkpt>
<trkpt lat="31.4098100" lon="34.5383800">
<ele>77.269997</ele>
<time>2024-03-24T12:19:59.266Z</time>
</trkpt>
<trkpt lat="31.4101200" lon="34.5385800">
<ele>83.610001</ele>
<time>2024-03-24T12:19:59.266Z</time>
</trkpt>
<trkpt lat="31.4103900" lon="34.5388400">
<ele>83.140007</ele>
<time>2024-03-24T12:19:59.266Z</time>
</trkpt>
<trkpt lat="31.4105800" lon="34.5391900">
<ele>88.389999</ele>
<time>2024-03-24T12:19:59.266Z</time>
</trkpt>
<trkpt lat="31.4106800" lon="34.5395200">
<ele>82.220001</ele>
<time>2024-03-24T12:19:59.266Z</time>
</trkpt>
<trkpt lat="31.4109600" lon="34.5399700">
<ele>77.040001</ele>
<time>2024-03-24T12:19:59.266Z</time>
</trkpt>
<trkpt lat="31.4110900" lon="34.5402800">
<ele>77.239998</ele>
<time>2024-03-24T12:19:59.266Z</time>
</trkpt>
<trkpt lat="31.4109800" lon="34.5405700">
<ele>80.889999</ele>
<time>2024-03-24T12:19:59.266Z</time>
</trkpt>
<trkpt lat="31.4109400" lon="34.5409100">
<ele>80.639999</ele>
<time>2024-03-24T12:19:59.266Z</time>
</trkpt>
<trkpt lat="31.4108800" lon="34.5412000">
<ele>79.169998</ele>
<time>2024-03-24T12:19:59.266Z</time>
</trkpt>
<trkpt lat="31.4108400" lon="34.5415000">
<ele>80.139999</ele>
<time>2024-03-24T12:19:59.266Z</time>
</trkpt>
<trkpt lat="31.4107600" lon="34.5418300">
<ele>82.010002</ele>
<time>2024-03-24T12:19:59.266Z</time>
</trkpt>
<trkpt lat="31.4107100" lon="34.5419400">
<ele>82.180000</ele>
<time>2024-03-24T12:19:59.266Z</time>
</trkpt>
<trkpt lat="31.4107400" lon="34.5421400">
<ele>81.480003</ele>
<time>2024-03-24T12:19:59.266Z</time>
</trkpt>
<trkpt lat="31.4109000" lon="34.5425100">
<ele>81.340004</ele>
<time>2024-03-24T12:19:59.266Z</time>
</trkpt>
<trkpt lat="31.4112000" lon="34.5427800">
<ele>86.970001</ele>
<time>2024-03-24T12:19:59.266Z</time>
</trkpt>
<trkpt lat="31.4114500" lon="34.5429100">
<ele>84.949997</ele>
<time>2024-03-24T12:19:59.266Z</time>
</trkpt>
<trkpt lat="31.4117000" lon="34.5433500">
<ele>82.479996</ele>
<time>2024-03-24T12:19:59.266Z</time>
</trkpt>
<trkpt lat="31.4118900" lon="34.5437100">
<ele>81.299995</ele>
<time>2024-03-24T12:19:59.266Z</time>
</trkpt>
<trkpt lat="31.4120800" lon="34.5438400">
<ele>79.030006</ele>
<time>2024-03-24T12:19:59.266Z</time>
</trkpt>
<trkpt lat="31.4123500" lon="34.5439800">
<ele>82.129997</ele>
<time>2024-03-24T12:19:59.266Z</time>
</trkpt>
<trkpt lat="31.4125200" lon="34.5441800">
<ele>85.120003</ele>
<time>2024-03-24T12:19:59.266Z</time>
</trkpt>
<trkpt lat="31.4126700" lon="34.5442000">
<ele>86.670006</ele>
<time>2024-03-24T12:19:59.266Z</time>
</trkpt>
<trkpt lat="31.4129400" lon="34.5444000">
<ele>87.560005</ele>
<time>2024-03-24T12:19:59.266Z</time>
</trkpt>
<trkpt lat="31.4131900" lon="34.5446300">
<ele>83.719994</ele>
<time>2024-03-24T12:19:59.266Z</time>
</trkpt>
<trkpt lat="31.4132200" lon="34.5449400">
<ele>84.339996</ele>
<time>2024-03-24T12:19:59.266Z</time>
</trkpt>
<trkpt lat="31.4132500" lon="34.5454500">
<ele>82.479996</ele>
<time>2024-03-24T12:19:59.266Z</time>
</trkpt>
<trkpt lat="31.4132900" lon="34.5456100">
<ele>81.780006</ele>
<time>2024-03-24T12:19:59.266Z</time>
</trkpt>
<trkpt lat="31.4133600" lon="34.5458600">
<ele>85.139999</ele>
<time>2024-03-24T12:19:59.266Z</time>
</trkpt>
<trkpt lat="31.4133600" lon="34.5462600">
<ele>87.549995</ele>
<time>2024-03-24T12:19:59.266Z</time>
</trkpt>
<trkpt lat="31.4134600" lon="34.5465400">
<ele>90.529999</ele>
<time>2024-03-24T12:19:59.266Z</time>
</trkpt>
<trkpt lat="31.4137600" lon="34.5469200">
<ele>91.060005</ele>
<time>2024-03-24T12:19:59.266Z</time>
</trkpt>
<trkpt lat="31.4139700" lon="34.5472800">
<ele>86.960007</ele>
<time>2024-03-24T12:19:59.266Z</time>
</trkpt>
<trkpt lat="31.4140700" lon="34.5475200">
<ele>83.180000</ele>
<time>2024-03-24T12:19:59.266Z</time>
</trkpt>
<trkpt lat="31.4139200" lon="34.5479000">
<ele>83.830002</ele>
<time>2024-03-24T12:19:59.266Z</time>
</trkpt>
<trkpt lat="31.4137200" lon="34.5482700">
<ele>82.250000</ele>
<time>2024-03-24T12:19:59.266Z</time>
</trkpt>
<trkpt lat="31.4136100" lon="34.5486800">
<ele>83.739998</ele>
<time>2024-03-24T12:19:59.266Z</time>
</trkpt>
<trkpt lat="31.4136700" lon="34.5488200">
<ele>85.470001</ele>
<time>2024-03-24T12:19:59.266Z</time>
</trkpt>
<trkpt lat="31.4136200" lon="34.5489300">
<ele>86.179993</ele>
<time>2024-03-24T12:19:59.266Z</time>
</trkpt>
<trkpt lat="31.4135200" lon="34.5492600">
<ele>87.659996</ele>
<time>2024-03-24T12:19:59.266Z</time>
</trkpt>
<trkpt lat="31.4134200" lon="34.5492700">
<ele>88.379997</ele>
<time>2024-03-24T12:19:59.266Z</time>
</trkpt>
<trkpt lat="31.4134700" lon="34.5494200">
<ele>88.020004</ele>
<time>2024-03-24T12:19:59.266Z</time>
</trkpt>
<trkpt lat="31.4135700" lon="34.5494900">
<ele>86.939995</ele>
<time>2024-03-24T12:19:59.266Z</time>
</trkpt>
<trkpt lat="31.4137200" lon="34.5496500">
<ele>86.000000</ele>
<time>2024-03-24T12:19:59.266Z</time>
</trkpt>
<trkpt lat="31.4138300" lon="34.5503500">
<ele>89.900002</ele>
<time>2024-03-24T12:19:59.266Z</time>
</trkpt>
<trkpt lat="31.4138000" lon="34.5506300">
<ele>88.159996</ele>
<time>2024-03-24T12:19:59.266Z</time>
</trkpt>
<trkpt lat="31.4136800" lon="34.5507500">
<ele>87.740005</ele>
<time>2024-03-24T12:19:59.266Z</time>
</trkpt>
<trkpt lat="31.4136300" lon="34.5509100">
<ele>89.769997</ele>
<time>2024-03-24T12:19:59.266Z</time>
</trkpt>
<trkpt lat="31.4135700" lon="34.5509300">
<ele>88.989998</ele>
<time>2024-03-24T12:19:59.266Z</time>
</trkpt>
<trkpt lat="31.4134500" lon="34.5507700">
<ele>84.099998</ele>
<time>2024-03-24T12:19:59.266Z</time>
</trkpt>
<trkpt lat="31.4133900" lon="34.5508300">
<ele>83.209999</ele>
<time>2024-03-24T12:19:59.266Z</time>
</trkpt>
<trkpt lat="31.4134400" lon="34.5510300">
<ele>86.810005</ele>
<time>2024-03-24T12:19:59.266Z</time>
</trkpt>
<trkpt lat="31.4135700" lon="34.5514400">
<ele>98.459999</ele>
<time>2024-03-24T12:19:59.266Z</time>
</trkpt>
<trkpt lat="31.4137000" lon="34.5515800">
<ele>97.549995</ele>
<time>2024-03-24T12:19:59.266Z</time>
</trkpt>
<trkpt lat="31.4138100" lon="34.5517700">
<ele>96.639999</ele>
<time>2024-03-24T12:19:59.266Z</time>
</trkpt>
<trkpt lat="31.4140900" lon="34.5518900">
<ele>91.639999</ele>
<time>2024-03-24T12:19:59.266Z</time>
</trkpt>
<trkpt lat="31.4144400" lon="34.5521300">
<ele>96.610001</ele>
<time>2024-03-24T12:19:59.266Z</time>
</trkpt>
<trkpt lat="31.4146800" lon="34.5523200">
<ele>96.139999</ele>
<time>2024-03-24T12:19:59.266Z</time>
</trkpt>
<trkpt lat="31.4148900" lon="34.5525000">
<ele>96.000000</ele>
<time>2024-03-24T12:19:59.266Z</time>
</trkpt>
<trkpt lat="31.4151700" lon="34.5526800">
<ele>92.940002</ele>
<time>2024-03-24T12:19:59.266Z</time>
</trkpt>
<trkpt lat="31.4153700" lon="34.5530100">
<ele>89.989998</ele>
<time>2024-03-24T12:19:59.266Z</time>
</trkpt>
<trkpt lat="31.4153000" lon="34.5531800">
<ele>88.260002</ele>
<time>2024-03-24T12:19:59.266Z</time>
</trkpt>
<trkpt lat="31.4151300" lon="34.5534900">
<ele>86.500008</ele>
<time>2024-03-24T12:19:59.266Z</time>
</trkpt>
<trkpt lat="31.4151000" lon="34.5537800">
<ele>86.030006</ele>
<time>2024-03-24T12:19:59.266Z</time>
</trkpt>
<trkpt lat="31.4152500" lon="34.5542300">
<ele>84.120003</ele>
<time>2024-03-24T12:19:59.266Z</time>
</trkpt>
<trkpt lat="31.4153100" lon="34.5544300">
<ele>84.690002</ele>
<time>2024-03-24T12:19:59.266Z</time>
</trkpt>
<trkpt lat="31.4153100" lon="34.5545500">
<ele>85.029999</ele>
<time>2024-03-24T12:19:59.266Z</time>
</trkpt>
<trkpt lat="31.4152100" lon="34.5547900">
<ele>85.669998</ele>
<time>2024-03-24T12:19:59.266Z</time>
</trkpt>
<trkpt lat="31.4151700" lon="34.5550200">
<ele>87.089996</ele>
<time>2024-03-24T12:19:59.266Z</time>
</trkpt>
<trkpt lat="31.4152300" lon="34.5552500">
<ele>88.490005</ele>
<time>2024-03-24T12:19:59.266Z</time>
</trkpt>
<trkpt lat="31.4152400" lon="34.5555200">
<ele>89.599998</ele>
<time>2024-03-24T12:19:59.266Z</time>
</trkpt>
<trkpt lat="31.4150400" lon="34.5557300">
<ele>88.559998</ele>
<time>2024-03-24T12:19:59.266Z</time>
</trkpt>
<trkpt lat="31.4150000" lon="34.5560400">
<ele>87.999992</ele>
<time>2024-03-24T12:19:59.266Z</time>
</trkpt>
<trkpt lat="31.4150900" lon="34.5561800">
<ele>90.599998</ele>
<time>2024-03-24T12:19:59.266Z</time>
</trkpt>
<trkpt lat="31.4151000" lon="34.5562400">
<ele>91.419998</ele>
<time>2024-03-24T12:19:59.266Z</time>
</trkpt>
<trkpt lat="31.4150900" lon="34.5562800">
<ele>91.550003</ele>
<time>2024-03-24T12:19:59.266Z</time>
</trkpt>
<trkpt lat="31.4150700" lon="34.5565100">
<ele>92.879997</ele>
<time>2024-03-24T12:19:59.266Z</time>
</trkpt>
<trkpt lat="31.4150900" lon="34.5565700">
<ele>93.700005</ele>
<time>2024-03-24T12:19:59.266Z</time>
</trkpt>
<trkpt lat="31.4151600" lon="34.5566400">
<ele>95.239998</ele>
<time>2024-03-24T12:19:59.266Z</time>
</trkpt>
<trkpt lat="31.4152900" lon="34.5567200">
<ele>96.529999</ele>
<time>2024-03-24T12:19:59.266Z</time>
</trkpt>
<trkpt lat="31.4153500" lon="34.5568600">
<ele>95.790001</ele>
<time>2024-03-24T12:19:59.266Z</time>
</trkpt>
<trkpt lat="31.4153600" lon="34.5570200">
<ele>94.770004</ele>
<time>2024-03-24T12:19:59.266Z</time>
</trkpt>
<trkpt lat="31.4152000" lon="34.5571600">
<ele>90.549995</ele>
<time>2024-03-24T12:19:59.266Z</time>
</trkpt>
<trkpt lat="31.4151700" lon="34.5572800">
<ele>89.400002</ele>
<time>2024-03-24T12:19:59.266Z</time>
</trkpt>
<trkpt lat="31.4152700" lon="34.5574200">
<ele>90.220001</ele>
<time>2024-03-24T12:19:59.266Z</time>
</trkpt>
<trkpt lat="31.4155500" lon="34.5575600">
<ele>94.820000</ele>
<time>2024-03-24T12:19:59.266Z</time>
</trkpt>
<trkpt lat="31.4159200" lon="34.5577600">
<ele>100.419998</ele>
<time>2024-03-24T12:19:59.266Z</time>
</trkpt>
<trkpt lat="31.4160300" lon="34.5579900">
<ele>101.070000</ele>
<time>2024-03-24T12:19:59.266Z</time>
</trkpt>
<trkpt lat="31.4161500" lon="34.5581600">
<ele>100.550003</ele>
<time>2024-03-24T12:19:59.266Z</time>
</trkpt>
<trkpt lat="31.4162400" lon="34.5583000">
<ele>98.889999</ele>
<time>2024-03-24T12:19:59.266Z</time>
</trkpt>
<trkpt lat="31.4163300" lon="34.5584600">
<ele>97.160004</ele>
<time>2024-03-24T12:19:59.266Z</time>
</trkpt>
<trkpt lat="31.4163600" lon="34.5585100">
<ele>96.479996</ele>
<time>2024-03-24T12:19:59.266Z</time>
</trkpt>
<trkpt lat="31.4165200" lon="34.5584300">
<ele>96.500000</ele>
<time>2024-03-24T12:19:59.266Z</time>
</trkpt>
<trkpt lat="31.4166700" lon="34.5584000">
<ele>95.769997</ele>
<time>2024-03-24T12:19:59.266Z</time>
</trkpt>
<trkpt lat="31.4167700" lon="34.5584300">
<ele>94.270004</ele>
<time>2024-03-24T12:19:59.266Z</time>
</trkpt>
<trkpt lat="31.4167900" lon="34.5584700">
<ele>93.430000</ele>
<time>2024-03-24T12:19:59.266Z</time>
</trkpt>
<trkpt lat="31.4167600" lon="34.5586000">
<ele>91.509995</ele>
<time>2024-03-24T12:19:59.266Z</time>
</trkpt>
<trkpt lat="31.4167200" lon="34.5587200">
<ele>90.349998</ele>
<time>2024-03-24T12:19:59.266Z</time>
</trkpt>
<trkpt lat="31.4168300" lon="34.5589000">
<ele>89.209999</ele>
<time>2024-03-24T12:19:59.266Z</time>
</trkpt>
<trkpt lat="31.4169300" lon="34.5590700">
<ele>91.099998</ele>
<time>2024-03-24T12:19:59.266Z</time>
</trkpt>
<trkpt lat="31.4170700" lon="34.5592300">
<ele>92.910004</ele>
<time>2024-03-24T12:19:59.266Z</time>
</trkpt>
<trkpt lat="31.4171500" lon="34.5593500">
<ele>94.059998</ele>
<time>2024-03-24T12:19:59.266Z</time>
</trkpt>
<trkpt lat="31.4172500" lon="34.5596100">
<ele>94.459999</ele>
<time>2024-03-24T12:19:59.266Z</time>
</trkpt>
<trkpt lat="31.4174000" lon="34.5598900">
<ele>91.580002</ele>
<time>2024-03-24T12:19:59.266Z</time>
</trkpt>
<trkpt lat="31.4174500" lon="34.5600400">
<ele>90.650002</ele>
<time>2024-03-24T12:19:59.266Z</time>
</trkpt>
<trkpt lat="31.4175400" lon="34.5603100">
<ele>89.130005</ele>
<time>2024-03-24T12:19:59.266Z</time>
</trkpt>
<trkpt lat="31.4174900" lon="34.5604800">
<ele>92.109993</ele>
<time>2024-03-24T12:19:59.266Z</time>
</trkpt>
<trkpt lat="31.4175300" lon="34.5606300">
<ele>91.470001</ele>
<time>2024-03-24T12:19:59.266Z</time>
</trkpt>
<trkpt lat="31.4175800" lon="34.5606600">
<ele>90.379997</ele>
<time>2024-03-24T12:19:59.266Z</time>
</trkpt>
<trkpt lat="31.4176000" lon="34.5606900">
<ele>89.790001</ele>
<time>2024-03-24T12:19:59.266Z</time>
</trkpt>
<trkpt lat="31.4177200" lon="34.5608600">
<ele>87.529999</ele>
<time>2024-03-24T12:19:59.266Z</time>
</trkpt>
<trkpt lat="31.4178400" lon="34.5609500">
<ele>88.060005</ele>
<time>2024-03-24T12:19:59.266Z</time>
</trkpt>
<trkpt lat="31.4179800" lon="34.5609500">
<ele>88.570000</ele>
<time>2024-03-24T12:19:59.266Z</time>
</trkpt>
<trkpt lat="31.4181000" lon="34.5610600">
<ele>90.300003</ele>
<time>2024-03-24T12:19:59.266Z</time>
</trkpt>
<trkpt lat="31.4181200" lon="34.5612100">
<ele>92.269997</ele>
<time>2024-03-24T12:19:59.266Z</time>
</trkpt>
<trkpt lat="31.4182900" lon="34.5613500">
<ele>96.090004</ele>
<time>2024-03-24T12:19:59.266Z</time>
</trkpt>
<trkpt lat="31.4185000" lon="34.5615800">
<ele>95.849998</ele>
<time>2024-03-24T12:19:59.266Z</time>
</trkpt>
<trkpt lat="31.4187000" lon="34.5619200">
<ele>95.520004</ele>
<time>2024-03-24T12:19:59.266Z</time>
</trkpt>
<trkpt lat="31.4188100" lon="34.5621300">
<ele>99.480003</ele>
<time>2024-03-24T12:19:59.266Z</time>
</trkpt>
<trkpt lat="31.4190700" lon="34.5622700">
<ele>99.719994</ele>
<time>2024-03-24T12:19:59.266Z</time>
</trkpt>
<trkpt lat="31.4192200" lon="34.5623600">
<ele>98.500000</ele>
<time>2024-03-24T12:19:59.266Z</time>
</trkpt>
<trkpt lat="31.4191600" lon="34.5624900">
<ele>96.189995</ele>
<time>2024-03-24T12:19:59.266Z</time>
</trkpt>
<trkpt lat="31.4190900" lon="34.5626000">
<ele>96.550003</ele>
<time>2024-03-24T12:19:59.266Z</time>
</trkpt>
<trkpt lat="31.4191100" lon="34.5627300">
<ele>96.410004</ele>
<time>2024-03-24T12:19:59.266Z</time>
</trkpt>
<trkpt lat="31.4191800" lon="34.5628900">
<ele>96.930000</ele>
<time>2024-03-24T12:19:59.266Z</time>
</trkpt>
<trkpt lat="31.4192900" lon="34.5629700">
<ele>98.410004</ele>
<time>2024-03-24T12:19:59.266Z</time>
</trkpt>
<trkpt lat="31.4193800" lon="34.5630000">
<ele>99.290001</ele>
<time>2024-03-24T12:19:59.266Z</time>
</trkpt>
<trkpt lat="31.4194800" lon="34.5630400">
<ele>99.699997</ele>
<time>2024-03-24T12:19:59.266Z</time>
</trkpt>
<trkpt lat="31.4197600" lon="34.5631100">
<ele>97.920006</ele>
<time>2024-03-24T12:19:59.266Z</time>
</trkpt>
<trkpt lat="31.4199600" lon="34.5632800">
<ele>97.099998</ele>
<time>2024-03-24T12:19:59.266Z</time>
</trkpt>
<trkpt lat="31.4200700" lon="34.5634500">
<ele>95.860001</ele>
<time>2024-03-24T12:19:59.266Z</time>
</trkpt>
<trkpt lat="31.4202500" lon="34.5635000">
<ele>93.520004</ele>
<time>2024-03-24T12:19:59.266Z</time>
</trkpt>
<trkpt lat="31.4204600" lon="34.5636600">
<ele>91.599998</ele>
<time>2024-03-24T12:19:59.266Z</time>
</trkpt>
<trkpt lat="31.4205700" lon="34.5637200">
<ele>90.439995</ele>
<time>2024-03-24T12:19:59.266Z</time>
</trkpt>
<trkpt lat="31.4207500" lon="34.5637900">
<ele>90.080002</ele>
<time>2024-03-24T12:19:59.266Z</time>
</trkpt>
<trkpt lat="31.4208000" lon="34.5639500">
<ele>90.860001</ele>
<time>2024-03-24T12:19:59.266Z</time>
</trkpt>
<trkpt lat="31.4208900" lon="34.5644400">
<ele>94.639999</ele>
<time>2024-03-24T12:19:59.266Z</time>
</trkpt>
<trkpt lat="31.4210700" lon="34.5647600">
<ele>106.599998</ele>
<time>2024-03-24T12:19:59.266Z</time>
</trkpt>
<trkpt lat="31.4213200" lon="34.5651400">
<ele>109.759995</ele>
<time>2024-03-24T12:19:59.266Z</time>
</trkpt>
<trkpt lat="31.4215100" lon="34.5653700">
<ele>109.299995</ele>
<time>2024-03-24T12:19:59.266Z</time>
</trkpt>
<trkpt lat="31.4216700" lon="34.5654400">
<ele>107.120003</ele>
<time>2024-03-24T12:19:59.266Z</time>
</trkpt>
<trkpt lat="31.4217800" lon="34.5656000">
<ele>106.310005</ele>
<time>2024-03-24T12:19:59.266Z</time>
</trkpt>
<trkpt lat="31.4219100" lon="34.5657800">
<ele>105.710007</ele>
<time>2024-03-24T12:19:59.266Z</time>
</trkpt>
<trkpt lat="31.4221200" lon="34.5659300">
<ele>102.360001</ele>
<time>2024-03-24T12:19:59.266Z</time>
</trkpt>
<trkpt lat="31.4222200" lon="34.5660700">
<ele>100.180000</ele>
<time>2024-03-24T12:19:59.266Z</time>
</trkpt>
<trkpt lat="31.4223700" lon="34.5662000">
<ele>96.679993</ele>
<time>2024-03-24T12:19:59.266Z</time>
</trkpt>
<trkpt lat="31.4224700" lon="34.5662600">
<ele>95.009995</ele>
<time>2024-03-24T12:19:59.266Z</time>
</trkpt>
<trkpt lat="31.4224500" lon="34.5664500">
<ele>95.279999</ele>
<time>2024-03-24T12:19:59.266Z</time>
</trkpt>
<trkpt lat="31.4223300" lon="34.5667500">
<ele>95.790001</ele>
<time>2024-03-24T12:19:59.266Z</time>
</trkpt>
<trkpt lat="31.4223000" lon="34.5669500">
<ele>98.100006</ele>
<time>2024-03-24T12:19:59.266Z</time>
</trkpt>
<trkpt lat="31.4223400" lon="34.5670900">
<ele>94.790001</ele>
<time>2024-03-24T12:19:59.266Z</time>
</trkpt>
<trkpt lat="31.4225100" lon="34.5675500">
<ele>95.459999</ele>
<time>2024-03-24T12:19:59.266Z</time>
</trkpt>
<trkpt lat="31.4226500" lon="34.5679300">
<ele>100.730003</ele>
<time>2024-03-24T12:19:59.266Z</time>
</trkpt>
<trkpt lat="31.4226800" lon="34.5681100">
<ele>103.430000</ele>
<time>2024-03-24T12:19:59.266Z</time>
</trkpt>
<trkpt lat="31.4227700" lon="34.5682800">
<ele>104.529999</ele>
<time>2024-03-24T12:19:59.266Z</time>
</trkpt>
<trkpt lat="31.4229500" lon="34.5684500">
<ele>103.859993</ele>
<time>2024-03-24T12:19:59.266Z</time>
</trkpt>
<trkpt lat="31.4230800" lon="34.5685700">
<ele>102.419998</ele>
<time>2024-03-24T12:19:59.266Z</time>
</trkpt>
<trkpt lat="31.4232200" lon="34.5687800">
<ele>103.180000</ele>
<time>2024-03-24T12:19:59.266Z</time>
</trkpt>
<trkpt lat="31.4233400" lon="34.5689900">
<ele>103.239998</ele>
<time>2024-03-24T12:19:59.266Z</time>
</trkpt>
<trkpt lat="31.4234500" lon="34.5691400">
<ele>102.110001</ele>
<time>2024-03-24T12:19:59.266Z</time>
</trkpt>
<trkpt lat="31.4235400" lon="34.5693000">
<ele>99.709999</ele>
<time>2024-03-24T12:19:59.266Z</time>
</trkpt>
<trkpt lat="31.4235400" lon="34.5693000">
<ele>99.709999</ele>
<time>2024-03-24T12:19:59.266Z</time>
</trkpt>
<trkpt lat="31.4235700" lon="34.5693600">
<ele>98.910004</ele>
<time>2024-03-24T12:19:59.266Z</time>
</trkpt>
<trkpt lat="31.4234400" lon="34.5694400">
<ele>96.250008</ele>
<time>2024-03-24T12:19:59.266Z</time>
</trkpt>
<trkpt lat="31.4233700" lon="34.5694500">
<ele>95.350006</ele>
<time>2024-03-24T12:19:59.266Z</time>
</trkpt>
<trkpt lat="31.4232600" lon="34.5693500">
<ele>98.339996</ele>
<time>2024-03-24T12:19:59.266Z</time>
</trkpt>
<trkpt lat="31.4231900" lon="34.5691500">
<ele>102.540001</ele>
<time>2024-03-24T12:19:59.266Z</time>
</trkpt>
<trkpt lat="31.4231900" lon="34.5691500">
<ele>102.540001</ele>
<time>2024-03-24T12:19:59.266Z</time>
</trkpt>
<trkpt lat="31.4230900" lon="34.5689100">
<ele>102.299995</ele>
<time>2024-03-24T12:19:59.266Z</time>
</trkpt>
<trkpt lat="31.4229700" lon="34.5687200">
<ele>102.680000</ele>
<time>2024-03-24T12:19:59.266Z</time>
</trkpt>
<trkpt lat="31.4221200" lon="34.5680200">
<ele>105.739998</ele>
<time>2024-03-24T12:19:59.266Z</time>
</trkpt>
<trkpt lat="31.4220500" lon="34.5679400">
<ele>103.480003</ele>
<time>2024-03-24T12:19:59.266Z</time>
</trkpt>
<trkpt lat="31.4218800" lon="34.5677500">
<ele>100.000000</ele>
<time>2024-03-24T12:19:59.266Z</time>
</trkpt>
<trkpt lat="31.4217900" lon="34.5676300">
<ele>98.390007</ele>
<time>2024-03-24T12:19:59.266Z</time>
</trkpt>
<trkpt lat="31.4217200" lon="34.5675000">
<ele>97.810005</ele>
<time>2024-03-24T12:19:59.266Z</time>
</trkpt>
<trkpt lat="31.4216700" lon="34.5673800">
<ele>97.170006</ele>
<time>2024-03-24T12:19:59.266Z</time>
</trkpt>
<trkpt lat="31.4216300" lon="34.5672100">
<ele>96.029999</ele>
<time>2024-03-24T12:19:59.266Z</time>
</trkpt>
<trkpt lat="31.4216200" lon="34.5671100">
<ele>96.339996</ele>
<time>2024-03-24T12:19:59.266Z</time>
</trkpt>
<trkpt lat="31.4216300" lon="34.5670000">
<ele>96.529999</ele>
<time>2024-03-24T12:19:59.266Z</time>
</trkpt>
<trkpt lat="31.4216700" lon="34.5669200">
<ele>96.260002</ele>
<time>2024-03-24T12:19:59.266Z</time>
</trkpt>
<trkpt lat="31.4219600" lon="34.5669400">
<ele>95.439995</ele>
<time>2024-03-24T12:19:59.266Z</time>
</trkpt>
<trkpt lat="31.4222900" lon="34.5669300">
<ele>98.400002</ele>
<time>2024-03-24T12:19:59.266Z</time>
</trkpt>
<trkpt lat="31.4223000" lon="34.5669300">
<ele>98.059998</ele>
<time>2024-03-24T12:19:59.266Z</time>
</trkpt>
<trkpt lat="31.4223300" lon="34.5667500">
<ele>95.790001</ele>
<time>2024-03-24T12:19:59.266Z</time>
</trkpt>
<trkpt lat="31.4224500" lon="34.5664500">
<ele>95.279999</ele>
<time>2024-03-24T12:19:59.266Z</time>
</trkpt>
<trkpt lat="31.4224700" lon="34.5662600">
<ele>95.009995</ele>
<time>2024-03-24T12:19:59.266Z</time>
</trkpt>
<trkpt lat="31.4223700" lon="34.5662000">
<ele>96.679993</ele>
<time>2024-03-24T12:19:59.266Z</time>
</trkpt>
<trkpt lat="31.4222200" lon="34.5660700">
<ele>100.180000</ele>
<time>2024-03-24T12:19:59.266Z</time>
</trkpt>
<trkpt lat="31.4221200" lon="34.5659300">
<ele>102.360001</ele>
<time>2024-03-24T12:19:59.266Z</time>
</trkpt>
<trkpt lat="31.4219100" lon="34.5657800">
<ele>105.710007</ele>
<time>2024-03-24T12:19:59.266Z</time>
</trkpt>
<trkpt lat="31.4217800" lon="34.5656000">
<ele>106.310005</ele>
<time>2024-03-24T12:19:59.266Z</time>
</trkpt>
<trkpt lat="31.4217500" lon="34.5655700">
<ele>106.760002</ele>
<time>2024-03-24T12:19:59.266Z</time>
</trkpt>
<trkpt lat="31.4217500" lon="34.5655700">
<ele>106.760002</ele>
<time>2024-03-24T12:19:59.266Z</time>
</trkpt>
<trkpt lat="31.4216700" lon="34.5654400">
<ele>107.120003</ele>
<time>2024-03-24T12:19:59.266Z</time>
</trkpt>
<trkpt lat="31.4215100" lon="34.5653700">
<ele>109.299995</ele>
<time>2024-03-24T12:19:59.266Z</time>
</trkpt>
<trkpt lat="31.4213200" lon="34.5651400">
<ele>109.759995</ele>
<time>2024-03-24T12:19:59.266Z</time>
</trkpt>
<trkpt lat="31.4210700" lon="34.5647600">
<ele>106.599998</ele>
<time>2024-03-24T12:19:59.266Z</time>
</trkpt>
<trkpt lat="31.4208900" lon="34.5644400">
<ele>94.639999</ele>
<time>2024-03-24T12:19:59.266Z</time>
</trkpt>
<trkpt lat="31.4208000" lon="34.5639500">
<ele>90.860001</ele>
<time>2024-03-24T12:19:59.266Z</time>
</trkpt>
<trkpt lat="31.4207500" lon="34.5637900">
<ele>90.080002</ele>
<time>2024-03-24T12:19:59.266Z</time>
</trkpt>
<trkpt lat="31.4205700" lon="34.5637200">
<ele>90.439995</ele>
<time>2024-03-24T12:19:59.266Z</time>
</trkpt>
<trkpt lat="31.4204600" lon="34.5636600">
<ele>91.599998</ele>
<time>2024-03-24T12:19:59.266Z</time>
</trkpt>
<trkpt lat="31.4202500" lon="34.5635000">
<ele>93.520004</ele>
<time>2024-03-24T12:19:59.266Z</time>
</trkpt>
<trkpt lat="31.4200700" lon="34.5634500">
<ele>95.860001</ele>
<time>2024-03-24T12:19:59.266Z</time>
</trkpt>
<trkpt lat="31.4199600" lon="34.5632800">
<ele>97.099998</ele>
<time>2024-03-24T12:19:59.266Z</time>
</trkpt>
<trkpt lat="31.4197600" lon="34.5631100">
<ele>97.920006</ele>
<time>2024-03-24T12:19:59.266Z</time>
</trkpt>
<trkpt lat="31.4194800" lon="34.5630400">
<ele>99.699997</ele>
<time>2024-03-24T12:19:59.266Z</time>
</trkpt>
<trkpt lat="31.4193800" lon="34.5630000">
<ele>99.290001</ele>
<time>2024-03-24T12:19:59.266Z</time>
</trkpt>
<trkpt lat="31.4192900" lon="34.5629700">
<ele>98.410004</ele>
<time>2024-03-24T12:19:59.266Z</time>
</trkpt>
<trkpt lat="31.4191800" lon="34.5628900">
<ele>96.930000</ele>
<time>2024-03-24T12:19:59.266Z</time>
</trkpt>
<trkpt lat="31.4191100" lon="34.5627300">
<ele>96.410004</ele>
<time>2024-03-24T12:19:59.266Z</time>
</trkpt>
<trkpt lat="31.4190900" lon="34.5626000">
<ele>96.550003</ele>
<time>2024-03-24T12:19:59.266Z</time>
</trkpt>
<trkpt lat="31.4191600" lon="34.5624900">
<ele>96.189995</ele>
<time>2024-03-24T12:19:59.266Z</time>
</trkpt>
<trkpt lat="31.4192200" lon="34.5623600">
<ele>98.500000</ele>
<time>2024-03-24T12:19:59.266Z</time>
</trkpt>
<trkpt lat="31.4190700" lon="34.5622700">
<ele>99.719994</ele>
<time>2024-03-24T12:19:59.266Z</time>
</trkpt>
<trkpt lat="31.4188100" lon="34.5621300">
<ele>99.480003</ele>
<time>2024-03-24T12:19:59.266Z</time>
</trkpt>
<trkpt lat="31.4187000" lon="34.5619200">
<ele>95.520004</ele>
<time>2024-03-24T12:19:59.266Z</time>
</trkpt>
<trkpt lat="31.4185000" lon="34.5615800">
<ele>95.849998</ele>
<time>2024-03-24T12:19:59.266Z</time>
</trkpt>
<trkpt lat="31.4182900" lon="34.5613500">
<ele>96.090004</ele>
<time>2024-03-24T12:19:59.266Z</time>
</trkpt>
<trkpt lat="31.4181200" lon="34.5612100">
<ele>92.269997</ele>
<time>2024-03-24T12:19:59.266Z</time>
</trkpt>
<trkpt lat="31.4181000" lon="34.5610600">
<ele>90.300003</ele>
<time>2024-03-24T12:19:59.266Z</time>
</trkpt>
<trkpt lat="31.4179800" lon="34.5609500">
<ele>88.570000</ele>
<time>2024-03-24T12:19:59.266Z</time>
</trkpt>
<trkpt lat="31.4178400" lon="34.5609500">
<ele>88.060005</ele>
<time>2024-03-24T12:19:59.266Z</time>
</trkpt>
<trkpt lat="31.4177200" lon="34.5608600">
<ele>87.529999</ele>
<time>2024-03-24T12:19:59.266Z</time>
</trkpt>
<trkpt lat="31.4176000" lon="34.5606900">
<ele>89.790001</ele>
<time>2024-03-24T12:19:59.266Z</time>
</trkpt>
<trkpt lat="31.4175800" lon="34.5606600">
<ele>90.379997</ele>
<time>2024-03-24T12:19:59.266Z</time>
</trkpt>
<trkpt lat="31.4175300" lon="34.5606300">
<ele>91.470001</ele>
<time>2024-03-24T12:19:59.266Z</time>
</trkpt>
<trkpt lat="31.4174900" lon="34.5604800">
<ele>92.109993</ele>
<time>2024-03-24T12:19:59.266Z</time>
</trkpt>
<trkpt lat="31.4175400" lon="34.5603100">
<ele>89.130005</ele>
<time>2024-03-24T12:19:59.266Z</time>
</trkpt>
<trkpt lat="31.4174500" lon="34.5600400">
<ele>90.650002</ele>
<time>2024-03-24T12:19:59.266Z</time>
</trkpt>
<trkpt lat="31.4174000" lon="34.5598900">
<ele>91.580002</ele>
<time>2024-03-24T12:19:59.266Z</time>
</trkpt>
<trkpt lat="31.4172500" lon="34.5596100">
<ele>94.459999</ele>
<time>2024-03-24T12:19:59.266Z</time>
</trkpt>
<trkpt lat="31.4171500" lon="34.5593500">
<ele>94.059998</ele>
<time>2024-03-24T12:19:59.266Z</time>
</trkpt>
<trkpt lat="31.4170700" lon="34.5592300">
<ele>92.910004</ele>
<time>2024-03-24T12:19:59.266Z</time>
</trkpt>
<trkpt lat="31.4169300" lon="34.5590700">
<ele>91.099998</ele>
<time>2024-03-24T12:19:59.266Z</time>
</trkpt>
<trkpt lat="31.4168300" lon="34.5589000">
<ele>89.209999</ele>
<time>2024-03-24T12:19:59.266Z</time>
</trkpt>
<trkpt lat="31.4167200" lon="34.5587200">
<ele>90.349998</ele>
<time>2024-03-24T12:19:59.266Z</time>
</trkpt>
<trkpt lat="31.4167600" lon="34.5586000">
<ele>91.509995</ele>
<time>2024-03-24T12:19:59.266Z</time>
</trkpt>
<trkpt lat="31.4167900" lon="34.5584700">
<ele>93.430000</ele>
<time>2024-03-24T12:19:59.266Z</time>
</trkpt>
<trkpt lat="31.4167700" lon="34.5584300">
<ele>94.270004</ele>
<time>2024-03-24T12:19:59.266Z</time>
</trkpt>
<trkpt lat="31.4166700" lon="34.5584000">
<ele>95.769997</ele>
<time>2024-03-24T12:19:59.266Z</time>
</trkpt>
<trkpt lat="31.4165200" lon="34.5584300">
<ele>96.500000</ele>
<time>2024-03-24T12:19:59.266Z</time>
</trkpt>
<trkpt lat="31.4163600" lon="34.5585100">
<ele>96.479996</ele>
<time>2024-03-24T12:19:59.266Z</time>
</trkpt>
<trkpt lat="31.4163300" lon="34.5584600">
<ele>97.160004</ele>
<time>2024-03-24T12:19:59.266Z</time>
</trkpt>
<trkpt lat="31.4162400" lon="34.5583000">
<ele>98.889999</ele>
<time>2024-03-24T12:19:59.266Z</time>
</trkpt>
<trkpt lat="31.4161500" lon="34.5581600">
<ele>100.550003</ele>
<time>2024-03-24T12:19:59.266Z</time>
</trkpt>
<trkpt lat="31.4160300" lon="34.5579900">
<ele>101.070000</ele>
<time>2024-03-24T12:19:59.266Z</time>
</trkpt>
<trkpt lat="31.4159200" lon="34.5577600">
<ele>100.419998</ele>
<time>2024-03-24T12:19:59.266Z</time>
</trkpt>
<trkpt lat="31.4155500" lon="34.5575600">
<ele>94.820000</ele>
<time>2024-03-24T12:19:59.266Z</time>
</trkpt>
<trkpt lat="31.4152700" lon="34.5574200">
<ele>90.220001</ele>
<time>2024-03-24T12:19:59.266Z</time>
</trkpt>
<trkpt lat="31.4151700" lon="34.5572800">
<ele>89.400002</ele>
<time>2024-03-24T12:19:59.266Z</time>
</trkpt>
<trkpt lat="31.4152000" lon="34.5571600">
<ele>90.549995</ele>
<time>2024-03-24T12:19:59.266Z</time>
</trkpt>
<trkpt lat="31.4153600" lon="34.5570200">
<ele>94.770004</ele>
<time>2024-03-24T12:19:59.266Z</time>
</trkpt>
<trkpt lat="31.4153500" lon="34.5568600">
<ele>95.790001</ele>
<time>2024-03-24T12:19:59.266Z</time>
</trkpt>
<trkpt lat="31.4152900" lon="34.5567200">
<ele>96.529999</ele>
<time>2024-03-24T12:19:59.266Z</time>
</trkpt>
<trkpt lat="31.4151600" lon="34.5566400">
<ele>95.239998</ele>
<time>2024-03-24T12:19:59.266Z</time>
</trkpt>
<trkpt lat="31.4150900" lon="34.5565700">
<ele>93.700005</ele>
<time>2024-03-24T12:19:59.266Z</time>
</trkpt>
<trkpt lat="31.4151200" lon="34.5565000">
<ele>93.960007</ele>
<time>2024-03-24T12:19:59.266Z</time>
</trkpt>
<trkpt lat="31.4151300" lon="34.5564200">
<ele>93.870003</ele>
<time>2024-03-24T12:19:59.266Z</time>
</trkpt>
<trkpt lat="31.4151100" lon="34.5563000">
<ele>92.269997</ele>
<time>2024-03-24T12:19:59.266Z</time>
</trkpt>
<trkpt lat="31.4150900" lon="34.5562800">
<ele>91.550003</ele>
<time>2024-03-24T12:19:59.266Z</time>
</trkpt>
<trkpt lat="31.4151000" lon="34.5562400">
<ele>91.419998</ele>
<time>2024-03-24T12:19:59.266Z</time>
</trkpt>
<trkpt lat="31.4150900" lon="34.5561800">
<ele>90.599998</ele>
<time>2024-03-24T12:19:59.266Z</time>
</trkpt>
<trkpt lat="31.4150000" lon="34.5560400">
<ele>87.999992</ele>
<time>2024-03-24T12:19:59.266Z</time>
</trkpt>
<trkpt lat="31.4150400" lon="34.5557300">
<ele>88.559998</ele>
<time>2024-03-24T12:19:59.266Z</time>
</trkpt>
<trkpt lat="31.4152400" lon="34.5555200">
<ele>89.599998</ele>
<time>2024-03-24T12:19:59.266Z</time>
</trkpt>
<trkpt lat="31.4152300" lon="34.5552500">
<ele>88.490005</ele>
<time>2024-03-24T12:19:59.266Z</time>
</trkpt>
<trkpt lat="31.4151700" lon="34.5550200">
<ele>87.089996</ele>
<time>2024-03-24T12:19:59.266Z</time>
</trkpt>
<trkpt lat="31.4152100" lon="34.5547900">
<ele>85.669998</ele>
<time>2024-03-24T12:19:59.266Z</time>
</trkpt>
<trkpt lat="31.4153100" lon="34.5545500">
<ele>85.029999</ele>
<time>2024-03-24T12:19:59.266Z</time>
</trkpt>
<trkpt lat="31.4153100" lon="34.5544300">
<ele>84.690002</ele>
<time>2024-03-24T12:19:59.266Z</time>
</trkpt>
<trkpt lat="31.4152500" lon="34.5542300">
<ele>84.120003</ele>
<time>2024-03-24T12:19:59.266Z</time>
</trkpt>
<trkpt lat="31.4151000" lon="34.5537800">
<ele>86.030006</ele>
<time>2024-03-24T12:19:59.266Z</time>
</trkpt>
<trkpt lat="31.4151300" lon="34.5534900">
<ele>86.500008</ele>
<time>2024-03-24T12:19:59.266Z</time>
</trkpt>
<trkpt lat="31.4152600" lon="34.5532400">
<ele>87.610001</ele>
<time>2024-03-24T12:19:59.266Z</time>
</trkpt>
<trkpt lat="31.4152600" lon="34.5532400">
<ele>87.610001</ele>
<time>2024-03-24T12:19:59.266Z</time>
</trkpt>
<trkpt lat="31.4153000" lon="34.5531800">
<ele>88.260002</ele>
<time>2024-03-24T12:19:59.266Z</time>
</trkpt>
<trkpt lat="31.4153700" lon="34.5530100">
<ele>89.989998</ele>
<time>2024-03-24T12:19:59.266Z</time>
</trkpt>
<trkpt lat="31.4151700" lon="34.5526800">
<ele>92.940002</ele>
<time>2024-03-24T12:19:59.266Z</time>
</trkpt>
<trkpt lat="31.4148900" lon="34.5525000">
<ele>96.000000</ele>
<time>2024-03-24T12:19:59.266Z</time>
</trkpt>
<trkpt lat="31.4146800" lon="34.5523200">
<ele>96.139999</ele>
<time>2024-03-24T12:19:59.266Z</time>
</trkpt>
<trkpt lat="31.4144400" lon="34.5521300">
<ele>96.610001</ele>
<time>2024-03-24T12:19:59.266Z</time>
</trkpt>
<trkpt lat="31.4140900" lon="34.5518900">
<ele>91.639999</ele>
<time>2024-03-24T12:19:59.266Z</time>
</trkpt>
<trkpt lat="31.4138100" lon="34.5517700">
<ele>96.639999</ele>
<time>2024-03-24T12:19:59.266Z</time>
</trkpt>
<trkpt lat="31.4137000" lon="34.5515800">
<ele>97.549995</ele>
<time>2024-03-24T12:19:59.266Z</time>
</trkpt>
<trkpt lat="31.4135700" lon="34.5514400">
<ele>98.459999</ele>
<time>2024-03-24T12:19:59.266Z</time>
</trkpt>
<trkpt lat="31.4134400" lon="34.5510300">
<ele>86.810005</ele>
<time>2024-03-24T12:19:59.266Z</time>
</trkpt>
<trkpt lat="31.4133900" lon="34.5508300">
<ele>83.209999</ele>
<time>2024-03-24T12:19:59.266Z</time>
</trkpt>
<trkpt lat="31.4134500" lon="34.5507700">
<ele>84.099998</ele>
<time>2024-03-24T12:19:59.266Z</time>
</trkpt>
<trkpt lat="31.4135700" lon="34.5509300">
<ele>88.989998</ele>
<time>2024-03-24T12:19:59.266Z</time>
</trkpt>
<trkpt lat="31.4136300" lon="34.5509100">
<ele>89.769997</ele>
<time>2024-03-24T12:19:59.266Z</time>
</trkpt>
<trkpt lat="31.4136800" lon="34.5507500">
<ele>87.740005</ele>
<time>2024-03-24T12:19:59.266Z</time>
</trkpt>
<trkpt lat="31.4138000" lon="34.5506300">
<ele>88.159996</ele>
<time>2024-03-24T12:19:59.266Z</time>
</trkpt>
<trkpt lat="31.4138300" lon="34.5503500">
<ele>89.900002</ele>
<time>2024-03-24T12:19:59.266Z</time>
</trkpt>
<trkpt lat="31.4137200" lon="34.5496500">
<ele>86.000000</ele>
<time>2024-03-24T12:19:59.266Z</time>
</trkpt>
<trkpt lat="31.4135700" lon="34.5494900">
<ele>86.939995</ele>
<time>2024-03-24T12:19:59.266Z</time>
</trkpt>
<trkpt lat="31.4134700" lon="34.5494200">
<ele>88.020004</ele>
<time>2024-03-24T12:19:59.266Z</time>
</trkpt>
<trkpt lat="31.4135200" lon="34.5492600">
<ele>87.659996</ele>
<time>2024-03-24T12:19:59.266Z</time>
</trkpt>
<trkpt lat="31.4136900" lon="34.5491700">
<ele>87.000000</ele>
<time>2024-03-24T12:19:59.266Z</time>
</trkpt>
<trkpt lat="31.4137300" lon="34.5489300">
<ele>86.510002</ele>
<time>2024-03-24T12:19:59.266Z</time>
</trkpt>
<trkpt lat="31.4136700" lon="34.5488200">
<ele>85.470001</ele>
<time>2024-03-24T12:19:59.266Z</time>
</trkpt>
<trkpt lat="31.4136100" lon="34.5486800">
<ele>83.739998</ele>
<time>2024-03-24T12:19:59.266Z</time>
</trkpt>
<trkpt lat="31.4137200" lon="34.5482700">
<ele>82.250000</ele>
<time>2024-03-24T12:19:59.266Z</time>
</trkpt>
<trkpt lat="31.4139200" lon="34.5479000">
<ele>83.830002</ele>
<time>2024-03-24T12:19:59.266Z</time>
</trkpt>
<trkpt lat="31.4140700" lon="34.5475200">
<ele>83.180000</ele>
<time>2024-03-24T12:19:59.266Z</time>
</trkpt>
<trkpt lat="31.4139700" lon="34.5472800">
<ele>86.960007</ele>
<time>2024-03-24T12:19:59.266Z</time>
</trkpt>
<trkpt lat="31.4137600" lon="34.5469200">
<ele>91.060005</ele>
<time>2024-03-24T12:19:59.266Z</time>
</trkpt>
<trkpt lat="31.4134600" lon="34.5465400">
<ele>90.529999</ele>
<time>2024-03-24T12:19:59.266Z</time>
</trkpt>
<trkpt lat="31.4133600" lon="34.5462600">
<ele>87.549995</ele>
<time>2024-03-24T12:19:59.266Z</time>
</trkpt>
<trkpt lat="31.4133600" lon="34.5458600">
<ele>85.139999</ele>
<time>2024-03-24T12:19:59.266Z</time>
</trkpt>
<trkpt lat="31.4132900" lon="34.5456100">
<ele>81.780006</ele>
<time>2024-03-24T12:19:59.266Z</time>
</trkpt>
<trkpt lat="31.4132500" lon="34.5454500">
<ele>82.479996</ele>
<time>2024-03-24T12:19:59.266Z</time>
</trkpt>
<trkpt lat="31.4132200" lon="34.5449400">
<ele>84.339996</ele>
<time>2024-03-24T12:19:59.266Z</time>
</trkpt>
<trkpt lat="31.4131900" lon="34.5446300">
<ele>83.719994</ele>
<time>2024-03-24T12:19:59.266Z</time>
</trkpt>
<trkpt lat="31.4129400" lon="34.5444000">
<ele>87.560005</ele>
<time>2024-03-24T12:19:59.266Z</time>
</trkpt>
<trkpt lat="31.4126700" lon="34.5442000">
<ele>86.670006</ele>
<time>2024-03-24T12:19:59.266Z</time>
</trkpt>
<trkpt lat="31.4125200" lon="34.5441800">
<ele>85.120003</ele>
<time>2024-03-24T12:19:59.266Z</time>
</trkpt>
<trkpt lat="31.4123500" lon="34.5439800">
<ele>82.129997</ele>
<time>2024-03-24T12:19:59.266Z</time>
</trkpt>
<trkpt lat="31.4120800" lon="34.5438400">
<ele>79.030006</ele>
<time>2024-03-24T12:19:59.266Z</time>
</trkpt>
<trkpt lat="31.4118900" lon="34.5437100">
<ele>81.299995</ele>
<time>2024-03-24T12:19:59.266Z</time>
</trkpt>
<trkpt lat="31.4117000" lon="34.5433500">
<ele>82.479996</ele>
<time>2024-03-24T12:19:59.266Z</time>
</trkpt>
<trkpt lat="31.4114500" lon="34.5429100">
<ele>84.949997</ele>
<time>2024-03-24T12:19:59.266Z</time>
</trkpt>
<trkpt lat="31.4112000" lon="34.5427800">
<ele>86.970001</ele>
<time>2024-03-24T12:19:59.266Z</time>
</trkpt>
<trkpt lat="31.4109000" lon="34.5425100">
<ele>81.340004</ele>
<time>2024-03-24T12:19:59.266Z</time>
</trkpt>
<trkpt lat="31.4107400" lon="34.5421400">
<ele>81.480003</ele>
<time>2024-03-24T12:19:59.266Z</time>
</trkpt>
<trkpt lat="31.4107100" lon="34.5419400">
<ele>82.180000</ele>
<time>2024-03-24T12:19:59.266Z</time>
</trkpt>
<trkpt lat="31.4107600" lon="34.5418300">
<ele>82.010002</ele>
<time>2024-03-24T12:19:59.266Z</time>
</trkpt>
<trkpt lat="31.4108400" lon="34.5415000">
<ele>80.139999</ele>
<time>2024-03-24T12:19:59.266Z</time>
</trkpt>
<trkpt lat="31.4108800" lon="34.5412000">
<ele>79.169998</ele>
<time>2024-03-24T12:19:59.266Z</time>
</trkpt>
<trkpt lat="31.4109400" lon="34.5409100">
<ele>80.639999</ele>
<time>2024-03-24T12:19:59.266Z</time>
</trkpt>
<trkpt lat="31.4109800" lon="34.5405700">
<ele>80.889999</ele>
<time>2024-03-24T12:19:59.266Z</time>
</trkpt>
<trkpt lat="31.4110900" lon="34.5402800">
<ele>77.239998</ele>
<time>2024-03-24T12:19:59.266Z</time>
</trkpt>
<trkpt lat="31.4109600" lon="34.5399700">
<ele>77.040001</ele>
<time>2024-03-24T12:19:59.266Z</time>
</trkpt>
<trkpt lat="31.4106800" lon="34.5395200">
<ele>82.220001</ele>
<time>2024-03-24T12:19:59.266Z</time>
</trkpt>
<trkpt lat="31.4105800" lon="34.5391900">
<ele>88.389999</ele>
<time>2024-03-24T12:19:59.266Z</time>
</trkpt>
<trkpt lat="31.4103900" lon="34.5388400">
<ele>83.140007</ele>
<time>2024-03-24T12:19:59.266Z</time>
</trkpt>
<trkpt lat="31.4101200" lon="34.5385800">
<ele>83.610001</ele>
<time>2024-03-24T12:19:59.266Z</time>
</trkpt>
<trkpt lat="31.4098100" lon="34.5383800">
<ele>77.269997</ele>
<time>2024-03-24T12:19:59.266Z</time>
</trkpt>
<trkpt lat="31.4097700" lon="34.5383100">
<ele>75.410004</ele>
<time>2024-03-24T12:19:59.266Z</time>
</trkpt>
<trkpt lat="31.4097000" lon="34.5381900">
<ele>73.610001</ele>
<time>2024-03-24T12:19:59.266Z</time>
</trkpt>
<trkpt lat="31.4095100" lon="34.5380500">
<ele>74.239998</ele>
<time>2024-03-24T12:19:59.266Z</time>
</trkpt>
<trkpt lat="31.4093200" lon="34.5379300">
<ele>77.180000</ele>
<time>2024-03-24T12:19:59.266Z</time>
</trkpt>
<trkpt lat="31.4091400" lon="34.5376100">
<ele>81.139999</ele>
<time>2024-03-24T12:19:59.266Z</time>
</trkpt>
<trkpt lat="31.4089500" lon="34.5373600">
<ele>83.620003</ele>
<time>2024-03-24T12:19:59.266Z</time>
</trkpt>
<trkpt lat="31.4089400" lon="34.5372700">
<ele>83.970001</ele>
<time>2024-03-24T12:19:59.266Z</time>
</trkpt>
<trkpt lat="31.4089100" lon="34.5370900">
<ele>84.730003</ele>
<time>2024-03-24T12:19:59.266Z</time>
</trkpt>
<trkpt lat="31.4088500" lon="34.5370400">
<ele>85.239998</ele>
<time>2024-03-24T12:19:59.266Z</time>
</trkpt>
<trkpt lat="31.4086800" lon="34.5369500">
<ele>85.079994</ele>
<time>2024-03-24T12:19:59.266Z</time>
</trkpt>
<trkpt lat="31.4084700" lon="34.5367700">
<ele>80.379997</ele>
<time>2024-03-24T12:19:59.266Z</time>
</trkpt>
<trkpt lat="31.4082700" lon="34.5365900">
<ele>75.040001</ele>
<time>2024-03-24T12:19:59.266Z</time>
</trkpt>
<trkpt lat="31.4080700" lon="34.5363700">
<ele>77.630005</ele>
<time>2024-03-24T12:19:59.266Z</time>
</trkpt>
<trkpt lat="31.4079600" lon="34.5362300">
<ele>79.980003</ele>
<time>2024-03-24T12:19:59.266Z</time>
</trkpt>
<trkpt lat="31.4077200" lon="34.5360000">
<ele>82.979996</ele>
<time>2024-03-24T12:19:59.266Z</time>
</trkpt>
<trkpt lat="31.4076600" lon="34.5359200">
<ele>82.680008</ele>
<time>2024-03-24T12:19:59.266Z</time>
</trkpt>
<trkpt lat="31.4075900" lon="34.5358200">
<ele>82.700005</ele>
<time>2024-03-24T12:19:59.266Z</time>
</trkpt>
<trkpt lat="31.4075000" lon="34.5357100">
<ele>84.000000</ele>
<time>2024-03-24T12:19:59.266Z</time>
</trkpt>
<trkpt lat="31.4073900" lon="34.5355800">
<ele>84.789993</ele>
<time>2024-03-24T12:19:59.266Z</time>
</trkpt>
<trkpt lat="31.4073100" lon="34.5355000">
<ele>85.519997</ele>
<time>2024-03-24T12:19:59.266Z</time>
</trkpt>
<trkpt lat="31.4072200" lon="34.5353900">
<ele>87.209999</ele>
<time>2024-03-24T12:19:59.266Z</time>
</trkpt>
<trkpt lat="31.4071100" lon="34.5353000">
<ele>88.959999</ele>
<time>2024-03-24T12:19:59.266Z</time>
</trkpt>
<trkpt lat="31.4070000" lon="34.5351800">
<ele>91.099998</ele>
<time>2024-03-24T12:19:59.266Z</time>
</trkpt>
<trkpt lat="31.4068800" lon="34.5350500">
<ele>93.019997</ele>
<time>2024-03-24T12:19:59.266Z</time>
</trkpt>
<trkpt lat="31.4067100" lon="34.5349400">
<ele>94.220001</ele>
<time>2024-03-24T12:19:59.266Z</time>
</trkpt>
<trkpt lat="31.4065200" lon="34.5348200">
<ele>92.620003</ele>
<time>2024-03-24T12:19:59.266Z</time>
</trkpt>
<trkpt lat="31.4064000" lon="34.5346900">
<ele>91.690002</ele>
<time>2024-03-24T12:19:59.266Z</time>
</trkpt>
<trkpt lat="31.4063600" lon="34.5344900">
<ele>89.250000</ele>
<time>2024-03-24T12:19:59.266Z</time>
</trkpt>
<trkpt lat="31.4063100" lon="34.5341600">
<ele>79.970001</ele>
<time>2024-03-24T12:19:59.266Z</time>
</trkpt>
<trkpt lat="31.4063100" lon="34.5337400">
<ele>79.980003</ele>
<time>2024-03-24T12:19:59.266Z</time>
</trkpt>
<trkpt lat="31.4063500" lon="34.5335600">
<ele>81.579994</ele>
<time>2024-03-24T12:19:59.266Z</time>
</trkpt>
<trkpt lat="31.4063100" lon="34.5334300">
<ele>78.450005</ele>
<time>2024-03-24T12:19:59.266Z</time>
</trkpt>
<trkpt lat="31.4062100" lon="34.5333200">
<ele>78.010002</ele>
<time>2024-03-24T12:19:59.266Z</time>
</trkpt>
<trkpt lat="31.4061200" lon="34.5332000">
<ele>79.849998</ele>
<time>2024-03-24T12:19:59.266Z</time>
</trkpt>
<trkpt lat="31.4060400" lon="34.5331200">
<ele>80.599998</ele>
<time>2024-03-24T12:19:59.266Z</time>
</trkpt>
<trkpt lat="31.4058300" lon="34.5330600">
<ele>80.969994</ele>
<time>2024-03-24T12:19:59.266Z</time>
</trkpt>
<trkpt lat="31.4056300" lon="34.5329300">
<ele>82.580002</ele>
<time>2024-03-24T12:19:59.266Z</time>
</trkpt>
<trkpt lat="31.4056300" lon="34.5329300">
<ele>82.580002</ele>
<time>2024-03-24T12:19:59.266Z</time>
</trkpt>
<trkpt lat="31.4055900" lon="34.5329100">
<ele>83.340004</ele>
<time>2024-03-24T12:19:59.266Z</time>
</trkpt>
<trkpt lat="31.4054700" lon="34.5328000">
<ele>82.889999</ele>
<time>2024-03-24T12:19:59.266Z</time>
</trkpt>
<trkpt lat="31.4053800" lon="34.5327600">
<ele>79.040001</ele>
<time>2024-03-24T12:19:59.266Z</time>
</trkpt>
<trkpt lat="31.4052500" lon="34.5327700">
<ele>73.919998</ele>
<time>2024-03-24T12:19:59.266Z</time>
</trkpt>
<trkpt lat="31.4049900" lon="34.5327500">
<ele>65.919998</ele>
<time>2024-03-24T12:19:59.266Z</time>
</trkpt>
<trkpt lat="31.4047800" lon="34.5327200">
<ele>68.620003</ele>
<time>2024-03-24T12:19:59.266Z</time>
</trkpt>
<trkpt lat="31.4046400" lon="34.5326700">
<ele>71.300003</ele>
<time>2024-03-24T12:19:59.266Z</time>
</trkpt>
<trkpt lat="31.4045100" lon="34.5326100">
<ele>74.650002</ele>
<time>2024-03-24T12:19:59.266Z</time>
</trkpt>
<trkpt lat="31.4044300" lon="34.5324900">
<ele>78.110001</ele>
<time>2024-03-24T12:19:59.266Z</time>
</trkpt>
<trkpt lat="31.4043400" lon="34.5323000">
<ele>80.430000</ele>
<time>2024-03-24T12:19:59.266Z</time>
</trkpt>
<trkpt lat="31.4042000" lon="34.5319800">
<ele>85.719994</ele>
<time>2024-03-24T12:19:59.266Z</time>
</trkpt>
<trkpt lat="31.4039800" lon="34.5316300">
<ele>82.279999</ele>
<time>2024-03-24T12:19:59.266Z</time>
</trkpt>
<trkpt lat="31.4038800" lon="34.5314800">
<ele>82.000000</ele>
<time>2024-03-24T12:19:59.266Z</time>
</trkpt>
<trkpt lat="31.4038800" lon="34.5313100">
<ele>81.500000</ele>
<time>2024-03-24T12:19:59.266Z</time>
</trkpt>
<trkpt lat="31.4038500" lon="34.5312300">
<ele>81.320007</ele>
<time>2024-03-24T12:19:59.266Z</time>
</trkpt>
<trkpt lat="31.4037700" lon="34.5311400">
<ele>82.169998</ele>
<time>2024-03-24T12:19:59.266Z</time>
</trkpt>
<trkpt lat="31.4036900" lon="34.5310800">
<ele>83.360001</ele>
<time>2024-03-24T12:19:59.266Z</time>
</trkpt>
<trkpt lat="31.4036400" lon="34.5310600">
<ele>84.110001</ele>
<time>2024-03-24T12:19:59.266Z</time>
</trkpt>
<trkpt lat="31.4034400" lon="34.5310700">
<ele>85.229996</ele>
<time>2024-03-24T12:19:59.266Z</time>
</trkpt>
<trkpt lat="31.4032300" lon="34.5310800">
<ele>83.519997</ele>
<time>2024-03-24T12:19:59.266Z</time>
</trkpt>
<trkpt lat="31.4031000" lon="34.5310300">
<ele>80.570000</ele>
<time>2024-03-24T12:19:59.266Z</time>
</trkpt>
<trkpt lat="31.4028900" lon="34.5309000">
<ele>80.000000</ele>
<time>2024-03-24T12:19:59.266Z</time>
</trkpt>
<trkpt lat="31.4027500" lon="34.5308500">
<ele>80.580002</ele>
<time>2024-03-24T12:19:59.266Z</time>
</trkpt>
<trkpt lat="31.4026700" lon="34.5307500">
<ele>79.889999</ele>
<time>2024-03-24T12:19:59.266Z</time>
</trkpt>
<trkpt lat="31.4026300" lon="34.5305700">
<ele>79.970001</ele>
<time>2024-03-24T12:19:59.266Z</time>
</trkpt>
<trkpt lat="31.4025400" lon="34.5302100">
<ele>80.790001</ele>
<time>2024-03-24T12:19:59.266Z</time>
</trkpt>
<trkpt lat="31.4025100" lon="34.5300300">
<ele>80.040001</ele>
<time>2024-03-24T12:19:59.266Z</time>
</trkpt>
<trkpt lat="31.4025000" lon="34.5298500">
<ele>78.919998</ele>
<time>2024-03-24T12:19:59.266Z</time>
</trkpt>
<trkpt lat="31.4024400" lon="34.5296900">
<ele>78.559998</ele>
<time>2024-03-24T12:19:59.266Z</time>
</trkpt>
<trkpt lat="31.4024200" lon="34.5295300">
<ele>79.570000</ele>
<time>2024-03-24T12:19:59.266Z</time>
</trkpt>
<trkpt lat="31.4023700" lon="34.5293500">
<ele>81.749992</ele>
<time>2024-03-24T12:19:59.266Z</time>
</trkpt>
<trkpt lat="31.4022400" lon="34.5292000">
<ele>87.019997</ele>
<time>2024-03-24T12:19:59.266Z</time>
</trkpt>
<trkpt lat="31.4021300" lon="34.5291000">
<ele>87.049995</ele>
<time>2024-03-24T12:19:59.266Z</time>
</trkpt>
<trkpt lat="31.4019800" lon="34.5289800">
<ele>84.930000</ele>
<time>2024-03-24T12:19:59.266Z</time>
</trkpt>
<trkpt lat="31.4018500" lon="34.5289500">
<ele>82.550003</ele>
<time>2024-03-24T12:19:59.266Z</time>
</trkpt>
<trkpt lat="31.4017000" lon="34.5289000">
<ele>80.250008</ele>
<time>2024-03-24T12:19:59.266Z</time>
</trkpt>
<trkpt lat="31.4016500" lon="34.5287800">
<ele>82.509995</ele>
<time>2024-03-24T12:19:59.266Z</time>
</trkpt>
<trkpt lat="31.4015900" lon="34.5286600">
<ele>84.080002</ele>
<time>2024-03-24T12:19:59.266Z</time>
</trkpt>
<trkpt lat="31.4015600" lon="34.5284000">
<ele>79.510002</ele>
<time>2024-03-24T12:19:59.266Z</time>
</trkpt>
<trkpt lat="31.4015900" lon="34.5280700">
<ele>74.040001</ele>
<time>2024-03-24T12:19:59.266Z</time>
</trkpt>
<trkpt lat="31.4016200" lon="34.5278800">
<ele>72.450005</ele>
<time>2024-03-24T12:19:59.266Z</time>
</trkpt>
<trkpt lat="31.4016200" lon="34.5275900">
<ele>71.160004</ele>
<time>2024-03-24T12:19:59.266Z</time>
</trkpt>
<trkpt lat="31.4016600" lon="34.5273900">
<ele>69.700005</ele>
<time>2024-03-24T12:19:59.266Z</time>
</trkpt>
<trkpt lat="31.4016300" lon="34.5271800">
<ele>69.110001</ele>
<time>2024-03-24T12:19:59.266Z</time>
</trkpt>
<trkpt lat="31.4016500" lon="34.5268500">
<ele>66.559998</ele>
<time>2024-03-24T12:19:59.266Z</time>
</trkpt>
<trkpt lat="31.4017300" lon="34.5265200">
<ele>67.299995</ele>
<time>2024-03-24T12:19:59.266Z</time>
</trkpt>
<trkpt lat="31.4017800" lon="34.5262600">
<ele>70.500000</ele>
<time>2024-03-24T12:19:59.266Z</time>
</trkpt>
<trkpt lat="31.4018400" lon="34.5259400">
<ele>72.450005</ele>
<time>2024-03-24T12:19:59.266Z</time>
</trkpt>
<trkpt lat="31.4018400" lon="34.5258100">
<ele>73.349998</ele>
<time>2024-03-24T12:19:59.266Z</time>
</trkpt>
<trkpt lat="31.4018100" lon="34.5257000">
<ele>76.070000</ele>
<time>2024-03-24T12:19:59.266Z</time>
</trkpt>
<trkpt lat="31.4017700" lon="34.5254700">
<ele>80.590004</ele>
<time>2024-03-24T12:19:59.266Z</time>
</trkpt>
<trkpt lat="31.4017700" lon="34.5253700">
<ele>81.839996</ele>
<time>2024-03-24T12:19:59.266Z</time>
</trkpt>
<trkpt lat="31.4017400" lon="34.5252500">
<ele>83.150002</ele>
<time>2024-03-24T12:19:59.266Z</time>
</trkpt>
<trkpt lat="31.4016500" lon="34.5250900">
<ele>83.559998</ele>
<time>2024-03-24T12:19:59.266Z</time>
</trkpt>
<trkpt lat="31.4015700" lon="34.5248500">
<ele>80.930000</ele>
<time>2024-03-24T12:19:59.266Z</time>
</trkpt>
<trkpt lat="31.4015400" lon="34.5247000">
<ele>77.720001</ele>
<time>2024-03-24T12:19:59.266Z</time>
</trkpt>
<trkpt lat="31.4014700" lon="34.5244500">
<ele>71.809998</ele>
<time>2024-03-24T12:19:59.266Z</time>
</trkpt>
<trkpt lat="31.4014400" lon="34.5242200">
<ele>71.370003</ele>
<time>2024-03-24T12:19:59.266Z</time>
</trkpt>
<trkpt lat="31.4014400" lon="34.5241400">
<ele>71.129997</ele>
<time>2024-03-24T12:19:59.266Z</time>
</trkpt>
<trkpt lat="31.4014400" lon="34.5238500">
<ele>69.900002</ele>
<time>2024-03-24T12:19:59.266Z</time>
</trkpt>
<trkpt lat="31.4014700" lon="34.5237000">
<ele>69.250000</ele>
<time>2024-03-24T12:19:59.266Z</time>
</trkpt>
<trkpt lat="31.4015300" lon="34.5234200">
<ele>67.610001</ele>
<time>2024-03-24T12:19:59.266Z</time>
</trkpt>
<trkpt lat="31.4014900" lon="34.5233100">
<ele>68.050003</ele>
<time>2024-03-24T12:19:59.266Z</time>
</trkpt>
<trkpt lat="31.4010900" lon="34.5230700">
<ele>65.769997</ele>
<time>2024-03-24T12:19:59.266Z</time>
</trkpt>
<trkpt lat="31.4010400" lon="34.5229200">
<ele>63.020000</ele>
<time>2024-03-24T12:19:59.266Z</time>
</trkpt>
<trkpt lat="31.4010400" lon="34.5228800">
<ele>62.519997</ele>
<time>2024-03-24T12:19:59.266Z</time>
</trkpt>
<trkpt lat="31.4010500" lon="34.5226400">
<ele>61.669998</ele>
<time>2024-03-24T12:19:59.266Z</time>
</trkpt>
<trkpt lat="31.4010900" lon="34.5224000">
<ele>62.250000</ele>
<time>2024-03-24T12:19:59.266Z</time>
</trkpt>
<trkpt lat="31.4011300" lon="34.5222000">
<ele>63.240002</ele>
<time>2024-03-24T12:19:59.266Z</time>
</trkpt>
<trkpt lat="31.4012300" lon="34.5219700">
<ele>65.040001</ele>
<time>2024-03-24T12:19:59.266Z</time>
</trkpt>
<trkpt lat="31.4011700" lon="34.5218700">
<ele>66.900002</ele>
<time>2024-03-24T12:19:59.266Z</time>
</trkpt>
<trkpt lat="31.4010100" lon="34.5217100">
<ele>66.059998</ele>
<time>2024-03-24T12:19:59.266Z</time>
</trkpt>
<trkpt lat="31.4009600" lon="34.5214500">
<ele>65.760002</ele>
<time>2024-03-24T12:19:59.266Z</time>
</trkpt>
<trkpt lat="31.4009500" lon="34.5211600">
<ele>66.519997</ele>
<time>2024-03-24T12:19:59.266Z</time>
</trkpt>
<trkpt lat="31.4009300" lon="34.5209700">
<ele>66.220001</ele>
<time>2024-03-24T12:19:59.266Z</time>
</trkpt>
<trkpt lat="31.4007900" lon="34.5207600">
<ele>63.290001</ele>
<time>2024-03-24T12:19:59.266Z</time>
</trkpt>
<trkpt lat="31.4006800" lon="34.5207200">
<ele>61.750000</ele>
<time>2024-03-24T12:19:59.266Z</time>
</trkpt>
<trkpt lat="31.4005000" lon="34.5206100">
<ele>59.270000</ele>
<time>2024-03-24T12:19:59.266Z</time>
</trkpt>
<trkpt lat="31.4004400" lon="34.5205300">
<ele>57.750000</ele>
<time>2024-03-24T12:19:59.266Z</time>
</trkpt>
<trkpt lat="31.4005000" lon="34.5204300">
<ele>56.430000</ele>
<time>2024-03-24T12:19:59.266Z</time>
</trkpt>
<trkpt lat="31.4005800" lon="34.5203500">
<ele>55.259998</ele>
<time>2024-03-24T12:19:59.266Z</time>
</trkpt>
<trkpt lat="31.4007100" lon="34.5202200">
<ele>53.139999</ele>
<time>2024-03-24T12:19:59.266Z</time>
</trkpt>
<trkpt lat="31.4008300" lon="34.5200000">
<ele>51.999996</ele>
<time>2024-03-24T12:19:59.266Z</time>
</trkpt>
<trkpt lat="31.4009600" lon="34.5196500">
<ele>54.630001</ele>
<time>2024-03-24T12:19:59.266Z</time>
</trkpt>
<trkpt lat="31.4010500" lon="34.5195300">
<ele>55.039997</ele>
<time>2024-03-24T12:19:59.266Z</time>
</trkpt>
<trkpt lat="31.4012000" lon="34.5193700">
<ele>55.380001</ele>
<time>2024-03-24T12:19:59.266Z</time>
</trkpt>
<trkpt lat="31.4013600" lon="34.5190500">
<ele>57.389999</ele>
<time>2024-03-24T12:19:59.266Z</time>
</trkpt>
<trkpt lat="31.4015400" lon="34.5187100">
<ele>55.470001</ele>
<time>2024-03-24T12:19:59.266Z</time>
</trkpt>
<trkpt lat="31.4017000" lon="34.5184200">
<ele>54.199997</ele>
<time>2024-03-24T12:19:59.266Z</time>
</trkpt>
<trkpt lat="31.4018600" lon="34.5181700">
<ele>53.170002</ele>
<time>2024-03-24T12:19:59.266Z</time>
</trkpt>
<trkpt lat="31.4020100" lon="34.5179900">
<ele>47.290001</ele>
<time>2024-03-24T12:19:59.266Z</time>
</trkpt>
<trkpt lat="31.4021900" lon="34.5178500">
<ele>39.540001</ele>
<time>2024-03-24T12:19:59.266Z</time>
</trkpt>
<trkpt lat="31.4025300" lon="34.5176400">
<ele>43.219997</ele>
<time>2024-03-24T12:19:59.266Z</time>
</trkpt>
<trkpt lat="31.4028600" lon="34.5174400">
<ele>47.509998</ele>
<time>2024-03-24T12:19:59.266Z</time>
</trkpt>
<trkpt lat="31.4031000" lon="34.5173600">
<ele>49.709999</ele>
<time>2024-03-24T12:19:59.266Z</time>
</trkpt>
<trkpt lat="31.4032700" lon="34.5172400">
<ele>48.570000</ele>
<time>2024-03-24T12:19:59.266Z</time>
</trkpt>
<trkpt lat="31.4033900" lon="34.5169800">
<ele>53.080002</ele>
<time>2024-03-24T12:19:59.266Z</time>
</trkpt>
<trkpt lat="31.4034100" lon="34.5168200">
<ele>55.900002</ele>
<time>2024-03-24T12:19:59.266Z</time>
</trkpt>
<trkpt lat="31.4032800" lon="34.5167200">
<ele>57.849998</ele>
<time>2024-03-24T12:19:59.266Z</time>
</trkpt>
<trkpt lat="31.4030800" lon="34.5166100">
<ele>59.170002</ele>
<time>2024-03-24T12:19:59.266Z</time>
</trkpt>
<trkpt lat="31.4028800" lon="34.5164800">
<ele>56.719997</ele>
<time>2024-03-24T12:19:59.266Z</time>
</trkpt>
<trkpt lat="31.4027000" lon="34.5163500">
<ele>53.679996</ele>
<time>2024-03-24T12:19:59.266Z</time>
</trkpt>
<trkpt lat="31.4025300" lon="34.5161600">
<ele>51.250004</ele>
<time>2024-03-24T12:19:59.266Z</time>
</trkpt>
<trkpt lat="31.4025500" lon="34.5159600">
<ele>51.609997</ele>
<time>2024-03-24T12:19:59.266Z</time>
</trkpt>
<trkpt lat="31.4026100" lon="34.5157600">
<ele>51.660000</ele>
<time>2024-03-24T12:19:59.266Z</time>
</trkpt>
<trkpt lat="31.4026800" lon="34.5156600">
<ele>51.170002</ele>
<time>2024-03-24T12:19:59.266Z</time>
</trkpt>
<trkpt lat="31.4028100" lon="34.5155500">
<ele>49.960003</ele>
<time>2024-03-24T12:19:59.266Z</time>
</trkpt>
<trkpt lat="31.4030600" lon="34.5154100">
<ele>50.070000</ele>
<time>2024-03-24T12:19:59.266Z</time>
</trkpt>
<trkpt lat="31.4032100" lon="34.5153300">
<ele>51.980000</ele>
<time>2024-03-24T12:19:59.266Z</time>
</trkpt>
<trkpt lat="31.4035700" lon="34.5151100">
<ele>59.060001</ele>
<time>2024-03-24T12:19:59.266Z</time>
</trkpt>
<trkpt lat="31.4036600" lon="34.5149300">
<ele>62.680000</ele>
<time>2024-03-24T12:19:59.266Z</time>
</trkpt>
<trkpt lat="31.4036300" lon="34.5145600">
<ele>61.990002</ele>
<time>2024-03-24T12:19:59.266Z</time>
</trkpt>
<trkpt lat="31.4035700" lon="34.5142100">
<ele>57.200001</ele>
<time>2024-03-24T12:19:59.266Z</time>
</trkpt>
<trkpt lat="31.4035400" lon="34.5139600">
<ele>54.189999</ele>
<time>2024-03-24T12:19:59.266Z</time>
</trkpt>
<trkpt lat="31.4035400" lon="34.5137700">
<ele>52.100002</ele>
<time>2024-03-24T12:19:59.266Z</time>
</trkpt>
<trkpt lat="31.4036700" lon="34.5135800">
<ele>50.549999</ele>
<time>2024-03-24T12:19:59.266Z</time>
</trkpt>
<trkpt lat="31.4039400" lon="34.5132400">
<ele>52.449997</ele>
<time>2024-03-24T12:19:59.266Z</time>
</trkpt>
<trkpt lat="31.4041900" lon="34.5129700">
<ele>50.599998</ele>
<time>2024-03-24T12:19:59.266Z</time>
</trkpt>
<trkpt lat="31.4042700" lon="34.5127000">
<ele>54.080002</ele>
<time>2024-03-24T12:19:59.266Z</time>
</trkpt>
<trkpt lat="31.4042400" lon="34.5125600">
<ele>53.959999</ele>
<time>2024-03-24T12:19:59.266Z</time>
</trkpt>
<trkpt lat="31.4042100" lon="34.5124600">
<ele>53.709999</ele>
<time>2024-03-24T12:19:59.266Z</time>
</trkpt>
<trkpt lat="31.4042100" lon="34.5123000">
<ele>52.560001</ele>
<time>2024-03-24T12:19:59.266Z</time>
</trkpt>
<trkpt lat="31.4042400" lon="34.5121400">
<ele>51.550003</ele>
<time>2024-03-24T12:19:59.266Z</time>
</trkpt>
<trkpt lat="31.4042300" lon="34.5119900">
<ele>50.779999</ele>
<time>2024-03-24T12:19:59.266Z</time>
</trkpt>
<trkpt lat="31.4041100" lon="34.5119200">
<ele>50.209999</ele>
<time>2024-03-24T12:19:59.266Z</time>
</trkpt>
<trkpt lat="31.4039800" lon="34.5118500">
<ele>48.299999</ele>
<time>2024-03-24T12:19:59.266Z</time>
</trkpt>
<trkpt lat="31.4038500" lon="34.5117000">
<ele>45.880001</ele>
<time>2024-03-24T12:19:59.266Z</time>
</trkpt>
<trkpt lat="31.4038700" lon="34.5115100">
<ele>47.029999</ele>
<time>2024-03-24T12:19:59.266Z</time>
</trkpt>
<trkpt lat="31.4039200" lon="34.5113400">
<ele>47.760002</ele>
<time>2024-03-24T12:19:59.266Z</time>
</trkpt>
<trkpt lat="31.4039900" lon="34.5111800">
<ele>46.860001</ele>
<time>2024-03-24T12:19:59.266Z</time>
</trkpt>
<trkpt lat="31.4041200" lon="34.5111000">
<ele>46.830002</ele>
<time>2024-03-24T12:19:59.266Z</time>
</trkpt>
<trkpt lat="31.4042000" lon="34.5110300">
<ele>47.559998</ele>
<time>2024-03-24T12:19:59.266Z</time>
</trkpt>
<trkpt lat="31.4042300" lon="34.5108200">
<ele>47.910000</ele>
<time>2024-03-24T12:19:59.266Z</time>
</trkpt>
<trkpt lat="31.4042800" lon="34.5106800">
<ele>48.629997</ele>
<time>2024-03-24T12:19:59.266Z</time>
</trkpt>
<trkpt lat="31.4043000" lon="34.5105800">
<ele>48.919998</ele>
<time>2024-03-24T12:19:59.266Z</time>
</trkpt>
<trkpt lat="31.4043100" lon="34.5104400">
<ele>48.000000</ele>
<time>2024-03-24T12:19:59.266Z</time>
</trkpt>
<trkpt lat="31.4043700" lon="34.5103300">
<ele>47.329998</ele>
<time>2024-03-24T12:19:59.266Z</time>
</trkpt>
<trkpt lat="31.4044600" lon="34.5102700">
<ele>47.189999</ele>
<time>2024-03-24T12:19:59.266Z</time>
</trkpt>
<trkpt lat="31.4045400" lon="34.5102000">
<ele>48.000000</ele>
<time>2024-03-24T12:19:59.266Z</time>
</trkpt>
<trkpt lat="31.4046200" lon="34.5100200">
<ele>48.009998</ele>
<time>2024-03-24T12:19:59.266Z</time>
</trkpt>
<trkpt lat="31.4046800" lon="34.5098500">
<ele>48.329998</ele>
<time>2024-03-24T12:19:59.266Z</time>
</trkpt>
<trkpt lat="31.4047600" lon="34.5097300">
<ele>48.160000</ele>
<time>2024-03-24T12:19:59.266Z</time>
</trkpt>
<trkpt lat="31.4049000" lon="34.5095100">
<ele>46.410000</ele>
<time>2024-03-24T12:19:59.266Z</time>
</trkpt>
<trkpt lat="31.4050100" lon="34.5093500">
<ele>43.660000</ele>
<time>2024-03-24T12:19:59.266Z</time>
</trkpt>
<trkpt lat="31.4049900" lon="34.5092600">
<ele>42.539997</ele>
<time>2024-03-24T12:19:59.266Z</time>
</trkpt>
<trkpt lat="31.4049900" lon="34.5091200">
<ele>41.130001</ele>
<time>2024-03-24T12:19:59.266Z</time>
</trkpt>
<trkpt lat="31.4050900" lon="34.5089900">
<ele>40.360001</ele>
<time>2024-03-24T12:19:59.266Z</time>
</trkpt>
<trkpt lat="31.4052400" lon="34.5089600">
<ele>40.259998</ele>
<time>2024-03-24T12:19:59.266Z</time>
</trkpt>
<trkpt lat="31.4053000" lon="34.5089200">
<ele>40.210003</ele>
<time>2024-03-24T12:19:59.266Z</time>
</trkpt>
<trkpt lat="31.4053800" lon="34.5088700">
<ele>40.399998</ele>
<time>2024-03-24T12:19:59.266Z</time>
</trkpt>
<trkpt lat="31.4054700" lon="34.5087300">
<ele>40.250000</ele>
<time>2024-03-24T12:19:59.266Z</time>
</trkpt>
<trkpt lat="31.4055800" lon="34.5086200">
<ele>39.590004</ele>
<time>2024-03-24T12:19:59.266Z</time>
</trkpt>
<trkpt lat="31.4056700" lon="34.5085800">
<ele>41.639999</ele>
<time>2024-03-24T12:19:59.266Z</time>
</trkpt>
<trkpt lat="31.4058000" lon="34.5085400">
<ele>43.950001</ele>
<time>2024-03-24T12:19:59.266Z</time>
</trkpt>
<trkpt lat="31.4058600" lon="34.5084800">
<ele>44.340000</ele>
<time>2024-03-24T12:19:59.266Z</time>
</trkpt>
<trkpt lat="31.4059100" lon="34.5083600">
<ele>44.020000</ele>
<time>2024-03-24T12:19:59.266Z</time>
</trkpt>
<trkpt lat="31.4059500" lon="34.5081900">
<ele>44.860001</ele>
<time>2024-03-24T12:19:59.266Z</time>
</trkpt>
<trkpt lat="31.4060400" lon="34.5080600">
<ele>45.739998</ele>
<time>2024-03-24T12:19:59.266Z</time>
</trkpt>
<trkpt lat="31.4061300" lon="34.5080200">
<ele>46.370003</ele>
<time>2024-03-24T12:19:59.266Z</time>
</trkpt>
<trkpt lat="31.4062900" lon="34.5079800">
<ele>49.160000</ele>
<time>2024-03-24T12:19:59.266Z</time>
</trkpt>
<trkpt lat="31.4064000" lon="34.5079100">
<ele>49.880001</ele>
<time>2024-03-24T12:19:59.266Z</time>
</trkpt>
<trkpt lat="31.4064800" lon="34.5078000">
<ele>48.290001</ele>
<time>2024-03-24T12:19:59.266Z</time>
</trkpt>
<trkpt lat="31.4064800" lon="34.5075400">
<ele>48.549999</ele>
<time>2024-03-24T12:19:59.266Z</time>
</trkpt>
<trkpt lat="31.4064400" lon="34.5074100">
<ele>47.600002</ele>
<time>2024-03-24T12:19:59.266Z</time>
</trkpt>
<trkpt lat="31.4064000" lon="34.5072300">
<ele>46.230000</ele>
<time>2024-03-24T12:19:59.266Z</time>
</trkpt>
<trkpt lat="31.4064900" lon="34.5069600">
<ele>44.730000</ele>
<time>2024-03-24T12:19:59.266Z</time>
</trkpt>
<trkpt lat="31.4066600" lon="34.5066700">
<ele>43.049999</ele>
<time>2024-03-24T12:19:59.266Z</time>
</trkpt>
<trkpt lat="31.4068700" lon="34.5062800">
<ele>43.340000</ele>
<time>2024-03-24T12:19:59.266Z</time>
</trkpt>
<trkpt lat="31.4069400" lon="34.5061400">
<ele>42.309998</ele>
<time>2024-03-24T12:19:59.266Z</time>
</trkpt>
<trkpt lat="31.4070800" lon="34.5059400">
<ele>42.469997</ele>
<time>2024-03-24T12:19:59.266Z</time>
</trkpt>
<trkpt lat="31.4072400" lon="34.5058000">
<ele>43.820000</ele>
<time>2024-03-24T12:19:59.266Z</time>
</trkpt>
<trkpt lat="31.4074000" lon="34.5057400">
<ele>43.239998</ele>
<time>2024-03-24T12:19:59.266Z</time>
</trkpt>
<trkpt lat="31.4074500" lon="34.5057400">
<ele>43.119999</ele>
<time>2024-03-24T12:19:59.266Z</time>
</trkpt>
<trkpt lat="31.4075200" lon="34.5057400">
<ele>43.190002</ele>
<time>2024-03-24T12:19:59.266Z</time>
</trkpt>
<trkpt lat="31.4076700" lon="34.5057500">
<ele>44.590000</ele>
<time>2024-03-24T12:19:59.266Z</time>
</trkpt>
<trkpt lat="31.4077500" lon="34.5057400">
<ele>45.400002</ele>
<time>2024-03-24T12:19:59.266Z</time>
</trkpt>
<trkpt lat="31.4078600" lon="34.5055900">
<ele>47.230000</ele>
<time>2024-03-24T12:19:59.266Z</time>
</trkpt>
<trkpt lat="31.4080700" lon="34.5053200">
<ele>49.759998</ele>
<time>2024-03-24T12:19:59.266Z</time>
</trkpt>
<trkpt lat="31.4082100" lon="34.5052400">
<ele>48.770000</ele>
<time>2024-03-24T12:19:59.266Z</time>
</trkpt>
<trkpt lat="31.4082700" lon="34.5051600">
<ele>48.259998</ele>
<time>2024-03-24T12:19:59.266Z</time>
</trkpt>
<trkpt lat="31.4084400" lon="34.5048400">
<ele>51.970001</ele>
<time>2024-03-24T12:19:59.266Z</time>
</trkpt>
<trkpt lat="31.4084400" lon="34.5046700">
<ele>53.460003</ele>
<time>2024-03-24T12:19:59.266Z</time>
</trkpt>
<trkpt lat="31.4084900" lon="34.5045800">
<ele>53.390003</ele>
<time>2024-03-24T12:19:59.266Z</time>
</trkpt>
<trkpt lat="31.4085300" lon="34.5044300">
<ele>53.080002</ele>
<time>2024-03-24T12:19:59.266Z</time>
</trkpt>
<trkpt lat="31.4085200" lon="34.5042500">
<ele>52.330002</ele>
<time>2024-03-24T12:19:59.266Z</time>
</trkpt>
<trkpt lat="31.4085000" lon="34.5040800">
<ele>50.410004</ele>
<time>2024-03-24T12:19:59.266Z</time>
</trkpt>
<trkpt lat="31.4086800" lon="34.5038000">
<ele>49.619999</ele>
<time>2024-03-24T12:19:59.266Z</time>
</trkpt>
<trkpt lat="31.4089200" lon="34.5035600">
<ele>45.549999</ele>
<time>2024-03-24T12:19:59.266Z</time>
</trkpt>
<trkpt lat="31.4091500" lon="34.5033600">
<ele>41.520000</ele>
<time>2024-03-24T12:19:59.266Z</time>
</trkpt>
<trkpt lat="31.4092000" lon="34.5031600">
<ele>40.660004</ele>
<time>2024-03-24T12:19:59.266Z</time>
</trkpt>
<trkpt lat="31.4094400" lon="34.5030100">
<ele>37.389999</ele>
<time>2024-03-24T12:19:59.266Z</time>
</trkpt>
<trkpt lat="31.4095700" lon="34.5030800">
<ele>39.939999</ele>
<time>2024-03-24T12:19:59.266Z</time>
</trkpt>
<trkpt lat="31.4097700" lon="34.5034300">
<ele>45.739998</ele>
<time>2024-03-24T12:19:59.266Z</time>
</trkpt>
<trkpt lat="31.4098600" lon="34.5035400">
<ele>46.990002</ele>
<time>2024-03-24T12:19:59.266Z</time>
</trkpt>
<trkpt lat="31.4098600" lon="34.5035300">
<ele>47.060001</ele>
<time>2024-03-24T12:19:59.266Z</time>
</trkpt>
<trkpt lat="31.4098600" lon="34.5035300">
<ele>47.060001</ele>
<time>2024-03-24T12:19:59.266Z</time>
</trkpt>
<trkpt lat="31.4098300" lon="34.5031200">
<ele>45.579998</ele>
<time>2024-03-24T12:19:59.266Z</time>
</trkpt>
<trkpt lat="31.4098000" lon="34.5029600">
<ele>42.929996</ele>
<time>2024-03-24T12:19:59.266Z</time>
</trkpt>
<trkpt lat="31.4097400" lon="34.5028600">
<ele>40.459999</ele>
<time>2024-03-24T12:19:59.266Z</time>
</trkpt>
<trkpt lat="31.4097300" lon="34.5027800">
<ele>39.140003</ele>
<time>2024-03-24T12:19:59.266Z</time>
</trkpt>
<trkpt lat="31.4097300" lon="34.5027500">
<ele>39.790001</ele>
<time>2024-03-24T12:19:59.266Z</time>
</trkpt>
<trkpt lat="31.4097300" lon="34.5027500">
<ele>39.790001</ele>
<time>2024-03-24T12:19:59.266Z</time>
</trkpt>
<trkpt lat="31.4097300" lon="34.5027500">
<ele>39.790001</ele>
<time>2024-03-24T12:19:59.266Z</time>
</trkpt>
<trkpt lat="31.4097300" lon="34.5027800">
<ele>39.140003</ele>
<time>2024-03-24T12:19:59.266Z</time>
</trkpt>
<trkpt lat="31.4097400" lon="34.5028600">
<ele>40.459999</ele>
<time>2024-03-24T12:19:59.266Z</time>
</trkpt>
<trkpt lat="31.4098000" lon="34.5029600">
<ele>42.929996</ele>
<time>2024-03-24T12:19:59.266Z</time>
</trkpt>
<trkpt lat="31.4098300" lon="34.5031200">
<ele>45.579998</ele>
<time>2024-03-24T12:19:59.266Z</time>
</trkpt>
<trkpt lat="31.4098600" lon="34.5035400">
<ele>46.990002</ele>
<time>2024-03-24T12:19:59.266Z</time>
</trkpt>
<trkpt lat="31.4099700" lon="34.5036600">
<ele>47.830002</ele>
<time>2024-03-24T12:19:59.266Z</time>
</trkpt>
<trkpt lat="31.4101500" lon="34.5036400">
<ele>47.240002</ele>
<time>2024-03-24T12:19:59.266Z</time>
</trkpt>
<trkpt lat="31.4102300" lon="34.5036300">
<ele>46.530003</ele>
<time>2024-03-24T12:19:59.266Z</time>
</trkpt>
<trkpt lat="31.4104200" lon="34.5035900">
<ele>45.959999</ele>
<time>2024-03-24T12:19:59.266Z</time>
</trkpt>
<trkpt lat="31.4104300" lon="34.5037400">
<ele>47.230000</ele>
<time>2024-03-24T12:19:59.266Z</time>
</trkpt>
<trkpt lat="31.4104200" lon="34.5039700">
<ele>48.689999</ele>
<time>2024-03-24T12:19:59.266Z</time>
</trkpt>
<trkpt lat="31.4105700" lon="34.5042300">
<ele>52.250000</ele>
<time>2024-03-24T12:19:59.266Z</time>
</trkpt>
<trkpt lat="31.4105800" lon="34.5041600">
<ele>51.580002</ele>
<time>2024-03-24T12:19:59.266Z</time>
</trkpt>
<trkpt lat="31.4106400" lon="34.5040800">
<ele>52.439999</ele>
<time>2024-03-24T12:19:59.266Z</time>
</trkpt>
<trkpt lat="31.4106400" lon="34.5040800">
<ele>52.439999</ele>
<time>2024-03-24T12:19:59.266Z</time>
</trkpt>
<trkpt lat="31.4107700" lon="34.5040200">
<ele>54.250000</ele>
<time>2024-03-24T12:19:59.266Z</time>
</trkpt>
<trkpt lat="31.4108300" lon="34.5039700">
<ele>54.410000</ele>
<time>2024-03-24T12:19:59.266Z</time>
</trkpt>
<trkpt lat="31.4108400" lon="34.5039000">
<ele>53.129997</ele>
<time>2024-03-24T12:19:59.266Z</time>
</trkpt>
<trkpt lat="31.4108000" lon="34.5038200">
<ele>51.430000</ele>
<time>2024-03-24T12:19:59.266Z</time>
</trkpt>
<trkpt lat="31.4106700" lon="34.5037400">
<ele>48.869999</ele>
<time>2024-03-24T12:19:59.266Z</time>
</trkpt>
<trkpt lat="31.4105900" lon="34.5036500">
<ele>46.830002</ele>
<time>2024-03-24T12:19:59.266Z</time>
</trkpt>
<trkpt lat="31.4105600" lon="34.5035800">
<ele>45.690002</ele>
<time>2024-03-24T12:19:59.266Z</time>
</trkpt>
<trkpt lat="31.4105600" lon="34.5034600">
<ele>44.390003</ele>
<time>2024-03-24T12:19:59.266Z</time>
</trkpt>
<trkpt lat="31.4105900" lon="34.5033000">
<ele>42.880001</ele>
<time>2024-03-24T12:19:59.266Z</time>
</trkpt>
<trkpt lat="31.4106100" lon="34.5031500">
<ele>41.880001</ele>
<time>2024-03-24T12:19:59.266Z</time>
</trkpt>
<trkpt lat="31.4106000" lon="34.5030700">
<ele>41.259998</ele>
<time>2024-03-24T12:19:59.266Z</time>
</trkpt>
<trkpt lat="31.4105700" lon="34.5030000">
<ele>41.590000</ele>
<time>2024-03-24T12:19:59.266Z</time>
</trkpt>
<trkpt lat="31.4104700" lon="34.5028800">
<ele>43.970001</ele>
<time>2024-03-24T12:19:59.266Z</time>
</trkpt>
<trkpt lat="31.4103600" lon="34.5025300">
<ele>43.260002</ele>
<time>2024-03-24T12:19:59.266Z</time>
</trkpt>
<trkpt lat="31.4103100" lon="34.5024400">
<ele>43.410000</ele>
<time>2024-03-24T12:19:59.266Z</time>
</trkpt>
<trkpt lat="31.4102200" lon="34.5023600">
<ele>43.379997</ele>
<time>2024-03-24T12:19:59.266Z</time>
</trkpt>
<trkpt lat="31.4101400" lon="34.5023200">
<ele>42.660000</ele>
<time>2024-03-24T12:19:59.266Z</time>
</trkpt>
<trkpt lat="31.4100400" lon="34.5020700">
<ele>43.290001</ele>
<time>2024-03-24T12:19:59.266Z</time>
</trkpt>
<trkpt lat="31.4099600" lon="34.5020100">
<ele>44.369999</ele>
<time>2024-03-24T12:19:59.266Z</time>
</trkpt>
<trkpt lat="31.4099500" lon="34.5020100">
<ele>44.260002</ele>
<time>2024-03-24T12:19:59.266Z</time>
</trkpt>
<trkpt lat="31.4099500" lon="34.5020100">
<ele>44.260002</ele>
<time>2024-03-24T12:19:59.266Z</time>
</trkpt>
<trkpt lat="31.4098300" lon="34.5019200">
<ele>43.309998</ele>
<time>2024-03-24T12:19:59.266Z</time>
</trkpt>
<trkpt lat="31.4098000" lon="34.5018700">
<ele>43.590000</ele>
<time>2024-03-24T12:19:59.266Z</time>
</trkpt>
<trkpt lat="31.4097500" lon="34.5016900">
<ele>45.899998</ele>
<time>2024-03-24T12:19:59.266Z</time>
</trkpt>
<trkpt lat="31.4097000" lon="34.5016300">
<ele>46.610001</ele>
<time>2024-03-24T12:19:59.266Z</time>
</trkpt>
<trkpt lat="31.4095500" lon="34.5015600">
<ele>48.009998</ele>
<time>2024-03-24T12:19:59.266Z</time>
</trkpt>
<trkpt lat="31.4093400" lon="34.5013900">
<ele>55.980003</ele>
<time>2024-03-24T12:19:59.266Z</time>
</trkpt>
<trkpt lat="31.4090300" lon="34.5012400">
<ele>60.970001</ele>
<time>2024-03-24T12:19:59.266Z</time>
</trkpt>
<trkpt lat="31.4089500" lon="34.5011700">
<ele>62.199997</ele>
<time>2024-03-24T12:19:59.266Z</time>
</trkpt>
<trkpt lat="31.4089000" lon="34.5011100">
<ele>63.950001</ele>
<time>2024-03-24T12:19:59.266Z</time>
</trkpt>
<trkpt lat="31.4087800" lon="34.5009100">
<ele>59.350002</ele>
<time>2024-03-24T12:19:59.266Z</time>
</trkpt>
<trkpt lat="31.4087600" lon="34.5008200">
<ele>59.340000</ele>
<time>2024-03-24T12:19:59.266Z</time>
</trkpt>
<trkpt lat="31.4087500" lon="34.5005800">
<ele>54.480000</ele>
<time>2024-03-24T12:19:59.266Z</time>
</trkpt>
<trkpt lat="31.4087500" lon="34.5005800">
<ele>54.480000</ele>
<time>2024-03-24T12:19:59.266Z</time>
</trkpt>
<trkpt lat="31.4087800" lon="34.5003800">
<ele>56.250000</ele>
<time>2024-03-24T12:19:59.266Z</time>
</trkpt>
<trkpt lat="31.4088600" lon="34.5001500">
<ele>59.000000</ele>
<time>2024-03-24T12:19:59.266Z</time>
</trkpt>
<trkpt lat="31.4089100" lon="34.5000800">
<ele>59.669998</ele>
<time>2024-03-24T12:19:59.266Z</time>
</trkpt>
<trkpt lat="31.4090700" lon="34.4999300">
<ele>59.810001</ele>
<time>2024-03-24T12:19:59.266Z</time>
</trkpt>
<trkpt lat="31.4091100" lon="34.4998700">
<ele>59.989998</ele>
<time>2024-03-24T12:19:59.266Z</time>
</trkpt>
<trkpt lat="31.4091100" lon="34.4997700">
<ele>59.980000</ele>
<time>2024-03-24T12:19:59.266Z</time>
</trkpt>
<trkpt lat="31.4090500" lon="34.4997200">
<ele>58.840000</ele>
<time>2024-03-24T12:19:59.266Z</time>
</trkpt>
<trkpt lat="31.4088700" lon="34.4997100">
<ele>55.910000</ele>
<time>2024-03-24T12:19:59.266Z</time>
</trkpt>
<trkpt lat="31.4088000" lon="34.4996800">
<ele>55.739998</ele>
<time>2024-03-24T12:19:59.266Z</time>
</trkpt>
<trkpt lat="31.4086200" lon="34.4994300">
<ele>54.760002</ele>
<time>2024-03-24T12:19:59.266Z</time>
</trkpt>
<trkpt lat="31.4084800" lon="34.4993400">
<ele>54.739998</ele>
<time>2024-03-24T12:19:59.266Z</time>
</trkpt>
<trkpt lat="31.4084100" lon="34.4992700">
<ele>55.670002</ele>
<time>2024-03-24T12:19:59.266Z</time>
</trkpt>
<trkpt lat="31.4083600" lon="34.4991900">
<ele>57.130001</ele>
<time>2024-03-24T12:19:59.266Z</time>
</trkpt>
<trkpt lat="31.4082900" lon="34.4989700">
<ele>56.360001</ele>
<time>2024-03-24T12:19:59.266Z</time>
</trkpt>
<trkpt lat="31.4082300" lon="34.4987100">
<ele>55.990002</ele>
<time>2024-03-24T12:19:59.266Z</time>
</trkpt>
<trkpt lat="31.4081400" lon="34.4985400">
<ele>57.849998</ele>
<time>2024-03-24T12:19:59.266Z</time>
</trkpt>
<trkpt lat="31.4081200" lon="34.4982700">
<ele>55.730000</ele>
<time>2024-03-24T12:19:59.266Z</time>
</trkpt>
<trkpt lat="31.4081000" lon="34.4981900">
<ele>57.250000</ele>
<time>2024-03-24T12:19:59.266Z</time>
</trkpt>
<trkpt lat="31.4080100" lon="34.4980300">
<ele>59.230000</ele>
<time>2024-03-24T12:19:59.266Z</time>
</trkpt>
<trkpt lat="31.4079600" lon="34.4979800">
<ele>58.049999</ele>
<time>2024-03-24T12:19:59.266Z</time>
</trkpt>
<trkpt lat="31.4078100" lon="34.4978600">
<ele>55.329998</ele>
<time>2024-03-24T12:19:59.266Z</time>
</trkpt>
<trkpt lat="31.4077600" lon="34.4978000">
<ele>54.380001</ele>
<time>2024-03-24T12:19:59.266Z</time>
</trkpt>
<trkpt lat="31.4077200" lon="34.4977100">
<ele>53.180000</ele>
<time>2024-03-24T12:19:59.266Z</time>
</trkpt>
<trkpt lat="31.4076600" lon="34.4974300">
<ele>48.810001</ele>
<time>2024-03-24T12:19:59.266Z</time>
</trkpt>
<trkpt lat="31.4077400" lon="34.4972000">
<ele>44.459999</ele>
<time>2024-03-24T12:19:59.266Z</time>
</trkpt>
<trkpt lat="31.4077200" lon="34.4964900">
<ele>48.910000</ele>
<time>2024-03-24T12:19:59.266Z</time>
</trkpt>
<trkpt lat="31.4077000" lon="34.4963900">
<ele>47.049999</ele>
<time>2024-03-24T12:19:59.266Z</time>
</trkpt>
<trkpt lat="31.4076600" lon="34.4963300">
<ele>47.000000</ele>
<time>2024-03-24T12:19:59.266Z</time>
</trkpt>
<trkpt lat="31.4076000" lon="34.4962800">
<ele>46.809998</ele>
<time>2024-03-24T12:19:59.266Z</time>
</trkpt>
<trkpt lat="31.4074900" lon="34.4962200">
<ele>46.600002</ele>
<time>2024-03-24T12:19:59.266Z</time>
</trkpt>
<trkpt lat="31.4074400" lon="34.4961300">
<ele>47.400002</ele>
<time>2024-03-24T12:19:59.266Z</time>
</trkpt>
<trkpt lat="31.4074500" lon="34.4958900">
<ele>48.689999</ele>
<time>2024-03-24T12:19:59.266Z</time>
</trkpt>
<trkpt lat="31.4074300" lon="34.4957700">
<ele>49.540001</ele>
<time>2024-03-24T12:19:59.266Z</time>
</trkpt>
<trkpt lat="31.4074400" lon="34.4956800">
<ele>50.829998</ele>
<time>2024-03-24T12:19:59.266Z</time>
</trkpt>
<trkpt lat="31.4075100" lon="34.4955600">
<ele>53.780003</ele>
<time>2024-03-24T12:19:59.266Z</time>
</trkpt>
<trkpt lat="31.4075300" lon="34.4954400">
<ele>52.260002</ele>
<time>2024-03-24T12:19:59.266Z</time>
</trkpt>
<trkpt lat="31.4075000" lon="34.4953100">
<ele>50.459999</ele>
<time>2024-03-24T12:19:59.266Z</time>
</trkpt>
<trkpt lat="31.4072400" lon="34.4948900">
<ele>60.309998</ele>
<time>2024-03-24T12:19:59.266Z</time>
</trkpt>
<trkpt lat="31.4071300" lon="34.4948100">
<ele>58.929996</ele>
<time>2024-03-24T12:19:59.266Z</time>
</trkpt>
<trkpt lat="31.4070000" lon="34.4947600">
<ele>58.249996</ele>
<time>2024-03-24T12:19:59.266Z</time>
</trkpt>
<trkpt lat="31.4069400" lon="34.4947200">
<ele>58.829998</ele>
<time>2024-03-24T12:19:59.266Z</time>
</trkpt>
<trkpt lat="31.4069400" lon="34.4946600">
<ele>58.650002</ele>
<time>2024-03-24T12:19:59.266Z</time>
</trkpt>
<trkpt lat="31.4070200" lon="34.4945300">
<ele>59.330002</ele>
<time>2024-03-24T12:19:59.266Z</time>
</trkpt>
<trkpt lat="31.4070000" lon="34.4944800">
<ele>59.030003</ele>
<time>2024-03-24T12:19:59.266Z</time>
</trkpt>
<trkpt lat="31.4068900" lon="34.4943800">
<ele>59.009998</ele>
<time>2024-03-24T12:19:59.266Z</time>
</trkpt>
<trkpt lat="31.4068300" lon="34.4942400">
<ele>60.790001</ele>
<time>2024-03-24T12:19:59.266Z</time>
</trkpt>
<trkpt lat="31.4067800" lon="34.4941900">
<ele>60.730000</ele>
<time>2024-03-24T12:19:59.266Z</time>
</trkpt>
<trkpt lat="31.4065700" lon="34.4941400">
<ele>57.549999</ele>
<time>2024-03-24T12:19:59.266Z</time>
</trkpt>
<trkpt lat="31.4065100" lon="34.4940900">
<ele>56.430000</ele>
<time>2024-03-24T12:19:59.266Z</time>
</trkpt>
<trkpt lat="31.4064800" lon="34.4940300">
<ele>55.690002</ele>
<time>2024-03-24T12:19:59.266Z</time>
</trkpt>
<trkpt lat="31.4063000" lon="34.4934400">
<ele>45.899998</ele>
<time>2024-03-24T12:19:59.266Z</time>
</trkpt>
<trkpt lat="31.4063000" lon="34.4933500">
<ele>46.020000</ele>
<time>2024-03-24T12:19:59.266Z</time>
</trkpt>
<trkpt lat="31.4063500" lon="34.4929500">
<ele>50.480000</ele>
<time>2024-03-24T12:19:59.266Z</time>
</trkpt>
<trkpt lat="31.4062400" lon="34.4927500">
<ele>51.089996</ele>
<time>2024-03-24T12:19:59.266Z</time>
</trkpt>
<trkpt lat="31.4062200" lon="34.4925600">
<ele>52.209999</ele>
<time>2024-03-24T12:19:59.266Z</time>
</trkpt>
<trkpt lat="31.4061800" lon="34.4925000">
<ele>52.750000</ele>
<time>2024-03-24T12:19:59.266Z</time>
</trkpt>
<trkpt lat="31.4060100" lon="34.4923300">
<ele>51.650002</ele>
<time>2024-03-24T12:19:59.266Z</time>
</trkpt>
<trkpt lat="31.4059600" lon="34.4922400">
<ele>50.149998</ele>
<time>2024-03-24T12:19:59.266Z</time>
</trkpt>
<trkpt lat="31.4059300" lon="34.4921400">
<ele>48.239998</ele>
<time>2024-03-24T12:19:59.266Z</time>
</trkpt>
<trkpt lat="31.4058900" lon="34.4918100">
<ele>44.930000</ele>
<time>2024-03-24T12:19:59.266Z</time>
</trkpt>
<trkpt lat="31.4059100" lon="34.4913300">
<ele>41.590000</ele>
<time>2024-03-24T12:19:59.266Z</time>
</trkpt>
<trkpt lat="31.4058900" lon="34.4912500">
<ele>41.200001</ele>
<time>2024-03-24T12:19:59.266Z</time>
</trkpt>
<trkpt lat="31.4057900" lon="34.4910100">
<ele>39.419998</ele>
<time>2024-03-24T12:19:59.266Z</time>
</trkpt>
<trkpt lat="31.4057200" lon="34.4909500">
<ele>39.349998</ele>
<time>2024-03-24T12:19:59.266Z</time>
</trkpt>
<trkpt lat="31.4055300" lon="34.4909200">
<ele>41.859997</ele>
<time>2024-03-24T12:19:59.266Z</time>
</trkpt>
<trkpt lat="31.4054400" lon="34.4908800">
<ele>43.810001</ele>
<time>2024-03-24T12:19:59.266Z</time>
</trkpt>
<trkpt lat="31.4052400" lon="34.4906400">
<ele>49.500000</ele>
<time>2024-03-24T12:19:59.266Z</time>
</trkpt>
<trkpt lat="31.4052200" lon="34.4905400">
<ele>50.709999</ele>
<time>2024-03-24T12:19:59.266Z</time>
</trkpt>
<trkpt lat="31.4052500" lon="34.4903500">
<ele>51.630001</ele>
<time>2024-03-24T12:19:59.266Z</time>
</trkpt>
<trkpt lat="31.4052500" lon="34.4900300">
<ele>54.419998</ele>
<time>2024-03-24T12:19:59.266Z</time>
</trkpt>
<trkpt lat="31.4052100" lon="34.4899400">
<ele>54.320000</ele>
<time>2024-03-24T12:19:59.266Z</time>
</trkpt>
<trkpt lat="31.4050900" lon="34.4898400">
<ele>53.360001</ele>
<time>2024-03-24T12:19:59.266Z</time>
</trkpt>
<trkpt lat="31.4050100" lon="34.4897400">
<ele>53.010002</ele>
<time>2024-03-24T12:19:59.266Z</time>
</trkpt>
<trkpt lat="31.4049300" lon="34.4894500">
<ele>52.250000</ele>
<time>2024-03-24T12:19:59.266Z</time>
</trkpt>
<trkpt lat="31.4048800" lon="34.4893300">
<ele>49.629997</ele>
<time>2024-03-24T12:19:59.266Z</time>
</trkpt>
<trkpt lat="31.4046400" lon="34.4889800">
<ele>42.610001</ele>
<time>2024-03-24T12:19:59.266Z</time>
</trkpt>
<trkpt lat="31.4045900" lon="34.4888700">
<ele>41.239998</ele>
<time>2024-03-24T12:19:59.266Z</time>
</trkpt>
<trkpt lat="31.4045300" lon="34.4886900">
<ele>41.110001</ele>
<time>2024-03-24T12:19:59.266Z</time>
</trkpt>
<trkpt lat="31.4045200" lon="34.4885900">
<ele>41.169998</ele>
<time>2024-03-24T12:19:59.266Z</time>
</trkpt>
<trkpt lat="31.4045200" lon="34.4882300">
<ele>40.719997</ele>
<time>2024-03-24T12:19:59.266Z</time>
</trkpt>
<trkpt lat="31.4045500" lon="34.4879900">
<ele>40.410000</ele>
<time>2024-03-24T12:19:59.266Z</time>
</trkpt>
<trkpt lat="31.4045400" lon="34.4875600">
<ele>39.459999</ele>
<time>2024-03-24T12:19:59.266Z</time>
</trkpt>
<trkpt lat="31.4045600" lon="34.4874400">
<ele>39.290001</ele>
<time>2024-03-24T12:19:59.266Z</time>
</trkpt>
<trkpt lat="31.4046500" lon="34.4872700">
<ele>40.310001</ele>
<time>2024-03-24T12:19:59.266Z</time>
</trkpt>
<trkpt lat="31.4046600" lon="34.4872100">
<ele>40.700001</ele>
<time>2024-03-24T12:19:59.266Z</time>
</trkpt>
<trkpt lat="31.4046500" lon="34.4871200">
<ele>42.389999</ele>
<time>2024-03-24T12:19:59.266Z</time>
</trkpt>
<trkpt lat="31.4045400" lon="34.4868800">
<ele>45.049999</ele>
<time>2024-03-24T12:19:59.266Z</time>
</trkpt>
<trkpt lat="31.4041900" lon="34.4865200">
<ele>42.980000</ele>
<time>2024-03-24T12:19:59.266Z</time>
</trkpt>
<trkpt lat="31.4040000" lon="34.4862700">
<ele>43.200001</ele>
<time>2024-03-24T12:19:59.266Z</time>
</trkpt>
<trkpt lat="31.4038900" lon="34.4861700">
<ele>42.750000</ele>
<time>2024-03-24T12:19:59.266Z</time>
</trkpt>
<trkpt lat="31.4037000" lon="34.4858100">
<ele>44.340000</ele>
<time>2024-03-24T12:19:59.266Z</time>
</trkpt>
<trkpt lat="31.4036800" lon="34.4857300">
<ele>44.270000</ele>
<time>2024-03-24T12:19:59.266Z</time>
</trkpt>
<trkpt lat="31.4036700" lon="34.4854900">
<ele>44.959999</ele>
<time>2024-03-24T12:19:59.266Z</time>
</trkpt>
<trkpt lat="31.4035400" lon="34.4851900">
<ele>46.129997</ele>
<time>2024-03-24T12:19:59.266Z</time>
</trkpt>
<trkpt lat="31.4034100" lon="34.4849800">
<ele>48.230000</ele>
<time>2024-03-24T12:19:59.266Z</time>
</trkpt>
<trkpt lat="31.4033200" lon="34.4847700">
<ele>46.330002</ele>
<time>2024-03-24T12:19:59.266Z</time>
</trkpt>
<trkpt lat="31.4032500" lon="34.4845300">
<ele>42.469997</ele>
<time>2024-03-24T12:19:59.266Z</time>
</trkpt>
<trkpt lat="31.4031400" lon="34.4842600">
<ele>39.760002</ele>
<time>2024-03-24T12:19:59.266Z</time>
</trkpt>
<trkpt lat="31.4031000" lon="34.4840300">
<ele>36.820000</ele>
<time>2024-03-24T12:19:59.266Z</time>
</trkpt>
<trkpt lat="31.4030400" lon="34.4838900">
<ele>35.020000</ele>
<time>2024-03-24T12:19:59.266Z</time>
</trkpt>
<trkpt lat="31.4030400" lon="34.4838400">
<ele>34.329998</ele>
<time>2024-03-24T12:19:59.266Z</time>
</trkpt>
<trkpt lat="31.4030500" lon="34.4837600">
<ele>33.170002</ele>
<time>2024-03-24T12:19:59.266Z</time>
</trkpt>
<trkpt lat="31.4031100" lon="34.4836400">
<ele>31.139999</ele>
<time>2024-03-24T12:19:59.266Z</time>
</trkpt>
<trkpt lat="31.4032500" lon="34.4835000">
<ele>29.900000</ele>
<time>2024-03-24T12:19:59.266Z</time>
</trkpt>
<trkpt lat="31.4033400" lon="34.4833700">
<ele>29.110001</ele>
<time>2024-03-24T12:19:59.266Z</time>
</trkpt>
<trkpt lat="31.4034400" lon="34.4832000">
<ele>29.650000</ele>
<time>2024-03-24T12:19:59.266Z</time>
</trkpt>
<trkpt lat="31.4036200" lon="34.4828100">
<ele>34.790001</ele>
<time>2024-03-24T12:19:59.266Z</time>
</trkpt>
<trkpt lat="31.4036900" lon="34.4825400">
<ele>35.279999</ele>
<time>2024-03-24T12:19:59.266Z</time>
</trkpt>
<trkpt lat="31.4037700" lon="34.4824200">
<ele>35.880001</ele>
<time>2024-03-24T12:19:59.266Z</time>
</trkpt>
<trkpt lat="31.4039500" lon="34.4822800">
<ele>37.680000</ele>
<time>2024-03-24T12:19:59.266Z</time>
</trkpt>
<trkpt lat="31.4040100" lon="34.4821000">
<ele>37.119999</ele>
<time>2024-03-24T12:19:59.266Z</time>
</trkpt>
<trkpt lat="31.4040600" lon="34.4820300">
<ele>37.360001</ele>
<time>2024-03-24T12:19:59.266Z</time>
</trkpt>
<trkpt lat="31.4042200" lon="34.4819100">
<ele>39.900002</ele>
<time>2024-03-24T12:19:59.266Z</time>
</trkpt>
<trkpt lat="31.4043000" lon="34.4818600">
<ele>41.270000</ele>
<time>2024-03-24T12:19:59.266Z</time>
</trkpt>
<trkpt lat="31.4044100" lon="34.4818200">
<ele>43.360001</ele>
<time>2024-03-24T12:19:59.266Z</time>
</trkpt>
<trkpt lat="31.4044600" lon="34.4817800">
<ele>44.030003</ele>
<time>2024-03-24T12:19:59.266Z</time>
</trkpt>
<trkpt lat="31.4044600" lon="34.4816900">
<ele>43.350002</ele>
<time>2024-03-24T12:19:59.266Z</time>
</trkpt>
<trkpt lat="31.4043900" lon="34.4814800">
<ele>43.170002</ele>
<time>2024-03-24T12:19:59.266Z</time>
</trkpt>
<trkpt lat="31.4041800" lon="34.4811900">
<ele>42.079998</ele>
<time>2024-03-24T12:19:59.266Z</time>
</trkpt>
<trkpt lat="31.4041000" lon="34.4810000">
<ele>42.539997</ele>
<time>2024-03-24T12:19:59.266Z</time>
</trkpt>
<trkpt lat="31.4040300" lon="34.4808900">
<ele>43.190002</ele>
<time>2024-03-24T12:19:59.266Z</time>
</trkpt>
<trkpt lat="31.4038200" lon="34.4807100">
<ele>42.759998</ele>
<time>2024-03-24T12:19:59.266Z</time>
</trkpt>
<trkpt lat="31.4036700" lon="34.4806300">
<ele>40.520000</ele>
<time>2024-03-24T12:19:59.266Z</time>
</trkpt>
<trkpt lat="31.4035800" lon="34.4806200">
<ele>40.230000</ele>
<time>2024-03-24T12:19:59.266Z</time>
</trkpt>
<trkpt lat="31.4033900" lon="34.4807100">
<ele>41.549999</ele>
<time>2024-03-24T12:19:59.266Z</time>
</trkpt>
<trkpt lat="31.4033100" lon="34.4807300">
<ele>42.099998</ele>
<time>2024-03-24T12:19:59.266Z</time>
</trkpt>
<trkpt lat="31.4032200" lon="34.4807200">
<ele>42.820000</ele>
<time>2024-03-24T12:19:59.266Z</time>
</trkpt>
<trkpt lat="31.4031100" lon="34.4806900">
<ele>43.880001</ele>
<time>2024-03-24T12:19:59.266Z</time>
</trkpt>
<trkpt lat="31.4030200" lon="34.4806100">
<ele>44.780003</ele>
<time>2024-03-24T12:19:59.266Z</time>
</trkpt>
<trkpt lat="31.4029600" lon="34.4804500">
<ele>47.130001</ele>
<time>2024-03-24T12:19:59.266Z</time>
</trkpt>
<trkpt lat="31.4029000" lon="34.4801100">
<ele>53.150002</ele>
<time>2024-03-24T12:19:59.266Z</time>
</trkpt>
<trkpt lat="31.4028200" lon="34.4799200">
<ele>56.290001</ele>
<time>2024-03-24T12:19:59.266Z</time>
</trkpt>
<trkpt lat="31.4028000" lon="34.4798200">
<ele>55.760002</ele>
<time>2024-03-24T12:19:59.266Z</time>
</trkpt>
<trkpt lat="31.4028600" lon="34.4796300">
<ele>54.040001</ele>
<time>2024-03-24T12:19:59.266Z</time>
</trkpt>
<trkpt lat="31.4028200" lon="34.4795500">
<ele>53.739998</ele>
<time>2024-03-24T12:19:59.266Z</time>
</trkpt>
<trkpt lat="31.4027500" lon="34.4795300">
<ele>53.590000</ele>
<time>2024-03-24T12:19:59.266Z</time>
</trkpt>
<trkpt lat="31.4025900" lon="34.4795700">
<ele>53.599998</ele>
<time>2024-03-24T12:19:59.266Z</time>
</trkpt>
<trkpt lat="31.4025100" lon="34.4795700">
<ele>53.470001</ele>
<time>2024-03-24T12:19:59.266Z</time>
</trkpt>
<trkpt lat="31.4024700" lon="34.4795400">
<ele>52.869999</ele>
<time>2024-03-24T12:19:59.266Z</time>
</trkpt>
<trkpt lat="31.4023700" lon="34.4794200">
<ele>52.200001</ele>
<time>2024-03-24T12:19:59.266Z</time>
</trkpt>
<trkpt lat="31.4023100" lon="34.4793900">
<ele>51.889999</ele>
<time>2024-03-24T12:19:59.266Z</time>
</trkpt>
<trkpt lat="31.4021000" lon="34.4793400">
<ele>50.549999</ele>
<time>2024-03-24T12:19:59.266Z</time>
</trkpt>
<trkpt lat="31.4019800" lon="34.4792800">
<ele>50.520000</ele>
<time>2024-03-24T12:19:59.266Z</time>
</trkpt>
<trkpt lat="31.4019300" lon="34.4792200">
<ele>50.929996</ele>
<time>2024-03-24T12:19:59.266Z</time>
</trkpt>
<trkpt lat="31.4017500" lon="34.4788500">
<ele>45.160000</ele>
<time>2024-03-24T12:19:59.266Z</time>
</trkpt>
<trkpt lat="31.4016900" lon="34.4785600">
<ele>43.030003</ele>
<time>2024-03-24T12:19:59.266Z</time>
</trkpt>
<trkpt lat="31.4016800" lon="34.4784800">
<ele>41.639999</ele>
<time>2024-03-24T12:19:59.266Z</time>
</trkpt>
<trkpt lat="31.4017100" lon="34.4784100">
<ele>40.450001</ele>
<time>2024-03-24T12:19:59.266Z</time>
</trkpt>
<trkpt lat="31.4018000" lon="34.4783000">
<ele>39.119999</ele>
<time>2024-03-24T12:19:59.266Z</time>
</trkpt>
<trkpt lat="31.4018400" lon="34.4782100">
<ele>38.180000</ele>
<time>2024-03-24T12:19:59.266Z</time>
</trkpt>
<trkpt lat="31.4019300" lon="34.4777900">
<ele>36.860001</ele>
<time>2024-03-24T12:19:59.266Z</time>
</trkpt>
<trkpt lat="31.4019300" lon="34.4777100">
<ele>36.660000</ele>
<time>2024-03-24T12:19:59.266Z</time>
</trkpt>
<trkpt lat="31.4018300" lon="34.4775000">
<ele>35.590000</ele>
<time>2024-03-24T12:19:59.266Z</time>
</trkpt>
<trkpt lat="31.4018200" lon="34.4774200">
<ele>36.669998</ele>
<time>2024-03-24T12:19:59.266Z</time>
</trkpt>
<trkpt lat="31.4018600" lon="34.4771200">
<ele>40.329998</ele>
<time>2024-03-24T12:19:59.266Z</time>
</trkpt>
<trkpt lat="31.4018500" lon="34.4770600">
<ele>40.879997</ele>
<time>2024-03-24T12:19:59.266Z</time>
</trkpt>
<trkpt lat="31.4018300" lon="34.4770000">
<ele>41.290001</ele>
<time>2024-03-24T12:19:59.266Z</time>
</trkpt>
<trkpt lat="31.4017800" lon="34.4769400">
<ele>41.259998</ele>
<time>2024-03-24T12:19:59.266Z</time>
</trkpt>
<trkpt lat="31.4016400" lon="34.4768600">
<ele>40.350002</ele>
<time>2024-03-24T12:19:59.266Z</time>
</trkpt>
<trkpt lat="31.4015900" lon="34.4768100">
<ele>40.269997</ele>
<time>2024-03-24T12:19:59.266Z</time>
</trkpt>
<trkpt lat="31.4014600" lon="34.4765800">
<ele>41.209999</ele>
<time>2024-03-24T12:19:59.266Z</time>
</trkpt>
<trkpt lat="31.4013200" lon="34.4764100">
<ele>42.279999</ele>
<time>2024-03-24T12:19:59.266Z</time>
</trkpt>
<trkpt lat="31.4010300" lon="34.4758700">
<ele>39.429996</ele>
<time>2024-03-24T12:19:59.266Z</time>
</trkpt>
<trkpt lat="31.4008700" lon="34.4756600">
<ele>37.860001</ele>
<time>2024-03-24T12:19:59.266Z</time>
</trkpt>
<trkpt lat="31.4008000" lon="34.4755200">
<ele>37.660000</ele>
<time>2024-03-24T12:19:59.266Z</time>
</trkpt>
<trkpt lat="31.4008000" lon="34.4755200">
<ele>37.660000</ele>
<time>2024-03-24T12:19:59.266Z</time>
</trkpt>
<trkpt lat="31.4006800" lon="34.4752700">
<ele>36.980000</ele>
<time>2024-03-24T12:19:59.266Z</time>
</trkpt>
<trkpt lat="31.4006100" lon="34.4750400">
<ele>36.310001</ele>
<time>2024-03-24T12:19:59.266Z</time>
</trkpt>
<trkpt lat="31.4005500" lon="34.4749300">
<ele>35.180000</ele>
<time>2024-03-24T12:19:59.266Z</time>
</trkpt>
<trkpt lat="31.4005400" lon="34.4748400">
<ele>34.099998</ele>
<time>2024-03-24T12:19:59.266Z</time>
</trkpt>
<trkpt lat="31.4005700" lon="34.4747400">
<ele>33.340000</ele>
<time>2024-03-24T12:19:59.266Z</time>
</trkpt>
<trkpt lat="31.4006500" lon="34.4746500">
<ele>34.020000</ele>
<time>2024-03-24T12:19:59.266Z</time>
</trkpt>
<trkpt lat="31.4007800" lon="34.4745500">
<ele>35.420002</ele>
<time>2024-03-24T12:19:59.266Z</time>
</trkpt>
<trkpt lat="31.4008500" lon="34.4745300">
<ele>35.899998</ele>
<time>2024-03-24T12:19:59.266Z</time>
</trkpt>
<trkpt lat="31.4011800" lon="34.4745600">
<ele>34.970001</ele>
<time>2024-03-24T12:19:59.266Z</time>
</trkpt>
<trkpt lat="31.4013700" lon="34.4746500">
<ele>37.740002</ele>
<time>2024-03-24T12:19:59.266Z</time>
</trkpt>
<trkpt lat="31.4016400" lon="34.4747000">
<ele>41.540001</ele>
<time>2024-03-24T12:19:59.266Z</time>
</trkpt>
<trkpt lat="31.4017500" lon="34.4746900">
<ele>41.239998</ele>
<time>2024-03-24T12:19:59.266Z</time>
</trkpt>
<trkpt lat="31.4019300" lon="34.4745900">
<ele>40.050003</ele>
<time>2024-03-24T12:19:59.266Z</time>
</trkpt>
<trkpt lat="31.4021900" lon="34.4745400">
<ele>39.450001</ele>
<time>2024-03-24T12:19:59.266Z</time>
</trkpt>
<trkpt lat="31.4025200" lon="34.4744000">
<ele>36.590000</ele>
<time>2024-03-24T12:19:59.266Z</time>
</trkpt>
<trkpt lat="31.4025800" lon="34.4744100">
<ele>36.279999</ele>
<time>2024-03-24T12:19:59.266Z</time>
</trkpt>
<trkpt lat="31.4026600" lon="34.4744800">
<ele>35.130001</ele>
<time>2024-03-24T12:19:59.266Z</time>
</trkpt>
<trkpt lat="31.4028700" lon="34.4749600">
<ele>32.340000</ele>
<time>2024-03-24T12:19:59.266Z</time>
</trkpt>
<trkpt lat="31.4030600" lon="34.4751800">
<ele>31.010000</ele>
<time>2024-03-24T12:19:59.266Z</time>
</trkpt>
<trkpt lat="31.4032600" lon="34.4753500">
<ele>37.189999</ele>
<time>2024-03-24T12:19:59.266Z</time>
</trkpt>
<trkpt lat="31.4033400" lon="34.4754500">
<ele>40.169998</ele>
<time>2024-03-24T12:19:59.266Z</time>
</trkpt>
<trkpt lat="31.4034300" lon="34.4756600">
<ele>44.430000</ele>
<time>2024-03-24T12:19:59.266Z</time>
</trkpt>
<trkpt lat="31.4034900" lon="34.4757500">
<ele>46.579998</ele>
<time>2024-03-24T12:19:59.266Z</time>
</trkpt>
<trkpt lat="31.4035000" lon="34.4758300">
<ele>47.949997</ele>
<time>2024-03-24T12:19:59.266Z</time>
</trkpt>
<trkpt lat="31.4036300" lon="34.4759800">
<ele>47.520000</ele>
<time>2024-03-24T12:19:59.266Z</time>
</trkpt>
<trkpt lat="31.4037000" lon="34.4761200">
<ele>45.200001</ele>
<time>2024-03-24T12:19:59.266Z</time>
</trkpt>
<trkpt lat="31.4037600" lon="34.4761600">
<ele>45.380001</ele>
<time>2024-03-24T12:19:59.266Z</time>
</trkpt>
<trkpt lat="31.4043000" lon="34.4761500">
<ele>41.450001</ele>
<time>2024-03-24T12:19:59.266Z</time>
</trkpt>
<trkpt lat="31.4044500" lon="34.4761600">
<ele>40.799999</ele>
<time>2024-03-24T12:19:59.266Z</time>
</trkpt>
<trkpt lat="31.4048400" lon="34.4760800">
<ele>39.690002</ele>
<time>2024-03-24T12:19:59.266Z</time>
</trkpt>
<trkpt lat="31.4050200" lon="34.4761100">
<ele>39.150002</ele>
<time>2024-03-24T12:19:59.266Z</time>
</trkpt>
<trkpt lat="31.4051100" lon="34.4761600">
<ele>39.930000</ele>
<time>2024-03-24T12:19:59.266Z</time>
</trkpt>
<trkpt lat="31.4051400" lon="34.4762000">
<ele>40.329998</ele>
<time>2024-03-24T12:19:59.266Z</time>
</trkpt>
<trkpt lat="31.4051700" lon="34.4763600">
<ele>41.320000</ele>
<time>2024-03-24T12:19:59.266Z</time>
</trkpt>
<trkpt lat="31.4052300" lon="34.4765000">
<ele>42.120003</ele>
<time>2024-03-24T12:19:59.266Z</time>
</trkpt>
<trkpt lat="31.4052500" lon="34.4766800">
<ele>41.960003</ele>
<time>2024-03-24T12:19:59.266Z</time>
</trkpt>
<trkpt lat="31.4052800" lon="34.4767500">
<ele>42.320000</ele>
<time>2024-03-24T12:19:59.266Z</time>
</trkpt>
<trkpt lat="31.4058700" lon="34.4778200">
<ele>43.469997</ele>
<time>2024-03-24T12:19:59.266Z</time>
</trkpt>
<trkpt lat="31.4060300" lon="34.4781400">
<ele>43.599998</ele>
<time>2024-03-24T12:19:59.266Z</time>
</trkpt>
<trkpt lat="31.4062400" lon="34.4784800">
<ele>43.139999</ele>
<time>2024-03-24T12:19:59.266Z</time>
</trkpt>
<trkpt lat="31.4064400" lon="34.4786900">
<ele>45.630001</ele>
<time>2024-03-24T12:19:59.266Z</time>
</trkpt>
<trkpt lat="31.4065500" lon="34.4788000">
<ele>46.530003</ele>
<time>2024-03-24T12:19:59.266Z</time>
</trkpt>
<trkpt lat="31.4067100" lon="34.4789800">
<ele>46.840000</ele>
<time>2024-03-24T12:19:59.266Z</time>
</trkpt>
<trkpt lat="31.4067500" lon="34.4790200">
<ele>46.700001</ele>
<time>2024-03-24T12:19:59.266Z</time>
</trkpt>
<trkpt lat="31.4068000" lon="34.4791800">
<ele>46.450001</ele>
<time>2024-03-24T12:19:59.266Z</time>
</trkpt>
<trkpt lat="31.4068000" lon="34.4795200">
<ele>44.509998</ele>
<time>2024-03-24T12:19:59.266Z</time>
</trkpt>
<trkpt lat="31.4068400" lon="34.4796900">
<ele>42.759998</ele>
<time>2024-03-24T12:19:59.266Z</time>
</trkpt>
<trkpt lat="31.4073600" lon="34.4805100">
<ele>45.990002</ele>
<time>2024-03-24T12:19:59.266Z</time>
</trkpt>
<trkpt lat="31.4074500" lon="34.4805900">
<ele>48.629997</ele>
<time>2024-03-24T12:19:59.266Z</time>
</trkpt>
<trkpt lat="31.4074900" lon="34.4806600">
<ele>50.650002</ele>
<time>2024-03-24T12:19:59.266Z</time>
</trkpt>
<trkpt lat="31.4075200" lon="34.4807800">
<ele>52.520000</ele>
<time>2024-03-24T12:19:59.266Z</time>
</trkpt>
<trkpt lat="31.4074900" lon="34.4810800">
<ele>52.030003</ele>
<time>2024-03-24T12:19:59.266Z</time>
</trkpt>
<trkpt lat="31.4074900" lon="34.4814200">
<ele>52.860001</ele>
<time>2024-03-24T12:19:59.266Z</time>
</trkpt>
<trkpt lat="31.4075800" lon="34.4815300">
<ele>52.059998</ele>
<time>2024-03-24T12:19:59.266Z</time>
</trkpt>
<trkpt lat="31.4076300" lon="34.4815900">
<ele>51.469997</ele>
<time>2024-03-24T12:19:59.266Z</time>
</trkpt>
<trkpt lat="31.4077600" lon="34.4817200">
<ele>50.099998</ele>
<time>2024-03-24T12:19:59.266Z</time>
</trkpt>
<trkpt lat="31.4079100" lon="34.4818400">
<ele>50.770000</ele>
<time>2024-03-24T12:19:59.266Z</time>
</trkpt>
<trkpt lat="31.4083900" lon="34.4821200">
<ele>47.970001</ele>
<time>2024-03-24T12:19:59.266Z</time>
</trkpt>
<trkpt lat="31.4086000" lon="34.4822800">
<ele>48.480000</ele>
<time>2024-03-24T12:19:59.266Z</time>
</trkpt>
<trkpt lat="31.4087600" lon="34.4823700">
<ele>44.969997</ele>
<time>2024-03-24T12:19:59.266Z</time>
</trkpt>
<trkpt lat="31.4088300" lon="34.4823800">
<ele>44.630001</ele>
<time>2024-03-24T12:19:59.266Z</time>
</trkpt>
<trkpt lat="31.4089000" lon="34.4824100">
<ele>44.020000</ele>
<time>2024-03-24T12:19:59.266Z</time>
</trkpt>
<trkpt lat="31.4092400" lon="34.4827100">
<ele>45.160000</ele>
<time>2024-03-24T12:19:59.266Z</time>
</trkpt>
<trkpt lat="31.4094800" lon="34.4828900">
<ele>47.230000</ele>
<time>2024-03-24T12:19:59.266Z</time>
</trkpt>
<trkpt lat="31.4095800" lon="34.4829300">
<ele>48.020000</ele>
<time>2024-03-24T12:19:59.266Z</time>
</trkpt>
<trkpt lat="31.4097600" lon="34.4829400">
<ele>49.580002</ele>
<time>2024-03-24T12:19:59.266Z</time>
</trkpt>
<trkpt lat="31.4098200" lon="34.4829800">
<ele>50.510002</ele>
<time>2024-03-24T12:19:59.266Z</time>
</trkpt>
<trkpt lat="31.4099000" lon="34.4830700">
<ele>51.759998</ele>
<time>2024-03-24T12:19:59.266Z</time>
</trkpt>
<trkpt lat="31.4099300" lon="34.4831000">
<ele>51.799999</ele>
<time>2024-03-24T12:19:59.266Z</time>
</trkpt>
<trkpt lat="31.4100500" lon="34.4831800">
<ele>52.839996</ele>
<time>2024-03-24T12:19:59.266Z</time>
</trkpt>
<trkpt lat="31.4102900" lon="34.4832700">
<ele>54.910004</ele>
<time>2024-03-24T12:19:59.266Z</time>
</trkpt>
<trkpt lat="31.4103600" lon="34.4832800">
<ele>54.700001</ele>
<time>2024-03-24T12:19:59.266Z</time>
</trkpt>
<trkpt lat="31.4106200" lon="34.4834000">
<ele>52.750000</ele>
<time>2024-03-24T12:19:59.266Z</time>
</trkpt>
<trkpt lat="31.4107300" lon="34.4834200">
<ele>53.480000</ele>
<time>2024-03-24T12:19:59.266Z</time>
</trkpt>
<trkpt lat="31.4108300" lon="34.4834700">
<ele>53.040001</ele>
<time>2024-03-24T12:19:59.266Z</time>
</trkpt>
<trkpt lat="31.4109600" lon="34.4836000">
<ele>54.610001</ele>
<time>2024-03-24T12:19:59.266Z</time>
</trkpt>
<trkpt lat="31.4111400" lon="34.4839200">
<ele>59.020000</ele>
<time>2024-03-24T12:19:59.266Z</time>
</trkpt>
<trkpt lat="31.4112200" lon="34.4840000">
<ele>63.180000</ele>
<time>2024-03-24T12:19:59.266Z</time>
</trkpt>
<trkpt lat="31.4121900" lon="34.4845200">
<ele>60.930000</ele>
<time>2024-03-24T12:19:59.266Z</time>
</trkpt>
<trkpt lat="31.4123000" lon="34.4845300">
<ele>58.950001</ele>
<time>2024-03-24T12:19:59.266Z</time>
</trkpt>
<trkpt lat="31.4125900" lon="34.4845300">
<ele>51.849998</ele>
<time>2024-03-24T12:19:59.266Z</time>
</trkpt>
<trkpt lat="31.4128200" lon="34.4846400">
<ele>46.410000</ele>
<time>2024-03-24T12:19:59.266Z</time>
</trkpt>
<trkpt lat="31.4128500" lon="34.4846400">
<ele>45.279999</ele>
<time>2024-03-24T12:19:59.266Z</time>
</trkpt>
<trkpt lat="31.4128800" lon="34.4846200">
<ele>44.010002</ele>
<time>2024-03-24T12:19:59.266Z</time>
</trkpt>
<trkpt lat="31.4129900" lon="34.4846000">
<ele>39.440002</ele>
<time>2024-03-24T12:19:59.266Z</time>
</trkpt>
<trkpt lat="31.4131900" lon="34.4845100">
<ele>36.889999</ele>
<time>2024-03-24T12:19:59.266Z</time>
</trkpt>
<trkpt lat="31.4132800" lon="34.4844400">
<ele>37.209999</ele>
<time>2024-03-24T12:19:59.266Z</time>
</trkpt>
<trkpt lat="31.4133500" lon="34.4844500">
<ele>38.180000</ele>
<time>2024-03-24T12:19:59.266Z</time>
</trkpt>
<trkpt lat="31.4133900" lon="34.4845100">
<ele>39.119999</ele>
<time>2024-03-24T12:19:59.266Z</time>
</trkpt>
<trkpt lat="31.4134000" lon="34.4846400">
<ele>40.590000</ele>
<time>2024-03-24T12:19:59.266Z</time>
</trkpt>
<trkpt lat="31.4133500" lon="34.4848900">
<ele>39.530003</ele>
<time>2024-03-24T12:19:59.266Z</time>
</trkpt>
<trkpt lat="31.4133600" lon="34.4849700">
<ele>39.029999</ele>
<time>2024-03-24T12:19:59.266Z</time>
</trkpt>
<trkpt lat="31.4134200" lon="34.4850700">
<ele>42.469997</ele>
<time>2024-03-24T12:19:59.266Z</time>
</trkpt>
<trkpt lat="31.4135400" lon="34.4851600">
<ele>46.709999</ele>
<time>2024-03-24T12:19:59.266Z</time>
</trkpt>
<trkpt lat="31.4136000" lon="34.4851500">
<ele>47.450001</ele>
<time>2024-03-24T12:19:59.266Z</time>
</trkpt>
<trkpt lat="31.4136300" lon="34.4851200">
<ele>47.259998</ele>
<time>2024-03-24T12:19:59.266Z</time>
</trkpt>
<trkpt lat="31.4137600" lon="34.4848700">
<ele>42.549999</ele>
<time>2024-03-24T12:19:59.266Z</time>
</trkpt>
<trkpt lat="31.4138100" lon="34.4848100">
<ele>40.290001</ele>
<time>2024-03-24T12:19:59.266Z</time>
</trkpt>
<trkpt lat="31.4140000" lon="34.4846900">
<ele>38.450001</ele>
<time>2024-03-24T12:19:59.266Z</time>
</trkpt>
<trkpt lat="31.4140700" lon="34.4846900">
<ele>39.990002</ele>
<time>2024-03-24T12:19:59.266Z</time>
</trkpt>
<trkpt lat="31.4141600" lon="34.4847600">
<ele>42.019997</ele>
<time>2024-03-24T12:19:59.266Z</time>
</trkpt>
<trkpt lat="31.4142600" lon="34.4848000">
<ele>41.939999</ele>
<time>2024-03-24T12:19:59.266Z</time>
</trkpt>
<trkpt lat="31.4143300" lon="34.4848900">
<ele>42.019997</ele>
<time>2024-03-24T12:19:59.266Z</time>
</trkpt>
<trkpt lat="31.4143600" lon="34.4849100">
<ele>41.980000</ele>
<time>2024-03-24T12:19:59.266Z</time>
</trkpt>
<trkpt lat="31.4144400" lon="34.4849200">
<ele>41.730003</ele>
<time>2024-03-24T12:19:59.266Z</time>
</trkpt>
<trkpt lat="31.4144700" lon="34.4849100">
<ele>41.740002</ele>
<time>2024-03-24T12:19:59.266Z</time>
</trkpt>
<trkpt lat="31.4147400" lon="34.4847000">
<ele>42.459999</ele>
<time>2024-03-24T12:19:59.266Z</time>
</trkpt>
<trkpt lat="31.4151200" lon="34.4846000">
<ele>41.970001</ele>
<time>2024-03-24T12:19:59.266Z</time>
</trkpt>
<trkpt lat="31.4152300" lon="34.4846000">
<ele>43.079998</ele>
<time>2024-03-24T12:19:59.266Z</time>
</trkpt>
<trkpt lat="31.4154600" lon="34.4845100">
<ele>42.849998</ele>
<time>2024-03-24T12:19:59.266Z</time>
</trkpt>
<trkpt lat="31.4156400" lon="34.4845300">
<ele>45.920002</ele>
<time>2024-03-24T12:19:59.266Z</time>
</trkpt>
<trkpt lat="31.4157500" lon="34.4845200">
<ele>49.329998</ele>
<time>2024-03-24T12:19:59.266Z</time>
</trkpt>
<trkpt lat="31.4159600" lon="34.4843600">
<ele>51.000000</ele>
<time>2024-03-24T12:19:59.266Z</time>
</trkpt>
<trkpt lat="31.4161500" lon="34.4842400">
<ele>51.239998</ele>
<time>2024-03-24T12:19:59.266Z</time>
</trkpt>
<trkpt lat="31.4162900" lon="34.4840100">
<ele>51.810001</ele>
<time>2024-03-24T12:19:59.266Z</time>
</trkpt>
<trkpt lat="31.4164700" lon="34.4838700">
<ele>53.790001</ele>
<time>2024-03-24T12:19:59.266Z</time>
</trkpt>
<trkpt lat="31.4164900" lon="34.4838400">
<ele>54.259998</ele>
<time>2024-03-24T12:19:59.266Z</time>
</trkpt>
<trkpt lat="31.4165100" lon="34.4837100">
<ele>55.799999</ele>
<time>2024-03-24T12:19:59.266Z</time>
</trkpt>
<trkpt lat="31.4165800" lon="34.4836200">
<ele>57.280003</ele>
<time>2024-03-24T12:19:59.266Z</time>
</trkpt>
<trkpt lat="31.4166700" lon="34.4835400">
<ele>58.730000</ele>
<time>2024-03-24T12:19:59.266Z</time>
</trkpt>
<trkpt lat="31.4167400" lon="34.4835500">
<ele>57.869999</ele>
<time>2024-03-24T12:19:59.266Z</time>
</trkpt>
<trkpt lat="31.4167700" lon="34.4835700">
<ele>57.329998</ele>
<time>2024-03-24T12:19:59.266Z</time>
</trkpt>
<trkpt lat="31.4170200" lon="34.4835900">
<ele>53.180000</ele>
<time>2024-03-24T12:19:59.266Z</time>
</trkpt>
<trkpt lat="31.4172100" lon="34.4836900">
<ele>48.990002</ele>
<time>2024-03-24T12:19:59.266Z</time>
</trkpt>
<trkpt lat="31.4173600" lon="34.4837100">
<ele>51.230000</ele>
<time>2024-03-24T12:19:59.266Z</time>
</trkpt>
<trkpt lat="31.4174900" lon="34.4837800">
<ele>53.500000</ele>
<time>2024-03-24T12:19:59.266Z</time>
</trkpt>
<trkpt lat="31.4177700" lon="34.4837900">
<ele>57.529999</ele>
<time>2024-03-24T12:19:59.266Z</time>
</trkpt>
<trkpt lat="31.4178400" lon="34.4838300">
<ele>58.459999</ele>
<time>2024-03-24T12:19:59.266Z</time>
</trkpt>
<trkpt lat="31.4179400" lon="34.4838400">
<ele>59.580002</ele>
<time>2024-03-24T12:19:59.266Z</time>
</trkpt>
<trkpt lat="31.4181500" lon="34.4834800">
<ele>60.010002</ele>
<time>2024-03-24T12:19:59.266Z</time>
</trkpt>
<trkpt lat="31.4187800" lon="34.4831900">
<ele>54.990002</ele>
<time>2024-03-24T12:19:59.266Z</time>
</trkpt>
<trkpt lat="31.4190300" lon="34.4833000">
<ele>53.180000</ele>
<time>2024-03-24T12:19:59.266Z</time>
</trkpt>
<trkpt lat="31.4191000" lon="34.4832900">
<ele>53.189999</ele>
<time>2024-03-24T12:19:59.266Z</time>
</trkpt>
<trkpt lat="31.4191000" lon="34.4832900">
<ele>53.189999</ele>
<time>2024-03-24T12:19:59.266Z</time>
</trkpt>
<trkpt lat="31.4197300" lon="34.4831500">
<ele>69.820000</ele>
<time>2024-03-24T12:19:59.266Z</time>
</trkpt>
<trkpt lat="31.4204300" lon="34.4826100">
<ele>64.529999</ele>
<time>2024-03-24T12:19:59.266Z</time>
</trkpt>
<trkpt lat="31.4208900" lon="34.4822200">
<ele>61.049999</ele>
<time>2024-03-24T12:19:59.266Z</time>
</trkpt>
<trkpt lat="31.4209000" lon="34.4819300">
<ele>62.450001</ele>
<time>2024-03-24T12:19:59.266Z</time>
</trkpt>
<trkpt lat="31.4209600" lon="34.4819700">
<ele>63.719997</ele>
<time>2024-03-24T12:19:59.266Z</time>
</trkpt>
<trkpt lat="31.4212300" lon="34.4821200">
<ele>70.090004</ele>
<time>2024-03-24T12:19:59.266Z</time>
</trkpt>
<trkpt lat="31.4213300" lon="34.4821700">
<ele>72.269997</ele>
<time>2024-03-24T12:19:59.266Z</time>
</trkpt>
<trkpt lat="31.4218300" lon="34.4824800">
<ele>78.020004</ele>
<time>2024-03-24T12:19:59.266Z</time>
</trkpt>
<trkpt lat="31.4223100" lon="34.4827600">
<ele>82.550003</ele>
<time>2024-03-24T12:19:59.266Z</time>
</trkpt>
<trkpt lat="31.4225700" lon="34.4828800">
<ele>85.099998</ele>
<time>2024-03-24T12:19:59.266Z</time>
</trkpt>
<trkpt lat="31.4226400" lon="34.4829000">
<ele>83.349998</ele>
<time>2024-03-24T12:19:59.266Z</time>
</trkpt>
<trkpt lat="31.4227800" lon="34.4829600">
<ele>80.620003</ele>
<time>2024-03-24T12:19:59.266Z</time>
</trkpt>
<trkpt lat="31.4228800" lon="34.4829900">
<ele>80.669998</ele>
<time>2024-03-24T12:19:59.266Z</time>
</trkpt>
<trkpt lat="31.4232100" lon="34.4831500">
<ele>80.339996</ele>
<time>2024-03-24T12:19:59.266Z</time>
</trkpt>
<trkpt lat="31.4238600" lon="34.4835700">
<ele>73.500000</ele>
<time>2024-03-24T12:19:59.266Z</time>
</trkpt>
<trkpt lat="31.4241700" lon="34.4837200">
<ele>71.199997</ele>
<time>2024-03-24T12:19:59.266Z</time>
</trkpt>
<trkpt lat="31.4242600" lon="34.4839600">
<ele>70.690002</ele>
<time>2024-03-24T12:19:59.266Z</time>
</trkpt>
<trkpt lat="31.4243700" lon="34.4843000">
<ele>74.970001</ele>
<time>2024-03-24T12:19:59.266Z</time>
</trkpt>
<trkpt lat="31.4245000" lon="34.4846700">
<ele>77.659996</ele>
<time>2024-03-24T12:19:59.266Z</time>
</trkpt>
<trkpt lat="31.4245900" lon="34.4849200">
<ele>77.970001</ele>
<time>2024-03-24T12:19:59.266Z</time>
</trkpt>
<trkpt lat="31.4246700" lon="34.4851500">
<ele>78.760002</ele>
<time>2024-03-24T12:19:59.266Z</time>
</trkpt>
<trkpt lat="31.4247700" lon="34.4854700">
<ele>78.600006</ele>
<time>2024-03-24T12:19:59.266Z</time>
</trkpt>
<trkpt lat="31.4248300" lon="34.4856900">
<ele>77.739998</ele>
<time>2024-03-24T12:19:59.266Z</time>
</trkpt>
<trkpt lat="31.4249200" lon="34.4860100">
<ele>76.849998</ele>
<time>2024-03-24T12:19:59.266Z</time>
</trkpt>
<trkpt lat="31.4249600" lon="34.4862100">
<ele>77.250000</ele>
<time>2024-03-24T12:19:59.266Z</time>
</trkpt>
<trkpt lat="31.4250200" lon="34.4864900">
<ele>78.169998</ele>
<time>2024-03-24T12:19:59.266Z</time>
</trkpt>
<trkpt lat="31.4250600" lon="34.4866700">
<ele>78.590004</ele>
<time>2024-03-24T12:19:59.266Z</time>
</trkpt>
<trkpt lat="31.4251200" lon="34.4869000">
<ele>79.090004</ele>
<time>2024-03-24T12:19:59.266Z</time>
</trkpt>
<trkpt lat="31.4251600" lon="34.4870400">
<ele>79.529999</ele>
<time>2024-03-24T12:19:59.266Z</time>
</trkpt>
<trkpt lat="31.4252100" lon="34.4871800">
<ele>79.879997</ele>
<time>2024-03-24T12:19:59.266Z</time>
</trkpt>
<trkpt lat="31.4252800" lon="34.4874300">
<ele>81.209999</ele>
<time>2024-03-24T12:19:59.266Z</time>
</trkpt>
<trkpt lat="31.4253000" lon="34.4874800">
<ele>81.330002</ele>
<time>2024-03-24T12:19:59.266Z</time>
</trkpt>
<trkpt lat="31.4253400" lon="34.4875900">
<ele>80.620003</ele>
<time>2024-03-24T12:19:59.266Z</time>
</trkpt>
<trkpt lat="31.4254600" lon="34.4878400">
<ele>80.199997</ele>
<time>2024-03-24T12:19:59.266Z</time>
</trkpt>
<trkpt lat="31.4255600" lon="34.4880100">
<ele>82.359993</ele>
<time>2024-03-24T12:19:59.266Z</time>
</trkpt>
<trkpt lat="31.4255600" lon="34.4878600">
<ele>80.199997</ele>
<time>2024-03-24T12:19:59.266Z</time>
</trkpt>
<trkpt lat="31.4258500" lon="34.4878400">
<ele>81.110001</ele>
<time>2024-03-24T12:19:59.266Z</time>
</trkpt>
<trkpt lat="31.4268100" lon="34.4871200">
<ele>81.660004</ele>
<time>2024-03-24T12:19:59.266Z</time>
</trkpt>
<trkpt lat="31.4269400" lon="34.4871400">
<ele>81.020004</ele>
<time>2024-03-24T12:19:59.266Z</time>
</trkpt>
<trkpt lat="31.4270000" lon="34.4874100">
<ele>82.969994</ele>
<time>2024-03-24T12:19:59.266Z</time>
</trkpt>
<trkpt lat="31.4271000" lon="34.4875100">
<ele>82.830002</ele>
<time>2024-03-24T12:19:59.266Z</time>
</trkpt>
<trkpt lat="31.4270900" lon="34.4877900">
<ele>84.879997</ele>
<time>2024-03-24T12:19:59.266Z</time>
</trkpt>
<trkpt lat="31.4272800" lon="34.4878400">
<ele>82.400002</ele>
<time>2024-03-24T12:19:59.266Z</time>
</trkpt>
<trkpt lat="31.4274100" lon="34.4878200">
<ele>81.239998</ele>
<time>2024-03-24T12:19:59.266Z</time>
</trkpt>
<trkpt lat="31.4275900" lon="34.4878900">
<ele>77.250000</ele>
<time>2024-03-24T12:19:59.266Z</time>
</trkpt>
<trkpt lat="31.4276600" lon="34.4878700">
<ele>75.830002</ele>
<time>2024-03-24T12:19:59.266Z</time>
</trkpt>
<trkpt lat="31.4276600" lon="34.4878700">
<ele>75.830002</ele>
<time>2024-03-24T12:19:59.266Z</time>
</trkpt>
<trkpt lat="31.4278400" lon="34.4878200">
<ele>73.349998</ele>
<time>2024-03-24T12:19:59.266Z</time>
</trkpt>
<trkpt lat="31.4281200" lon="34.4881100">
<ele>69.770004</ele>
<time>2024-03-24T12:19:59.266Z</time>
</trkpt>
<trkpt lat="31.4283500" lon="34.4884400">
<ele>67.430000</ele>
<time>2024-03-24T12:19:59.266Z</time>
</trkpt>
<trkpt lat="31.4286500" lon="34.4887700">
<ele>70.570000</ele>
<time>2024-03-24T12:19:59.266Z</time>
</trkpt>
<trkpt lat="31.4286300" lon="34.4891100">
<ele>72.590004</ele>
<time>2024-03-24T12:19:59.266Z</time>
</trkpt>
<trkpt lat="31.4284700" lon="34.4894100">
<ele>72.189995</ele>
<time>2024-03-24T12:19:59.266Z</time>
</trkpt>
<trkpt lat="31.4286500" lon="34.4895700">
<ele>71.670006</ele>
<time>2024-03-24T12:19:59.266Z</time>
</trkpt>
<trkpt lat="31.4288700" lon="34.4897900">
<ele>72.669998</ele>
<time>2024-03-24T12:19:59.266Z</time>
</trkpt>
<trkpt lat="31.4290700" lon="34.4900100">
<ele>73.239998</ele>
<time>2024-03-24T12:19:59.266Z</time>
</trkpt>
<trkpt lat="31.4290800" lon="34.4903300">
<ele>71.889999</ele>
<time>2024-03-24T12:19:59.266Z</time>
</trkpt>
<trkpt lat="31.4289400" lon="34.4904800">
<ele>70.860001</ele>
<time>2024-03-24T12:19:59.266Z</time>
</trkpt>
<trkpt lat="31.4289400" lon="34.4904800">
<ele>70.860001</ele>
<time>2024-03-24T12:19:59.266Z</time>
</trkpt>
<trkpt lat="31.4289400" lon="34.4904800">
<ele>70.860001</ele>
<time>2024-03-24T12:19:59.266Z</time>
</trkpt>
<trkpt lat="31.4290500" lon="34.4908600">
<ele>74.930000</ele>
<time>2024-03-24T12:19:59.266Z</time>
</trkpt>
<trkpt lat="31.4289500" lon="34.4912200">
<ele>76.769997</ele>
<time>2024-03-24T12:19:59.266Z</time>
</trkpt>
<trkpt lat="31.4286700" lon="34.4912900">
<ele>74.099998</ele>
<time>2024-03-24T12:19:59.266Z</time>
</trkpt>
<trkpt lat="31.4283000" lon="34.4914700">
<ele>75.159996</ele>
<time>2024-03-24T12:19:59.266Z</time>
</trkpt>
<trkpt lat="31.4281800" lon="34.4916800">
<ele>76.240005</ele>
<time>2024-03-24T12:19:59.266Z</time>
</trkpt>
<trkpt lat="31.4281900" lon="34.4919100">
<ele>78.629997</ele>
<time>2024-03-24T12:19:59.266Z</time>
</trkpt>
<trkpt lat="31.4281900" lon="34.4919100">
<ele>78.629997</ele>
<time>2024-03-24T12:19:59.266Z</time>
</trkpt>
<trkpt lat="31.4282000" lon="34.4919100">
<ele>78.620003</ele>
<time>2024-03-24T12:19:59.266Z</time>
</trkpt>
<trkpt lat="31.4282000" lon="34.4920300">
<ele>79.630005</ele>
<time>2024-03-24T12:19:59.266Z</time>
</trkpt>
<trkpt lat="31.4282100" lon="34.4921000">
<ele>80.180000</ele>
<time>2024-03-24T12:19:59.266Z</time>
</trkpt>
<trkpt lat="31.4281400" lon="34.4921000">
<ele>79.899994</ele>
<time>2024-03-24T12:19:59.266Z</time>
</trkpt>
<trkpt lat="31.4281400" lon="34.4921000">
<ele>79.899994</ele>
<time>2024-03-24T12:19:59.266Z</time>
</trkpt>
<trkpt lat="31.4279800" lon="34.4921100">
<ele>79.380005</ele>
<time>2024-03-24T12:19:59.266Z</time>
</trkpt>
<trkpt lat="31.4279800" lon="34.4921800">
<ele>79.430000</ele>
<time>2024-03-24T12:19:59.266Z</time>
</trkpt>
<trkpt lat="31.4279800" lon="34.4921800">
<ele>79.430000</ele>
<time>2024-03-24T12:19:59.266Z</time>
</trkpt>
<trkpt lat="31.4279800" lon="34.4921800">
<ele>79.430000</ele>
<time>2024-03-24T12:19:59.266Z</time>
</trkpt>
<trkpt lat="31.4280000" lon="34.4926100">
<ele>80.880005</ele>
<time>2024-03-24T12:19:59.266Z</time>
</trkpt>
<trkpt lat="31.4281200" lon="34.4930700">
<ele>81.920006</ele>
<time>2024-03-24T12:19:59.266Z</time>
</trkpt>
<trkpt lat="31.4282100" lon="34.4933900">
<ele>82.309998</ele>
<time>2024-03-24T12:19:59.266Z</time>
</trkpt>
<trkpt lat="31.4282200" lon="34.4934500">
<ele>82.090004</ele>
<time>2024-03-24T12:19:59.266Z</time>
</trkpt>
<trkpt lat="31.4282300" lon="34.4934500">
<ele>82.260002</ele>
<time>2024-03-24T12:19:59.266Z</time>
</trkpt>
</trkseg>
</trk>
</gpx>
